[[{"header":{"parameterUnit":"m.s-1","parameterCategory":1,"la1":30.6,"la2":29.2853,"lo1":-89.7004,"lo2":-87.6739,"dy":0.0162,"dx":0.0183,"nx":112,"ny":82,"refTime":"2024-04-03T18:00:00:Z","depth":0,"parameterNumber":2,"parameterNumberName":"U-component_of_WINDS"},"data":[0.0,0.0,0.0,0.0,0.0,0.0,0.0,0.0,0.0,0.0,0.0,0.0,0.0,0.0,0.0,0.0,0.0,0.0,0.0,0.0,0.0,0.0,0.0,0.0,0.0,0.0,0.0,0.0,0.0,0.0,0.0,0.0,0.0,0.0,0.0,0.0,0.0,0.0,0.0,0.0,0.0,0.0,0.0,0.0,0.0,0.0,0.0,0.0,0.0,0.0,0.0,0.0,0.0,0.0,0.0,0.0,0.0,0.0,0.0,0.0,0.0,0.0,0.0,0.0,0.0,0.0,0.0,0.0,0.0,0.0,0.0,0.0,0.0,0.0,0.0,0.0,0.0,0.0,0.0,0.0,0.0,0.0,0.0,0.0,0.0,0.0,0.0,0.0,0.0,0.0,2.3581,2.5678,2.8706,3.0475,3.0182,2.9165,2.71,2.3743,0.0,0.0,0.0,0.0,0.0,0.0,0.0,0.0,0.0,0.0,0.0,0.0,0.0,0.0,0.0,0.0,0.0,0.0,0.0,0.0,0.0,0.0,0.0,0.0,0.0,0.0,0.0,0.0,0.0,0.0,0.0,0.0,0.0,0.0,0.0,0.0,0.0,0.0,0.0,0.0,0.0,0.0,0.0,0.0,0.0,0.0,0.0,0.0,0.0,0.0,0.0,0.0,0.0,0.0,0.0,0.0,0.0,0.0,0.0,0.0,0.0,0.0,0.0,0.0,0.0,0.0,0.0,0.0,0.0,0.0,0.0,0.0,0.0,0.0,0.0,0.0,0.0,0.0,0.0,0.0,0.0,0.0,0.0,0.0,0.0,0.0,0.0,0.0,0.0,0.0,0.0,0.0,0.0,0.0,0.0,0.0,0.0,0.0,0.0,0.0,0.0,0.0,0.0,0.0,2.4274,2.8102,3.0314,3.0823,2.918,2.8878,2.6892,2.2553,0.0,0.0,0.0,0.0,0.0,0.0,0.0,0.0,0.0,0.0,0.0,0.0,0.0,0.0,0.0,0.0,0.0,0.0,0.0,0.0,0.0,0.0,0.0,0.0,0.0,0.0,0.0,0.0,0.0,0.0,0.0,0.0,0.0,0.0,0.0,0.0,0.0,0.0,0.0,0.0,0.0,0.0,0.0,0.0,0.0,0.0,0.0,0.0,0.0,0.0,0.0,0.0,0.0,0.0,0.0,0.0,0.0,0.0,0.0,0.0,0.0,0.0,0.0,0.0,0.0,0.0,0.0,0.0,0.0,0.0,0.0,0.0,0.0,0.0,0.0,0.0,0.0,0.0,0.0,0.0,0.0,0.0,0.0,0.0,0.0,0.0,0.0,0.0,0.0,0.0,0.0,0.0,0.0,0.0,0.0,0.0,0.0,0.0,0.0,0.0,0.0,0.0,0.0,2.3032,2.4764,2.8102,2.9159,2.9463,2.9001,2.8033,2.6352,2.3782,2.2899,0.0,0.0,0.0,0.0,0.0,0.0,0.0,0.0,0.0,0.0,0.0,0.0,0.0,0.0,0.0,0.0,0.0,0.0,0.0,0.0,0.0,0.0,0.0,0.0,0.0,0.0,0.0,0.0,0.0,0.0,0.0,0.0,0.0,0.0,0.0,0.0,0.0,0.0,0.0,0.0,0.0,0.0,0.0,0.0,0.0,0.0,0.0,0.0,0.0,0.0,0.0,0.0,0.0,0.0,0.0,0.0,0.0,0.0,0.0,0.0,0.0,0.0,0.0,0.0,0.0,0.0,0.0,0.0,0.0,0.0,0.0,0.0,0.0,0.0,0.0,0.0,0.0,0.0,0.0,0.0,0.0,0.0,0.0,0.0,0.0,0.0,0.0,0.0,0.0,0.0,0.0,0.0,0.0,0.0,0.0,0.0,0.0,0.0,0.0,0.0,0.0,0.0,2.4149,2.5197,2.7351,2.7775,2.8063,2.8467,2.7139,2.5825,2.4733,2.298,0.0,0.0,0.0,0.0,0.0,0.0,0.0,0.0,0.0,0.0,0.0,0.0,0.0,0.0,0.0,0.0,0.0,0.0,0.0,0.0,0.0,0.0,0.0,0.0,0.0,0.0,0.0,0.0,0.0,0.0,0.0,0.0,0.0,0.0,0.0,0.0,0.0,0.0,0.0,0.0,0.0,0.0,0.0,0.0,0.0,0.0,0.0,0.0,0.0,0.0,0.0,0.0,0.0,0.0,0.0,0.0,0.0,0.0,0.0,0.0,0.0,0.0,0.0,0.0,0.0,0.0,0.0,0.0,0.0,0.0,0.0,0.0,0.0,0.0,0.0,0.0,0.0,0.0,0.0,0.0,0.0,0.0,0.0,0.0,0.0,0.0,0.0,0.0,0.0,0.0,0.0,0.0,0.0,0.0,0.0,0.0,0.0,0.0,0.0,0.0,0.0,0.0,2.4255,2.5601,2.6582,2.7409,2.7582,2.6832,2.6489,2.5539,2.3712,2.2609,0.0,0.0,0.0,0.0,0.0,0.0,0.0,0.0,0.0,0.0,0.0,0.0,0.0,0.0,0.0,0.0,0.0,0.0,0.0,0.0,0.0,0.0,0.0,0.0,0.0,0.0,0.0,0.0,0.0,0.0,0.0,0.0,0.0,0.0,0.0,0.0,0.0,0.0,0.0,0.0,0.0,0.0,0.0,0.0,0.0,0.0,0.0,0.0,0.0,0.0,0.0,0.0,0.0,0.0,0.0,0.0,0.0,0.0,0.0,0.0,0.0,0.0,0.0,0.0,0.0,0.0,0.0,0.0,0.0,0.0,0.0,0.0,0.0,0.0,0.0,0.0,0.0,0.0,0.0,0.0,0.0,0.0,0.0,0.0,0.0,0.0,0.0,0.0,0.0,0.0,0.0,0.0,0.0,0.0,0.0,0.0,0.0,0.0,0.0,0.0,0.0,0.0,2.4159,2.5082,0.0,2.6409,2.637,2.6582,2.603,2.5282,2.4365,0.0,0.0,0.0,0.0,0.0,0.0,0.0,0.0,0.0,0.0,0.0,0.0,0.0,0.0,0.0,0.0,0.0,0.0,0.0,0.0,0.0,0.0,0.0,0.0,0.0,0.0,0.0,0.0,0.0,0.0,0.0,0.0,0.0,0.0,0.0,0.0,0.0,0.0,0.0,0.0,0.0,0.0,0.0,0.0,0.0,0.0,0.0,0.0,0.0,0.0,0.0,0.0,0.0,0.0,0.0,0.0,0.0,0.0,0.0,0.0,0.0,0.0,0.0,0.0,0.0,0.0,0.0,0.0,0.0,0.0,0.0,0.0,0.0,0.0,0.0,0.0,0.0,0.0,0.0,0.0,0.0,0.0,0.0,0.0,0.0,0.0,0.0,0.0,0.0,0.0,0.0,0.0,0.0,0.0,0.0,0.0,0.0,0.0,0.0,0.0,0.0,0.0,2.4052,2.4322,2.4909,0.0,2.5649,2.5534,2.614,2.558,2.5084,2.4818,0.0,0.0,0.0,0.0,0.0,0.0,0.0,0.0,0.0,0.0,0.0,0.0,0.0,0.0,0.0,0.0,0.0,0.0,0.0,0.0,0.0,0.0,0.0,0.0,0.0,0.0,0.0,0.0,0.0,0.0,0.0,0.0,0.0,0.0,0.0,0.0,0.0,0.0,0.0,0.0,0.0,0.0,0.0,0.0,0.0,0.0,0.0,0.0,0.0,0.0,0.0,0.0,0.0,0.0,0.0,0.0,0.0,0.0,0.0,0.0,0.0,0.0,0.0,0.0,0.0,0.0,0.0,0.0,0.0,0.0,0.0,0.0,0.0,0.0,0.0,0.0,0.0,0.0,0.0,0.0,0.0,0.0,0.0,0.0,0.0,0.0,0.0,0.0,0.0,0.0,0.0,0.0,0.0,0.0,0.0,0.0,0.0,0.0,0.0,0.0,0.0,0.0,2.4225,2.4812,2.5303,2.5303,2.5303,2.5303,2.5303,2.5111,2.4956,0.0,0.0,0.0,0.0,0.0,0.0,0.0,0.0,0.0,0.0,0.0,0.0,0.0,0.0,0.0,0.0,0.0,0.0,0.0,0.0,0.0,0.0,0.0,0.0,0.0,0.0,0.0,0.0,0.0,0.0,0.0,0.0,0.0,0.0,0.0,0.0,0.0,0.0,0.0,0.0,0.0,0.0,0.0,0.0,0.0,0.0,0.0,0.0,0.0,0.0,0.0,0.0,0.0,0.0,0.0,0.0,0.0,0.0,0.0,0.0,0.0,0.0,0.0,0.0,0.0,0.0,0.0,0.0,0.0,0.0,0.0,0.0,0.0,0.0,0.0,0.0,0.0,0.0,0.0,0.0,0.0,0.0,0.0,0.0,0.0,0.0,0.0,0.0,0.0,0.0,0.0,0.0,0.0,0.0,0.0,0.0,0.0,0.0,0.0,0.0,0.0,0.0,0.0,2.4986,2.5149,2.5303,2.5303,2.5303,2.5303,2.5303,2.5253,2.513,2.4949,0.0,0.0,0.0,0.0,0.0,0.0,0.0,0.0,0.0,0.0,0.0,0.0,0.0,0.0,0.0,0.0,0.0,0.0,0.0,0.0,0.0,0.0,0.0,0.0,0.0,0.0,0.0,0.0,0.0,0.0,0.0,0.0,0.0,0.0,0.0,0.0,0.0,0.0,0.0,0.0,0.0,0.0,0.0,0.0,0.0,0.0,0.0,0.0,0.0,0.0,0.0,0.0,0.0,0.0,0.0,0.0,0.0,0.0,0.0,0.0,0.0,0.0,0.0,0.0,0.0,0.0,0.0,0.0,0.0,0.0,0.0,0.0,0.0,0.0,0.0,0.0,0.0,0.0,0.0,0.0,0.0,0.0,0.0,0.0,0.0,0.0,0.0,0.0,0.0,0.0,0.0,0.0,0.0,0.0,0.0,0.0,0.0,0.0,0.0,0.0,0.0,0.0,2.5303,2.5303,2.5303,2.5303,2.5303,2.5303,2.5303,2.5303,2.5214,2.5022,0.0,0.0,0.0,0.0,0.0,0.0,0.0,0.0,0.0,0.0,0.0,0.0,0.0,0.0,0.0,0.0,0.0,0.0,0.0,0.0,0.0,0.0,0.0,0.0,0.0,0.0,0.0,0.0,0.0,0.0,0.0,0.0,0.0,0.0,0.0,0.0,0.0,0.0,0.0,0.0,0.0,0.0,0.0,0.0,0.0,0.0,0.0,0.0,0.0,0.0,0.0,0.0,0.0,0.0,0.0,0.0,0.0,0.0,0.0,0.0,0.0,0.0,0.0,0.0,0.0,0.0,0.0,0.0,0.0,0.0,0.0,0.0,0.0,0.0,0.0,0.0,0.0,0.0,0.0,0.0,0.0,0.0,0.0,0.0,0.0,0.0,0.0,0.0,0.0,0.0,0.0,0.0,0.0,0.0,0.0,0.0,0.0,0.0,0.0,0.0,0.0,0.0,2.5303,2.5303,2.5303,2.5303,2.5303,2.5303,2.5303,2.5303,2.5214,2.5034,0.0,0.0,0.0,0.0,0.0,0.0,0.0,0.0,0.0,0.0,0.0,0.0,0.0,0.0,0.0,0.0,0.0,0.0,0.0,0.0,0.0,0.0,0.0,0.0,0.0,0.0,0.0,0.0,0.0,0.0,0.0,0.0,0.0,0.0,0.0,0.0,0.0,0.0,0.0,0.0,0.0,0.0,0.0,0.0,0.0,0.0,0.0,0.0,0.0,0.0,0.0,0.0,0.0,0.0,0.0,0.0,0.0,0.0,0.0,0.0,2.5909,0.0,0.0,0.0,0.0,0.0,0.0,0.0,0.0,0.0,0.0,0.0,0.0,0.0,0.0,0.0,0.0,0.0,0.0,0.0,0.0,0.0,0.0,0.0,0.0,0.0,0.0,0.0,0.0,0.0,0.0,0.0,0.0,0.0,0.0,0.0,0.0,0.0,0.0,0.0,0.0,0.0,2.5303,2.5303,2.5303,2.5303,2.5303,2.5303,2.5303,2.5303,2.5274,2.5253,2.5243,0.0,0.0,0.0,0.0,0.0,0.0,0.0,0.0,0.0,0.0,0.0,0.0,0.0,0.0,0.0,0.0,0.0,0.0,0.0,0.0,0.0,0.0,0.0,0.0,0.0,0.0,0.0,0.0,0.0,0.0,0.0,0.0,0.0,0.0,0.0,0.0,0.0,0.0,0.0,0.0,0.0,0.0,0.0,0.0,0.0,0.0,0.0,0.0,0.0,0.0,0.0,0.0,0.0,0.0,0.0,0.0,0.0,0.0,0.0,0.0,2.6159,0.0,0.0,0.0,0.0,0.0,0.0,0.0,0.0,0.0,0.0,0.0,0.0,0.0,0.0,0.0,0.0,0.0,0.0,0.0,0.0,0.0,0.0,0.0,0.0,0.0,0.0,0.0,0.0,0.0,0.0,0.0,0.0,0.0,0.0,0.0,0.0,0.0,0.0,0.0,0.0,2.5303,2.5303,2.5303,2.5303,2.5303,2.5303,2.5303,2.5303,2.5303,2.5303,2.5303,0.0,0.0,0.0,0.0,0.0,0.0,0.0,0.0,0.0,0.0,0.0,0.0,0.0,0.0,0.0,0.0,0.0,0.0,0.0,0.0,0.0,0.0,0.0,0.0,0.0,0.0,0.0,0.0,0.0,0.0,0.0,0.0,0.0,0.0,0.0,0.0,0.0,0.0,0.0,0.0,0.0,0.0,0.0,0.0,0.0,0.0,0.0,0.0,0.0,0.0,0.0,0.0,0.0,2.7928,2.8332,2.8332,2.8332,2.8332,2.8294,2.7409,2.7351,2.789,2.789,0.0,0.0,0.0,0.0,0.0,0.0,0.0,0.0,0.0,0.0,0.0,0.0,0.0,0.0,0.0,0.0,0.0,0.0,0.0,0.0,0.0,0.0,0.0,0.0,2.5534,2.5534,0.0,0.0,0.0,0.0,0.0,0.0,0.0,0.0,0.0,0.0,0.0,0.0,2.5303,2.5303,2.5303,2.5303,2.5303,2.5303,2.5303,2.5303,2.5303,2.5303,2.5303,2.5303,0.0,0.0,0.0,0.0,0.0,0.0,0.0,0.0,0.0,0.0,0.0,0.0,0.0,0.0,0.0,0.0,0.0,0.0,0.0,0.0,0.0,0.0,0.0,0.0,0.0,0.0,0.0,0.0,0.0,0.0,0.0,0.0,2.503,2.5224,0.0,0.0,0.0,0.0,0.0,0.0,0.0,0.0,0.0,0.0,0.0,0.0,0.0,2.6428,2.6428,2.7294,2.8082,2.8775,2.966,3.0083,3.0083,3.0083,3.0083,3.0025,2.914,0.0,2.789,2.789,0.0,0.0,0.0,0.0,0.0,0.0,0.0,0.0,0.0,0.0,0.0,0.0,0.0,0.0,0.0,0.0,0.0,0.0,0.0,0.0,0.0,0.0,2.6447,2.6428,2.6428,2.6428,0.0,2.5832,2.5303,2.5303,2.5303,0.0,0.0,0.0,0.0,0.0,0.0,0.0,2.5303,2.5303,2.5303,2.5303,2.5303,2.5303,2.5303,2.5303,2.5303,2.5303,2.5303,2.5303,2.5303,2.5303,0.0,0.0,0.0,0.0,0.0,0.0,0.0,0.0,0.0,0.0,0.0,0.0,0.0,0.0,0.0,0.0,0.0,0.0,0.0,0.0,0.0,0.0,0.0,0.0,0.0,0.0,0.0,0.0,0.0,2.5053,2.5203,2.5303,2.5303,2.5303,0.0,0.0,0.0,0.0,0.0,0.0,0.0,0.0,0.0,2.6755,2.7121,2.7544,2.8005,2.8871,2.9737,3.0564,3.141,3.1814,3.1814,3.1814,3.1814,3.1775,3.1391,3.1044,3.0641,2.9698,2.9313,2.9256,0.0,0.0,0.0,0.0,2.8179,2.8506,2.8063,2.8198,0.0,2.8044,0.0,0.0,0.0,0.0,0.0,0.0,0.0,0.0,0.0,0.0,2.7439,2.744,2.7431,2.744,2.7439,2.711,2.6657,0.0,2.6024,2.589,2.538,0.0,0.0,0.0,0.0,2.5303,2.5303,2.5303,2.5303,2.5303,2.5303,2.5303,2.5303,2.5303,2.5303,2.5303,2.5303,2.5303,2.5303,2.5303,2.5303,0.0,0.0,0.0,0.0,0.0,0.0,0.0,0.0,0.0,0.0,0.0,0.0,0.0,0.0,0.0,0.0,0.0,0.0,0.0,0.0,0.0,0.0,0.0,0.0,0.0,0.0,0.0,0.0,2.5405,2.5553,2.5322,2.5687,2.589,0.0,0.0,0.0,0.0,0.0,0.0,2.6928,2.7736,2.8198,2.8198,2.864,2.9159,2.9756,3.0621,3.1371,3.2025,3.2833,3.3122,3.291,3.3122,3.3103,3.2891,3.2891,3.2891,3.2795,3.1333,3.0737,3.066,2.9775,2.9429,2.9352,2.8756,2.8909,2.9352,2.8756,2.8929,2.9333,2.8736,0.0,2.8318,2.8318,0.0,0.0,0.0,0.0,2.8409,2.842,2.8434,2.8425,2.8442,2.8431,2.8431,2.8424,2.856,2.8328,0.0,2.6774,2.639,2.5726,0.0,0.0,0.0,0.0,2.5303,2.5303,2.5303,2.5303,2.5303,2.5303,2.5303,2.5303,2.5303,2.5303,2.5303,2.5303,2.5303,2.5303,2.5303,2.5303,2.5303,0.0,0.0,0.0,0.0,0.0,0.0,0.0,0.0,0.0,0.0,0.0,0.0,0.0,0.0,0.0,0.0,0.0,0.0,0.0,0.0,0.0,0.0,0.0,0.0,0.0,0.0,0.0,0.0,0.0,2.5399,2.6755,0.0,0.0,0.0,0.0,2.7775,2.7813,2.7832,2.7832,2.8602,2.9044,2.9044,3.0641,3.1525,3.1564,3.2372,3.2795,3.2852,3.3718,3.3699,3.2929,3.3757,3.368,3.2891,3.2891,3.2891,3.2833,3.1987,3.1641,3.1545,3.0679,3.0321,3.0321,3.0283,3.0302,3.0321,3.0283,3.0302,3.0321,3.0283,2.9752,2.9133,2.9133,2.8653,0.0,0.0,2.8659,2.9252,2.9327,2.9337,2.9337,2.9317,2.9322,2.9323,2.9323,2.9925,2.9977,0.0,2.7206,2.6582,2.6544,0.0,2.5303,2.5303,2.5303,2.5303,2.5303,2.5303,2.5303,2.5303,2.5303,2.5303,2.5303,2.5303,2.5303,2.5303,2.5303,2.5303,2.5303,2.5303,2.5303,2.5303,2.5303,0.0,0.0,0.0,0.0,0.0,0.0,0.0,0.0,0.0,0.0,0.0,0.0,0.0,0.0,0.0,0.0,0.0,0.0,0.0,0.0,0.0,0.0,0.0,0.0,0.0,0.0,0.0,0.0,2.7717,2.8294,0.0,2.8236,2.8025,2.789,2.789,2.8371,2.8909,2.9486,3.0314,3.1006,3.1525,3.2141,3.2737,3.3295,3.3583,3.4026,3.4584,3.4891,3.4872,3.4584,3.4891,3.4872,3.4584,3.4584,3.4584,3.4468,3.3045,3.2179,3.1621,3.0737,3.0398,3.0398,3.0398,3.0398,3.0398,3.0398,3.0398,3.0398,3.0398,3.0244,3.004,3.004,2.9886,2.9713,2.9717,2.9922,3.0159,3.0227,3.0237,3.0264,3.0333,3.0378,3.0372,3.0364,3.0525,3.0477,2.9869,2.8549,2.7193,2.6033,2.5582,2.5341,2.5303,2.5303,2.5303,2.5303,2.5303,2.5303,2.5303,2.5303,2.5303,2.5303,2.5303,2.5303,2.5303,2.5303,2.5303,2.5303,2.5303,2.5303,2.5303,2.5303,2.5303,0.0,0.0,0.0,0.0,0.0,0.0,0.0,0.0,0.0,0.0,0.0,0.0,0.0,0.0,0.0,0.0,0.0,0.0,0.0,0.0,0.0,0.0,0.0,0.0,0.0,0.0,2.8948,2.9486,3.0044,3.0275,3.0006,2.9737,2.9583,2.9583,3.0083,3.0621,3.1218,3.2064,3.2795,3.3314,3.3622,3.4045,3.4622,3.4641,3.493,3.5493,3.5493,3.5493,3.5493,3.5493,3.5493,3.5493,3.5493,3.5334,3.4949,3.3506,3.2449,3.1628,3.0744,3.0398,3.0398,3.0398,3.0398,3.0448,3.0467,3.0467,3.0467,3.0467,3.0506,3.0518,3.0519,3.055,3.0588,3.0637,3.0627,3.0645,3.075,3.077,3.0795,3.0874,3.0898,3.0897,3.0894,3.0837,3.0687,3.0385,2.9108,2.7721,2.6522,2.5831,2.5428,2.537,2.537,2.537,2.537,2.5341,2.5322,2.5322,2.5303,2.5303,2.5322,2.5322,2.5341,2.537,2.537,2.537,2.5322,2.5322,2.5322,2.5322,2.5726,2.59,2.5803,0.0,0.0,0.0,0.0,0.0,0.0,0.0,0.0,0.0,0.0,0.0,0.0,0.0,0.0,0.0,0.0,0.0,0.0,0.0,0.0,0.0,0.0,0.0,2.8121,2.9467,3.0533,3.059,3.2025,3.2699,3.191,3.2526,3.2968,3.2891,3.2929,3.2949,3.2987,3.3757,3.4218,3.4276,3.5064,3.5493,3.5493,3.5493,3.5493,3.5493,3.5493,3.5488,3.5468,3.5488,3.5468,3.543,3.5449,3.4968,3.4103,3.3218,3.2436,3.1705,3.0763,3.0398,3.0398,3.0398,3.0448,3.0518,3.0575,3.0595,3.0595,3.0595,3.0614,3.0601,3.0605,3.0606,3.062,3.0693,3.0714,3.0733,3.0864,3.0898,3.0898,3.0898,3.0898,3.0898,3.0898,3.0898,3.0644,2.9805,2.8834,2.8118,2.806,2.6657,2.5544,2.5534,2.5534,0.0,2.5534,2.5476,2.5438,2.5409,2.5341,2.5322,2.5409,2.539,2.5438,2.5495,2.5495,2.5476,2.5457,2.5447,2.5466,2.5476,2.6622,2.7094,2.6853,0.0,0.0,0.0,0.0,0.0,0.0,0.0,0.0,0.0,0.0,0.0,0.0,0.0,0.0,0.0,0.0,0.0,0.0,0.0,0.0,0.0,2.9333,3.0198,3.0602,3.2102,3.3603,3.4834,3.5372,3.5353,3.4526,3.4661,3.4257,3.3006,3.3487,3.4122,3.4757,3.441,3.4757,3.5968,3.568,3.5493,3.5493,3.5493,3.5493,3.5493,3.5493,3.518,3.4584,3.5218,3.4814,3.366,3.4276,3.409,3.3269,3.2436,3.2013,3.1789,3.084,3.0506,3.0544,3.0544,3.0559,3.0591,3.0591,3.061,3.061,3.061,3.0636,3.0671,3.0664,3.0749,3.0827,3.0849,3.0843,3.0852,3.0897,3.0898,3.0898,3.0898,3.0898,3.0898,3.0898,3.0898,3.082,3.0586,2.9802,2.8779,2.7451,2.6837,2.6493,2.6448,2.643,0.0,2.643,2.643,2.6164,2.5544,2.5466,2.5447,2.5466,2.5468,2.5486,2.5505,2.5505,2.5783,2.6391,2.6414,2.6715,2.7349,2.7686,2.7845,0.0,0.0,0.0,0.0,0.0,0.0,0.0,0.0,0.0,0.0,0.0,0.0,0.0,0.0,0.0,0.0,0.0,0.0,0.0,0.0,0.0,0.0,3.1506,3.3103,3.4661,3.4795,3.5372,3.7046,3.7238,3.7065,3.6603,3.6546,3.6142,3.5103,3.5507,3.6007,3.6526,3.6065,3.6065,3.668,3.6603,3.6219,3.5526,3.5834,3.5834,3.5493,3.5493,3.5238,3.4757,3.4916,3.4647,0.0,3.3853,3.3526,3.3026,3.2199,3.1675,0.0,0.0,0.0,0.0,0.0,3.0635,3.0645,3.0711,3.0723,3.0723,3.0723,3.0755,3.0775,3.0775,3.0833,3.0898,3.0898,3.0898,3.0898,3.0898,3.0898,3.0898,3.0898,3.0898,3.0898,3.0898,3.0898,3.0898,3.0898,3.0488,0.0,2.8281,2.7734,2.7479,2.7437,2.7432,2.7432,2.7432,2.7393,2.7199,2.6698,2.6611,2.6605,2.6622,2.6621,0.0,0.0,0.0,2.6883,2.7374,2.7392,0.0,0.0,0.0,2.8754,2.8792,0.0,0.0,0.0,2.8953,2.8965,0.0,0.0,0.0,0.0,0.0,0.0,0.0,0.0,0.0,0.0,0.0,0.0,0.0,0.0,0.0,0.0,3.4237,3.668,3.9219,3.7642,3.6796,3.8392,3.8488,3.8392,3.8296,3.8277,3.82,3.8007,3.8084,3.8142,3.8142,0.0,0.0,0.0,0.0,3.7199,3.5815,3.6315,3.6315,3.5795,3.5603,3.5493,3.5474,3.4768,3.4768,3.5238,3.3923,3.3249,3.3005,3.223,3.1447,3.0714,3.0658,3.0628,3.0631,3.0694,3.0721,3.0733,3.0858,0.0,0.0,3.0898,3.0898,3.0898,3.0898,3.0898,3.0898,3.0898,3.0898,3.0898,3.0898,3.0976,3.1055,3.1055,3.1055,3.1055,3.1055,3.1055,3.1016,3.0918,3.0976,3.0762,2.9902,2.9023,2.8457,2.8457,2.8457,2.8457,2.8457,2.8398,2.832,2.8223,0.0,0.0,2.8208,2.8219,2.8236,2.83,2.8398,2.8418,2.8359,2.846,2.8489,2.8489,2.9325,2.9757,2.9754,3.0518,3.0942,3.1035,3.0156,3.0098,0.0,0.0,0.0,0.0,0.0,0.0,0.0,0.0,0.0,0.0,0.0,0.0,0.0,0.0,0.0,3.5276,3.6738,3.8411,4.0969,4.0893,4.0969,4.1989,4.1489,4.0796,4.0065,4.0008,3.945,3.8104,3.8642,3.9046,3.9046,3.8373,3.8238,3.8777,3.7603,3.7142,3.7507,3.6334,3.6334,3.7507,0.0,0.0,3.5493,3.5378,3.4699,3.3621,3.4051,3.3471,3.2216,3.2061,3.1538,3.0852,3.0845,3.0835,3.0835,3.0864,3.086,3.0864,3.0897,3.0898,3.0898,3.0898,3.0898,3.0898,3.0898,3.0898,0.0,3.0898,3.0898,3.0898,3.0898,3.1426,3.1953,3.1953,3.1953,3.1953,3.1953,3.1953,3.1738,3.1035,3.1465,3.168,3.0801,2.9922,2.9355,2.9355,2.9355,2.9355,2.9355,2.9336,2.9062,2.8359,2.8261,2.8276,2.8288,2.8288,2.8294,2.8301,2.8965,2.9336,2.9336,2.9994,3.0378,3.0378,3.0565,3.0643,3.0652,3.0827,3.1265,3.1934,3.1055,3.0723,0.0,0.0,0.0,0.0,0.0,0.0,0.0,0.0,0.0,0.0,0.0,3.0314,3.1987,0.0,3.5545,3.7661,3.9065,4.0642,4.2758,4.3047,4.3066,4.3104,4.272,4.2104,4.1239,4.1143,4.0623,3.9354,3.9642,3.9892,3.9892,3.9488,3.9258,3.9296,3.8854,3.8411,3.8007,3.7642,3.7676,3.8099,3.7276,3.6661,3.6232,3.5892,3.5276,3.4469,3.4101,3.3711,3.3329,3.2875,3.2486,3.2108,3.1711,3.1289,3.0898,3.0898,3.0898,3.0898,3.0898,3.0898,3.0898,3.0898,3.0898,3.0898,3.0898,3.1191,3.1543,3.1543,3.1836,3.2148,3.2148,3.2461,3.2793,3.2793,3.2793,3.2793,3.2793,3.2793,3.2676,3.2246,3.25,3.2656,3.2226,3.1465,3.0742,3.0312,3.0254,3.0254,3.0254,3.0254,3.0078,2.9648,2.9609,2.9609,2.9609,2.9609,2.9609,2.9609,3.0019,3.0254,3.0254,3.1094,3.1543,3.1543,3.1953,3.1953,3.1543,3.1953,3.2168,3.2207,3.2168,3.2148,0.0,0.0,0.0,0.0,0.0,0.0,0.0,0.0,2.9352,3.1064,3.1968,3.2981,3.4661,3.681,3.8695,3.9835,4.1316,4.2854,4.4374,4.4586,4.4278,4.347,4.3355,4.3008,4.2143,4.1912,4.145,4.0566,4.0489,4.0489,4.0489,4.0489,4.02,3.9585,4.0196,3.9908,3.8565,3.9138,3.9182,3.8691,3.844,3.7939,3.7225,3.6504,3.6059,3.5817,3.4308,3.4043,3.4629,3.3769,3.3398,3.334,3.2695,3.1992,3.1348,3.1016,3.0898,3.0898,3.0898,3.1016,3.1152,3.1152,3.1269,3.1387,3.1387,3.1875,3.2422,3.2422,3.2891,3.3398,3.3398,3.3535,3.3652,3.3652,3.3652,3.3652,3.3652,3.3652,3.3594,3.3437,3.3535,3.3594,3.3437,3.2851,3.2148,3.1289,3.1016,3.0898,3.0898,3.0898,3.0898,3.0898,3.0898,3.0898,3.0898,3.0898,3.0898,3.0898,3.0898,3.0976,3.1152,3.1836,3.2266,3.2422,3.3066,3.3086,3.2422,3.3086,3.3144,3.2695,3.3359,3.3555,2.5666,2.587,2.6447,2.6447,2.7717,2.9352,0.0,0.0,3.2846,3.4661,3.5104,3.5688,3.743,3.8681,4.014,4.2332,4.3525,4.4526,4.5507,4.5642,4.5315,4.4449,4.4256,4.3855,4.3028,4.2258,4.145,4.0566,4.0489,4.0489,4.0489,4.0489,4.0523,4.0543,4.0631,4.0631,4.0485,3.9884,3.9895,4.0496,3.9007,3.8241,3.8138,3.7378,3.6631,3.5855,3.4952,3.4609,3.4629,3.3769,3.3398,3.3398,3.3301,3.3203,3.2949,3.1445,3.0898,3.0898,3.0898,3.1406,3.2051,3.2051,3.2539,3.3125,3.3125,3.3184,3.3262,3.3262,3.332,3.3398,3.3398,3.3965,3.4551,3.4551,3.4551,3.4551,3.4551,3.4551,3.4336,3.3555,3.4023,3.4316,3.3535,3.332,3.2988,3.2187,3.1406,3.0898,3.0898,3.0898,3.0898,3.0898,3.0898,3.0898,3.0898,3.0898,3.0898,3.0898,3.0898,3.125,3.2012,3.2148,3.2539,3.3242,3.3359,3.3359,3.3262,3.3359,3.375,3.4414,3.4512,3.4141,2.5617,2.6351,2.7467,0.0,2.9698,3.1775,3.3506,3.4591,3.5586,3.6856,3.7951,3.8917,3.9636,4.1306,4.2879,0.0,4.4757,4.543,4.5815,4.5448,4.4846,4.3962,4.3805,4.3431,4.2547,4.2124,4.1566,4.0735,4.0677,4.0889,4.1405,4.1424,4.169,4.2264,4.1783,4.1535,4.1563,4.0808,4.0574,4.0912,4.0279,3.9722,3.9208,3.839,3.7253,3.5947,3.5597,3.5469,3.543,3.5059,3.4902,3.4863,3.4355,3.416,3.4004,3.2793,3.2344,3.2344,3.2344,3.2598,3.2891,3.2891,3.3125,3.3398,3.3398,3.375,3.4258,3.4766,3.5273,3.5781,3.6289,3.6699,3.6973,3.6973,3.6973,3.6973,3.6973,3.6973,3.6855,3.6504,3.6719,3.6699,3.582,3.5254,3.4629,3.3789,3.291,3.2187,3.1719,3.166,3.1465,3.0957,3.0898,3.0898,3.0898,3.0898,3.1113,3.1621,3.166,3.2031,3.2851,3.3398,3.3809,3.4141,3.4648,3.4668,3.416,3.4668,3.4844,3.4707,3.5215,3.5254,2.6098,0.0,0.0,3.0179,3.241,3.4757,3.6488,3.7627,3.8568,3.9457,4.0518,4.1373,4.1607,4.2974,4.4195,4.4634,4.5209,4.5678,4.5926,4.5065,4.4072,4.3208,4.2673,4.2107,4.1431,4.1774,4.1677,4.0874,4.1029,4.1428,4.2079,4.2331,4.2767,4.3432,4.3071,4.2769,4.2538,4.2005,4.1621,4.1388,4.1257,4.0742,3.9863,3.875,3.7559,3.6348,3.6094,3.6133,3.6367,3.6367,3.6504,3.6641,3.6016,3.5781,3.5683,3.5028,3.4181,3.3398,3.3398,3.3555,3.3769,3.3769,3.4082,3.4473,3.4473,3.5066,3.5845,3.6469,3.71,3.7721,3.8346,3.8522,3.8522,3.8522,3.8522,3.8522,3.8522,3.8522,3.8522,3.8522,3.8522,3.8327,3.7682,3.7058,3.6335,3.5478,3.4795,3.3939,3.2695,3.2344,3.2031,3.1621,3.1387,3.1348,3.1562,3.1582,3.1855,3.248,3.2539,3.2891,3.3711,3.4355,3.4805,3.5059,3.5684,3.5684,3.5059,3.5684,3.5684,3.5078,3.5703,3.5996,2.7468,2.9098,3.0929,3.341,3.5949,3.8277,3.9969,4.1116,4.2116,4.3043,4.2722,4.2524,4.3368,4.2949,4.2956,4.4464,4.4786,4.5128,4.597,4.4664,4.3312,4.2442,4.0835,3.9794,0.0,4.118,4.174,4.0863,4.1571,4.2066,4.2105,4.2911,4.3432,4.3601,4.4388,4.4432,4.3652,4.3632,4.3183,4.2343,4.1562,4.0742,3.9844,3.8125,3.7305,3.7207,3.6367,3.6484,3.7266,3.7266,3.7754,3.8516,3.8496,3.8476,3.8452,3.8299,3.619,3.3398,3.3398,3.3945,3.4668,3.4668,3.5801,3.7187,3.7187,3.7695,3.8285,3.8319,3.8299,3.8276,3.8296,3.8315,3.8315,3.8315,3.8315,3.8315,3.8315,3.8315,3.8315,3.8315,3.8315,3.8296,3.8276,3.8257,3.7934,3.706,3.6911,3.6041,3.3671,3.2676,3.248,3.3242,3.2637,3.248,3.3262,3.332,3.334,3.3359,3.3359,3.375,3.4629,3.4687,3.5098,3.5937,3.5996,3.5996,3.5957,3.5996,3.5996,3.5957,3.5996,3.5996,2.8552,3.0419,3.2679,3.5218,3.7373,3.945,4.1755,4.2637,4.2884,4.2705,4.2082,4.1304,4.0448,4.1016,4.1952,4.299,4.4156,4.5035,4.5323,4.4883,4.3782,4.181,4.151,0.0,0.0,0.0,0.0,4.1049,4.1839,4.2541,4.3127,4.3986,4.4758,4.5367,4.5114,4.4832,4.457,4.3984,4.3262,4.2383,4.1582,4.0742,3.9883,3.9297,3.8711,3.8144,3.7851,3.7891,3.8164,3.8164,3.834,3.8592,3.8498,3.8461,3.8461,3.8373,3.7607,3.6667,3.6702,3.688,3.7091,3.7142,3.7514,3.7951,3.7951,3.814,3.8562,3.9677,3.998,4.0235,4.1382,4.1685,4.1685,4.1685,4.1685,4.1685,4.1685,4.1235,4.0823,4.0823,4.0346,3.9792,3.9239,3.9161,3.8672,3.722,3.6045,3.5056,3.4295,3.3414,3.2993,3.3359,3.3125,3.3066,3.3379,3.3398,3.3652,3.4238,3.4258,3.4648,3.5527,3.5566,3.5703,3.5996,3.5996,3.5996,3.5996,3.5996,3.5996,3.5996,3.5996,3.5996,3.1018,3.3154,3.5502,3.831,4.0134,4.1671,4.3352,4.3605,4.3167,4.2061,4.0999,3.9824,3.8398,3.8809,3.9726,4.0859,4.1973,4.3144,4.4355,4.4023,4.3262,4.2226,4.2012,4.1663,0.0,0.0,0.0,4.1581,4.2676,4.3574,4.4121,4.498,4.5723,4.6289,4.5762,4.5469,4.5469,4.4609,4.3574,4.2383,4.1875,4.1172,4.0351,4.0039,3.959,3.9043,3.873,3.8758,3.8998,3.8998,3.9145,3.94,3.9635,3.9716,3.9742,3.9978,4.0063,3.9884,3.8755,3.8338,3.8305,3.8348,3.8543,3.8819,3.9118,3.9389,3.9917,4.127,4.1632,4.1879,4.3008,4.3278,4.3278,4.3278,4.3278,4.3278,4.3278,4.2852,4.2464,4.2464,4.1755,4.0989,4.0473,3.9896,3.9104,3.7998,3.6377,3.5227,3.5012,3.4224,3.3803,3.4179,3.3929,3.3868,3.4181,3.422,3.4454,3.5023,3.5062,3.5315,3.5862,3.5882,3.5882,3.5882,3.5882,3.5882,3.5882,3.5882,3.5882,3.5882,3.5882,3.5882,3.466,3.7055,3.9174,4.2345,4.3836,4.4488,4.4451,4.3822,4.2768,4.1039,3.9388,3.8007,0.0,0.0,3.6504,3.8242,3.8672,3.9941,4.3242,4.2402,4.2012,0.0,0.0,0.0,0.0,0.0,0.0,4.2539,0.0,4.5,4.5,4.582,4.6308,4.6308,4.6308,4.6308,4.6308,4.5449,4.418,4.2539,4.2441,4.1992,4.123,4.0351,3.9959,3.9901,3.9062,3.9123,3.9831,3.9819,4.0262,4.101,4.1829,4.2156,4.2244,4.2934,4.3184,4.2742,3.9634,3.8549,3.8548,3.856,3.9096,3.9919,4.0674,4.1456,4.222,4.303,4.322,4.3162,4.322,4.322,4.322,4.322,4.322,4.322,4.322,4.3181,4.3162,4.3162,4.247,4.1873,4.1873,4.0508,3.9411,3.9373,3.7873,3.6526,3.5853,3.504,3.4844,3.5611,3.5011,3.4865,3.5631,3.5689,3.5689,3.5689,3.5689,3.5689,3.5689,3.5689,3.5689,3.5689,3.5689,3.5689,3.5689,3.5689,3.5689,3.5689,3.5689,3.5689,3.6853,3.8747,4.0457,4.1928,4.2048,4.1651,4.1108,3.9819,3.83,3.6644,3.4901,3.341,3.2548,3.3797,3.5527,3.7266,3.9746,0.0,4.3496,4.4453,0.0,4.3808,0.0,4.3867,4.3418,4.3965,0.0,0.0,4.4746,4.5,4.5,4.582,4.6308,4.6308,4.6308,4.6308,4.6308,4.5449,4.4785,4.4316,4.3027,4.2285,4.2051,4.1143,4.0715,4.0707,4.0381,4.0711,4.1488,4.1485,4.1979,4.2758,4.2879,4.2934,4.2934,4.3085,4.3143,4.3008,4.2165,4.1882,4.1866,4.1928,4.2069,4.2258,4.2453,4.2646,4.2989,4.3797,4.4008,4.4143,4.4778,4.4951,4.4951,4.4951,4.4951,4.4951,4.4951,4.4451,4.3989,4.3989,4.3335,4.2777,4.2777,4.1873,4.0931,4.0277,3.8757,3.7411,3.6689,3.5798,3.5367,3.5674,3.547,3.5423,3.5674,3.5693,3.5693,3.5693,3.5693,3.5693,3.5693,3.5693,3.5693,3.5693,3.5693,3.5693,3.5693,3.5693,3.5693,3.5693,3.5693,3.5693,3.9327,4.1204,4.2681,4.3124,4.2363,4.1106,3.9571,3.7559,3.5431,3.3409,3.2168,3.1052,2.9789,3.1371,3.3349,3.4745,0.0,0.0,4.2324,4.4082,4.5078,0.0,4.5273,0.0,4.4883,4.5273,4.5566,0.0,4.5566,4.5566,4.5566,4.6035,4.6308,4.6308,4.6308,4.6308,4.6308,4.5801,4.5371,4.498,4.3958,4.3276,4.2918,4.2311,4.2052,4.2059,0.0,4.2187,4.2589,4.2572,4.2838,4.3297,4.3566,4.3682,4.372,4.4066,4.4201,4.4201,4.4201,4.4201,4.4085,4.3393,4.3143,4.3162,4.3528,4.3624,4.3797,4.4643,4.4874,4.497,4.547,4.5586,4.5586,4.5586,4.5586,4.5586,4.5586,4.522,4.4759,4.4374,4.3932,4.3508,4.3162,4.2701,4.2066,4.12,3.9931,3.8681,3.7522,3.6276,3.5545,3.5603,3.5584,3.5584,3.5622,3.5622,3.5622,3.5622,3.5622,3.5622,3.5622,3.5622,3.5622,3.5622,3.5622,3.5622,3.5622,3.5622,3.5622,3.5622,3.5622,3.5622,4.1822,4.367,4.4914,4.4703,4.3255,4.1211,3.8649,3.5922,3.3229,3.0762,3.03,2.9846,2.8212,2.9517,3.1149,3.2073,3.4431,3.7341,4.0836,4.2695,4.4336,4.6074,4.6289,4.6308,4.6308,4.6308,4.6308,4.6308,4.6308,4.6308,4.6308,4.6308,4.6308,4.6308,4.6308,4.6308,4.6308,4.6308,4.5916,4.5143,4.4899,4.4416,4.3744,4.3497,4.3369,4.3355,4.3355,0.0,4.3338,4.3338,4.3393,4.3508,4.4201,4.447,4.4566,4.5316,4.5586,4.5586,4.5586,4.5586,4.5355,4.3893,4.3431,4.3566,4.4259,4.447,4.4624,4.5374,4.5586,4.5586,4.5586,4.5586,4.5586,4.5586,4.5586,4.5586,4.5586,4.5586,4.5374,4.4624,4.447,4.4239,4.3547,4.3335,4.297,4.2104,4.1123,3.9931,3.8373,3.6699,3.5622,3.5512,3.5493,3.5493,3.5493,3.5493,3.5493,3.5493,3.5493,3.5493,3.5493,3.5493,3.5493,3.5493,3.5493,3.5493,3.5493,3.5493,3.5493,3.5493,3.5622,3.5661,4.3752,4.4531,4.4664,4.3993,4.1527,3.8568,3.5898,3.2753,0.0,2.7885,2.8,2.8163,2.714,2.9501,3.1902,3.2788,3.512,3.8026,4.1454,4.2907,4.4238,0.0,4.623,4.6308,4.6308,4.6308,0.0,0.0,4.6308,4.6308,4.6308,4.6308,4.6308,4.6308,4.6308,4.6308,4.6308,4.6308,4.6177,4.5887,4.5153,4.4703,4.4491,4.3631,4.323,4.3222,4.3181,0.0,4.4105,4.4105,4.4528,4.5182,4.5316,4.5355,4.5393,4.5528,4.5586,4.5586,4.5586,4.5586,4.5547,4.5259,4.5163,4.5182,4.5316,4.5355,4.5413,4.5547,4.5586,4.5586,4.5586,4.5586,4.5586,4.5586,4.5586,4.5586,4.5586,4.5586,4.5547,4.5393,4.5355,4.5316,4.5182,4.4566,4.3816,4.3008,4.1508,4.0142,3.92,3.7565,3.6238,3.557,3.5493,3.5493,3.5493,3.5493,3.5493,3.5493,3.5493,3.5493,3.5493,3.5493,3.5493,3.5493,3.5493,3.5493,3.5493,3.5493,3.5493,3.5526,3.618,3.6488,4.3833,4.4877,4.5168,4.3408,4.0422,3.71,3.4007,0.0,0.0,2.6352,2.7063,2.7687,2.6802,2.9096,3.1425,3.2269,3.4265,3.689,4.0316,4.1965,4.3481,4.5253,4.5898,4.6211,4.6289,4.6308,4.6308,4.6308,4.6308,4.6308,4.6308,4.6308,4.6308,4.6308,4.6308,4.627,4.6201,4.6201,4.6124,4.5984,4.5549,4.5297,4.5259,4.4701,4.4451,4.4451,4.4412,0.0,4.497,4.497,4.522,4.5586,4.5586,4.5586,4.5586,4.5586,4.5586,4.5586,4.5586,4.5586,4.5586,4.5586,4.5586,4.5586,4.5586,4.5586,4.5568,4.54,4.5476,4.5568,4.54,4.5476,4.5586,4.5586,4.5586,4.555,4.5381,4.5342,4.5342,4.5342,4.5342,4.54,4.5568,4.524,4.4682,4.3855,4.2662,4.1393,4.0085,3.8834,3.7738,3.6892,3.6411,3.6122,3.6122,3.5738,3.5493,3.5493,3.5493,3.5493,3.5493,3.5493,3.5493,3.5493,3.5493,3.5493,3.5493,3.5493,3.5718,3.6142,3.6526,3.6949,4.3379,4.4707,4.5195,4.2969,3.9684,3.6141,3.2839,2.9294,2.6446,2.5503,2.6502,2.7347,2.6655,2.8544,3.0483,3.1357,3.2986,3.5297,3.8517,4.0611,4.2491,4.4319,4.5463,0.0,4.6241,4.6257,0.0,4.6257,4.6234,4.6246,4.6308,4.6276,4.6257,4.6257,4.6237,4.6157,4.6059,4.6059,4.5997,4.5869,4.5843,4.5776,4.5757,4.5643,4.5586,4.5586,4.5586,0.0,0.0,4.5586,4.5586,4.5586,4.5586,4.5586,4.5586,4.5586,4.5586,4.5586,4.5586,4.555,4.5495,4.5495,4.5495,4.5495,4.5495,4.5438,4.5342,4.5074,4.5182,4.5322,4.5074,4.5201,4.54,4.54,4.54,4.5303,4.5052,4.4988,4.4988,4.4988,4.4988,4.5074,4.5342,4.54,4.5093,4.4212,4.3541,4.2601,4.1119,4.0233,3.95,3.8892,3.7719,3.6911,3.6719,3.6122,3.568,3.5512,3.5493,3.5493,3.5493,3.5493,3.557,3.5757,3.5757,3.5757,3.5757,3.5949,3.6257,3.6719,3.7084,3.7623,4.3047,4.3828,4.3691,4.2656,3.9184,3.5324,3.2628,0.0,2.6168,2.5232,2.5786,2.6416,2.6339,2.7927,0.0,0.0,0.0,3.3949,3.6603,3.92,4.1466,4.315,4.4982,0.0,4.6124,4.6105,4.6105,4.6105,4.6014,4.6039,4.6289,4.6173,4.6105,4.6105,4.6005,4.5927,4.593,4.5931,4.5871,4.5808,4.5794,4.5738,4.5605,4.5605,4.5586,4.5586,4.5586,0.0,0.0,4.5586,4.5586,4.5586,4.5586,4.5586,4.5586,4.5586,4.5586,4.5586,4.5586,4.54,4.5159,4.5159,4.5159,4.5159,4.5159,4.4943,4.4701,4.4657,4.4657,4.4682,4.4657,4.4657,4.4682,4.4682,4.4682,4.4682,4.4657,4.465,4.465,4.465,4.465,4.4676,4.4682,4.4682,4.4399,4.3523,4.3334,4.3052,4.2387,4.1608,4.1189,4.1418,3.9315,3.7565,3.6776,3.6642,3.6276,3.5565,3.5493,3.5493,3.5493,3.5493,3.5853,3.6584,3.6603,3.6603,3.6603,3.7373,3.7411,3.6738,3.8315,3.9104,4.0667,4.2349,4.2939,4.0531,3.7464,3.4209,3.0946,0.0,2.5488,2.4985,2.6053,2.7071,2.7071,2.8624,0.0,0.0,0.0,0.0,3.4834,3.6565,3.8608,4.1368,4.3266,4.478,0.0,0.0,4.5982,4.5967,4.5939,4.5945,4.6055,4.5999,4.5969,4.5986,4.592,4.5877,4.5838,4.5841,4.5796,4.568,4.568,4.5643,4.5586,4.5586,4.5586,4.5586,4.5586,0.0,0.0,4.5586,4.5586,4.5586,4.5586,4.5476,4.5302,4.5302,4.5161,4.4988,4.4988,4.4919,4.48,4.48,4.4657,4.4463,4.4732,4.4726,4.4553,4.4308,4.4401,4.4553,4.429,4.4419,4.458,4.458,4.458,4.4527,4.429,4.4233,4.4233,4.4233,4.4233,4.4337,4.4553,4.458,4.4466,4.4127,4.363,4.3228,4.301,4.2233,4.1665,4.1495,3.9871,3.8642,3.8296,3.7777,3.7123,3.6276,3.6219,3.6219,3.6219,3.6219,3.6622,3.7469,3.7488,3.7488,3.7488,3.7834,3.8084,3.8277,3.8969,3.9546,3.7841,3.9898,4.0859,3.8213,3.5562,3.2732,2.9372,0.0,2.4875,2.4731,2.5758,2.6854,2.7423,2.8638,0.0,0.0,0.0,3.1487,3.3526,3.4988,3.6858,3.958,4.1426,4.3188,4.494,4.5564,4.5848,4.5813,4.5815,4.5815,4.5815,4.5808,4.5835,4.5853,4.5834,4.5796,4.5738,4.5738,4.5699,4.5586,4.5586,4.5586,4.5586,4.5586,4.5586,4.5586,4.5586,0.0,0.0,4.5495,4.5438,4.5438,4.5342,4.5161,4.4943,4.4943,4.4781,4.458,4.458,4.4527,4.4401,4.4401,4.4165,4.3912,4.4194,4.428,4.4242,4.3943,4.4065,4.4194,4.3943,4.4046,4.428,4.428,4.428,4.4269,4.4228,4.422,4.422,4.422,4.4406,4.4501,4.4317,4.4458,4.4551,4.4318,4.3746,4.3399,4.349,4.275,4.2146,4.1911,4.0826,3.9863,3.9354,3.8738,3.8007,3.7142,3.7084,3.7084,3.7084,3.7084,3.7488,3.8373,3.8373,3.8373,3.8392,3.8623,3.8931,3.9296,3.9527,3.995,3.4817,3.6291,3.6873,3.6016,3.3673,3.0858,0.0,2.6061,2.4512,2.4512,2.453,2.5099,2.6956,2.749,2.8243,3.0117,0.0,0.0,3.2795,3.5084,3.7026,3.793,3.9679,4.1468,4.3075,4.478,4.5757,4.5605,4.5586,0.0,4.5586,4.5603,4.5661,4.5796,4.568,4.5586,4.5586,4.5586,4.5586,4.5586,4.5586,4.5586,4.5586,4.5586,4.5586,4.5586,0.0,0.0,0.0,4.5243,4.5096,4.5074,4.4751,4.4624,4.4624,4.4624,4.4606,4.458,4.458,4.4318,4.4016,4.4016,4.3772,4.3532,4.3513,4.3513,4.3513,4.3532,4.3532,4.3513,4.3532,4.3532,4.3513,4.3513,4.3513,4.3752,4.4525,4.469,4.469,4.469,4.5333,4.5369,4.3807,4.4158,4.4415,4.3642,4.3513,4.3612,4.3937,4.3297,4.2922,4.3246,4.2473,4.126,3.9458,3.9277,3.8911,3.8046,3.7988,3.7988,3.7988,3.7988,3.8392,3.9258,3.9277,3.9277,3.9277,4.0085,4.0065,3.9315,4.0104,4.0489,3.1175,3.2708,3.3506,3.2069,3.0598,2.895,2.6811,2.5375,2.4461,2.4303,2.4836,2.5495,2.6103,2.7422,2.8809,2.9991,3.104,0.0,3.2795,3.4622,3.6642,3.8642,4.1973,4.4282,0.0,0.0,4.5643,4.5586,4.5586,4.5586,4.5586,4.5586,4.5605,4.5643,4.5605,4.5586,4.5586,4.5586,4.5586,4.5586,4.5586,4.5586,4.5586,4.5586,4.5457,0.0,0.0,0.0,0.0,4.4781,4.4776,4.4751,4.4631,4.4447,4.4175,4.4175,4.4046,4.3855,4.3855,4.3758,4.3646,4.3646,4.3597,4.3497,4.3497,4.3497,4.3497,4.3497,4.3497,4.3497,4.3497,4.3497,4.3497,4.3497,4.3497,4.3552,4.3809,4.4305,4.4709,4.4709,4.5351,4.5553,4.4507,4.4544,4.4433,4.3608,4.3497,4.3548,4.3646,4.3443,4.3217,4.2967,4.2697,4.2179,4.1241,4.1359,4.0883,3.9451,3.9567,3.945,3.8911,3.8892,3.9277,4.0085,4.0123,4.0123,4.0123,4.0373,4.0354,4.0123,4.0373,4.0489,2.7904,2.9439,3.0246,2.8818,2.8052,2.714,2.5301,2.4506,2.4155,2.4036,2.4616,2.5262,2.5629,2.7005,2.8385,2.933,3.0652,3.184,3.2664,3.4351,3.6454,3.9016,4.2489,0.0,0.0,4.524,4.5586,4.5586,4.5586,4.5586,4.5586,4.5586,4.5586,4.5586,4.5586,4.5586,4.5586,4.5586,4.5586,4.5586,4.5586,4.5531,4.5419,4.5419,4.5222,0.0,0.0,0.0,0.0,4.4447,4.4373,4.4346,4.4223,4.4035,4.3804,4.3804,4.3679,4.3497,4.3497,4.3497,4.3497,4.3497,4.3497,4.3497,4.3497,4.3497,4.3497,4.3497,4.3497,4.3497,4.3497,4.3497,4.3571,4.3883,4.3956,4.403,4.4342,4.48,4.5149,4.5149,4.581,4.6012,4.4892,4.4947,4.4782,4.3663,4.3497,4.3497,4.3497,4.3497,4.3379,4.3093,4.305,4.2922,4.2584,4.241,4.1873,4.0827,4.0672,4.0461,4.007,3.9763,3.989,4.0489,4.0489,4.0489,4.0489,4.0489,4.0489,4.0489,4.0489,4.0489,0.0,2.6469,2.7089,2.6274,2.5938,2.5397,2.3819,2.3602,0.0,0.0,2.3976,2.4524,2.5576,2.6376,2.7306,2.8529,3.0273,3.1802,3.2733,3.4644,3.6863,0.0,4.1802,0.0,4.3286,4.4703,4.5586,4.5586,4.5586,4.5586,4.5586,4.5586,4.5586,4.5586,4.5586,4.5586,4.5586,4.5586,4.5586,4.5586,4.5568,4.54,4.5096,4.5074,4.4872,0.0,0.0,0.0,0.0,4.4136,4.3955,4.3924,4.3612,4.3497,4.3497,4.3497,4.3497,4.3497,4.3497,4.3497,4.3497,4.3497,4.3479,4.3444,4.3497,4.3497,4.3497,4.3497,4.3497,4.3497,4.3497,4.3479,4.3646,4.4433,4.4581,4.4801,4.5645,4.5865,4.5902,4.5902,4.6617,4.6673,4.5002,4.5369,4.5351,4.3736,4.3497,4.3497,4.3497,4.3497,4.3497,4.3497,4.3497,4.3497,4.3497,4.2677,4.2121,4.2065,4.1399,4.1089,4.1335,4.0576,4.0272,4.0518,4.0476,4.0438,4.0438,4.0438,4.0438,4.0438,4.0438,4.0438,2.2485,0.0,2.4167,2.3965,2.3902,2.3743,0.0,2.3486,0.0,0.0,0.0,2.465,2.6107,2.6673,2.7793,3.0579,3.2256,3.3726,3.5217,3.8249,0.0,4.2148,4.3895,4.4797,4.4243,4.5049,4.5586,4.5586,4.5586,4.5586,4.5586,4.5586,4.5586,4.5586,4.5586,4.5586,4.5586,4.5586,4.5586,4.5586,4.5342,4.518,4.5096,4.4849,4.4527,0.0,0.0,0.0,4.3744,4.3646,4.3631,4.3631,4.3548,4.3497,4.3497,4.3497,4.3497,4.3497,4.3497,4.3497,4.3497,4.3497,4.3214,4.2976,4.3375,4.3497,4.3497,4.3497,4.3497,4.3497,4.3497,4.3214,4.3031,4.3648,4.347,4.3485,4.4729,4.548,4.5902,4.5902,4.7058,4.7315,4.5094,4.5369,4.5351,4.3736,4.3497,4.3497,4.3497,4.3497,4.3497,4.3497,4.3497,4.3497,4.3497,4.3528,4.3266,4.2669,4.2682,4.2448,4.1855,4.1066,4.0677,4.0726,4.0122,3.9821,3.9821,3.9821,3.9821,3.9821,3.9821,3.9821,2.1491,2.2175,2.2798,2.2798,2.2798,2.2798,2.2798,0.0,0.0,0.0,0.0,2.4399,2.5784,2.6523,2.7867,3.0816,3.2391,3.414,3.6725,3.9465,4.17,4.3008,4.4259,4.5009,0.0,4.5374,4.5586,4.5586,4.5586,4.5586,4.5586,4.5586,4.5586,4.5586,4.5586,4.5586,4.5586,4.5438,4.5362,4.5381,4.503,4.4781,4.4587,4.4401,4.4136,0.0,0.0,0.0,4.3497,4.3497,4.3497,4.3497,4.3497,4.3497,4.3479,4.3214,4.3124,4.3124,4.3124,4.3124,4.3087,4.281,4.2523,4.2342,4.2657,4.2734,4.2772,4.305,4.294,4.2734,4.2734,4.2483,4.2454,4.309,4.3062,4.3117,4.4209,4.4755,4.5084,4.5084,4.5789,4.5843,4.4198,4.427,4.4222,4.3269,4.3124,4.3214,4.3463,4.3497,4.3497,4.3497,4.3497,4.3497,4.3497,4.3679,4.3587,4.3148,4.2958,4.2687,4.2379,4.1207,4.0459,4.0255,3.9825,3.9599,3.9599,3.9599,3.9599,3.9599,3.9599,3.9807,2.129,2.184,2.2209,2.2282,2.231,2.231,2.2349,0.0,0.0,0.0,0.0,0.0,0.0,2.6745,0.0,3.0837,0.0,0.0,3.8473,4.0181,4.1643,4.3143,4.4008,0.0,4.5374,4.5528,4.5586,4.5586,4.5586,4.5586,4.5586,4.555,4.5513,4.5513,4.5457,4.5438,4.5438,4.5222,4.5074,4.503,4.4682,4.4318,4.4016,4.3955,4.3772,4.3497,0.0,0.0,4.3479,4.341,4.341,4.3479,4.341,4.3375,4.3321,4.2864,4.2655,4.2559,4.2559,4.248,4.2342,4.1937,4.175,4.1664,4.175,4.1768,4.175,4.2302,4.2192,4.1952,4.1828,4.1813,4.1982,4.2642,4.2766,4.2926,4.3872,4.4112,4.4112,4.4112,4.42,4.397,4.2987,4.2916,4.291,4.2606,4.2559,4.2732,4.3196,4.3232,4.3286,4.3375,4.3375,4.341,4.3479,4.3497,4.3497,4.3497,4.2855,4.258,4.273,4.1367,4.0281,3.9664,3.9776,3.972,3.9457,3.9588,3.9664,3.9664,3.9664,4.0071,2.0959,2.1399,2.1794,2.2209,2.231,2.2377,2.2573,0.0,0.0,0.0,0.0,0.0,0.0,2.9134,3.0912,0.0,0.0,3.9983,0.0,0.0,4.3855,4.4237,0.0,4.522,4.4722,4.524,4.5586,4.5586,4.5586,4.5586,4.5586,4.5322,4.518,4.518,4.4896,4.4757,4.4757,4.4966,4.4943,4.4657,4.4261,4.4058,4.3986,4.3693,4.3548,4.3497,0.0,4.3497,4.3444,4.3014,4.3087,4.3444,4.3014,4.2826,4.2826,4.275,4.24,4.1937,4.1937,4.1621,4.1268,4.1664,4.1446,4.1133,4.1664,4.1446,4.1041,4.1133,4.1947,4.2581,4.197,4.1928,4.2021,4.1982,4.1604,4.1736,4.3658,4.4112,4.4112,4.4112,4.4643,4.4458,4.2341,4.2562,4.2782,4.2061,4.1937,4.1979,4.2062,4.2062,4.2244,4.277,4.2826,4.3014,4.3444,4.3497,4.3497,4.3497,4.3369,4.3036,4.2404,4.2147,4.1333,3.9884,4.0529,4.0216,3.8833,3.9515,3.9847,3.9847,3.9847,4.029,2.0483,2.0943,2.143,2.2022,2.2347,2.259,2.2898,0.0,0.0,0.0,0.0,0.0,0.0,0.0,3.2275,3.5263,0.0,4.1685,4.2565,4.323,4.3835,0.0,0.0,4.4951,4.5086,4.5393,4.5586,4.5586,4.5438,4.5322,4.5322,4.5011,4.4825,4.4825,4.4682,4.4501,4.4261,4.4428,4.4428,4.4261,4.3912,4.3726,4.3726,4.3563,4.3497,4.3497,0.0,4.3339,4.305,4.2788,4.2637,4.2562,4.2324,4.2203,4.2162,4.1853,4.1534,4.1268,4.0984,4.0874,4.092,4.0891,4.0672,4.0546,4.0814,4.0672,4.0449,4.0449,4.1223,4.1899,4.157,4.1827,4.2158,4.2078,4.1845,4.2054,4.3439,4.3731,4.3731,4.3731,4.3729,4.321,4.1726,4.1462,4.1429,4.1321,4.1313,4.1446,4.175,4.181,4.1895,4.2162,4.2203,4.2324,4.2562,4.26,4.2847,4.3444,4.3497,4.313,4.2323,4.2304,4.1754,4.0579,4.0928,4.0744,4.001,4.0377,4.0561,4.0561,4.0561,4.0983,2.0177,2.0649,2.1165,2.1927,0.0,2.291,2.3697,0.0,0.0,0.0,0.0,0.0,0.0,3.0771,0.0,3.7356,4.0504,4.2465,4.2216,4.3043,4.3912,4.4528,4.4605,4.4874,4.5528,4.5531,4.5495,4.5495,4.5161,4.4966,4.4966,4.4657,4.438,4.4173,4.411,4.3914,4.3584,4.3602,4.3695,4.3881,4.3511,4.3321,4.3286,4.316,4.3105,4.3105,4.3105,4.2865,4.248,4.2342,4.208,4.181,4.1621,4.1578,4.1534,4.092,4.0685,4.0655,4.0254,4.0368,4.0655,4.0254,4.007,4.007,4.007,4.007,4.007,4.007,4.0629,4.1204,4.1204,4.1745,4.2286,4.2286,4.2286,4.2489,4.325,4.342,4.342,4.342,4.2811,4.2066,4.1339,4.0578,4.0254,4.0655,4.0685,4.0874,4.1331,4.142,4.1464,4.1578,4.1578,4.1664,4.181,4.181,4.2185,4.3069,4.3356,4.3222,4.2598,4.258,4.2194,4.1405,4.1589,4.1497,4.1111,4.1295,4.1387,4.1387,4.1387,4.1809,2.0177,2.0649,2.1165,2.1927,2.2398,0.0,2.5416,2.6477,0.0,0.0,0.0,0.0,0.0,3.3165,3.6419,4.0028,4.1727,4.3115,4.462,0.0,4.5432,4.549,4.5509,4.5528,4.5586,4.5322,4.5137,4.5137,4.4825,4.465,4.465,4.4261,4.3703,4.2938,4.263,4.2426,4.2411,4.2411,4.2779,4.3548,4.3014,4.275,4.275,4.2203,4.1919,4.1919,4.1919,4.1895,4.181,4.1268,4.1358,4.175,4.1161,4.0949,4.092,4.0385,4.0171,4.0171,4.0121,4.0121,4.0171,4.0121,4.007,4.007,4.007,4.007,4.007,4.007,4.0629,4.1204,4.1204,4.1745,4.2286,4.2286,4.2286,4.2489,4.325,4.342,4.342,4.342,4.2811,4.2066,4.1339,4.0578,4.0121,4.0171,4.0171,4.0154,4.0204,4.0204,4.0417,4.0903,4.0949,4.1178,4.175,4.181,4.1835,4.1937,4.2885,4.3461,4.3406,4.3406,4.3039,4.2231,4.2947,4.2598,4.1111,4.1864,4.2213,4.2213,4.2213,4.2635,1.9788,2.0431,2.1134,2.1619,0.0,0.0,0.0,0.0,0.0,0.0,0.0,0.0,0.0,0.0,3.6997,4.0034,4.1755,4.3119,4.4259,4.4924,4.5222,4.5011,4.5161,4.5222,4.4988,4.4853,4.48,4.48,4.3984,4.3465,4.3465,4.2656,4.2068,4.1754,4.1632,4.1382,4.1051,4.1051,4.1289,4.1785,4.2402,4.2519,4.2121,4.1895,4.181,4.181,4.181,4.1578,4.1206,4.0995,4.0827,4.072,4.0497,4.0417,4.0368,4.0154,4.007,4.007,4.007,4.007,4.007,4.007,4.007,4.007,4.007,3.9731,3.9415,3.9864,4.0213,4.0725,4.1639,4.2439,4.3115,4.3606,4.3707,4.3792,4.4079,4.3758,4.342,4.342,4.2439,4.1525,4.1255,4.0578,4.007,4.007,4.007,4.007,4.007,4.007,4.0171,4.0368,4.0417,4.0497,4.072,4.1059,4.1223,4.1223,4.2003,4.2426,4.2426,4.2426,4.2474,4.2541,4.2868,4.2886,4.2598,4.2892,4.3039,4.3039,4.3039,4.3204,1.9752,2.0532,2.1228,0.0,0.0,0.0,0.0,0.0,0.0,0.0,3.35,0.0,0.0,0.0,0.0,0.0,4.1434,4.2797,4.3849,4.4535,4.4872,4.465,4.4781,4.4849,4.4606,4.4256,4.4025,4.4025,4.292,4.2254,0.0,4.1512,4.0983,4.0744,4.0559,4.0302,3.9914,3.9769,3.9825,4.0105,4.1233,4.1706,4.149,4.1331,4.1241,4.1241,4.1241,4.1013,4.0655,4.0655,4.0449,4.007,4.007,4.007,4.007,3.9833,3.9731,3.9679,3.9454,3.9385,3.9385,3.9385,3.9385,3.9385,3.9385,3.8995,3.8623,3.9112,3.9331,3.968,4.0906,4.2133,4.3312,4.4328,4.4384,4.4253,4.4514,4.3962,4.3339,4.3088,4.181,4.0905,4.1137,4.0587,4.0204,4.0426,4.0443,4.0443,4.0443,4.0443,4.0443,4.0443,4.0443,4.0341,4.0104,4.0449,4.0655,4.0655,4.1013,4.1402,4.181,4.181,4.1979,4.24,4.244,4.2598,4.2977,4.2977,4.2977,4.2977,4.2977,4.2977,2.0162,2.0927,2.1598,0.0,0.0,0.0,0.0,0.0,0.0,0.0,0.0,3.6883,3.7419,0.0,0.0,3.9559,4.0859,4.2164,4.3774,4.4327,4.4561,4.4561,4.4561,4.4561,4.4561,4.3512,4.2797,4.2797,4.1736,4.1111,0.0,4.1093,4.0708,3.99,3.9379,3.9083,3.9083,3.8592,3.8473,3.8677,3.9396,4.0158,4.0839,4.0319,4.007,4.007,4.007,4.007,4.007,4.007,4.007,4.007,4.007,4.007,3.9952,3.9193,3.8908,3.8799,3.8035,3.7822,3.7822,3.7822,3.7822,3.7822,3.7822,3.7806,3.7822,3.7822,3.7822,3.7982,3.8729,4.0502,4.2559,4.4198,4.3931,4.3502,4.4384,4.3873,4.3059,4.2376,4.0973,4.0172,4.1058,4.0578,4.0337,4.11,4.1152,4.1204,4.1204,4.1204,4.1221,4.1204,4.1204,4.0899,4.0138,4.007,4.007,4.007,4.007,4.0594,4.1768,4.1793,4.181,4.181,4.181,4.1793,4.181,4.181,4.181,4.181,4.181,4.181,1.9974,2.0715,0.0,2.2176,0.0,0.0,0.0,0.0,0.0,0.0,3.8063,3.8217,3.8553,0.0,0.0,4.0034,4.0787,4.1617,4.2668,4.2616,4.2389,4.2149,4.235,4.2389,4.2149,4.1791,4.1599,4.1599,4.0754,0.0,0.0,3.9352,3.8731,3.8495,3.8044,3.7585,3.7198,3.7056,3.7101,3.7382,3.7604,3.8342,3.9586,3.9934,4.007,4.007,4.007,4.007,4.007,3.9489,3.9262,3.9209,3.8652,3.8486,3.843,3.8206,3.8149,3.8076,3.7863,3.7822,3.7822,3.7822,3.7822,3.7822,3.7822,3.7397,3.7074,3.7559,3.77,3.7856,3.8607,3.9267,4.0133,4.172,4.221,4.2458,4.2707,4.1788,4.0829,4.0663,3.9826,3.9225,3.9479,3.9704,3.9957,4.0193,3.9829,3.9503,3.9503,4.0416,4.0868,4.0354,4.0838,4.0899,4.0138,4.007,4.007,4.007,4.007,4.0254,4.0594,4.0594,4.075,4.1178,4.1178,4.1402,4.181,4.181,4.181,4.181,4.181,4.181,2.0469,2.1181,0.0,2.2751,2.4624,2.7163,3.0707,0.0,0.0,0.0,0.0,3.9065,3.9753,3.9446,0.0,4.0023,4.0394,4.091,4.1717,4.1575,4.1323,4.1126,4.128,4.1194,4.0685,4.0174,3.9747,3.9418,0.0,0.0,0.0,3.7446,3.7022,3.6699,3.6252,3.5994,3.5948,3.5759,3.5725,3.5941,3.6195,3.6701,3.7318,3.8942,3.948,3.9192,3.9215,3.9172,3.9172,3.8635,3.8469,3.8414,3.7978,3.7822,3.7748,3.7456,3.7338,3.7279,3.7011,3.689,3.689,3.689,3.689,3.689,3.689,3.6523,3.6257,3.6654,3.6776,3.6932,3.7345,3.7652,3.8314,4.0164,4.0657,4.0769,4.1149,4.0291,3.9375,3.909,3.8419,3.806,3.8683,3.9077,3.9565,4.0162,3.9904,3.9425,3.8926,4.0113,4.0593,3.9642,3.9956,3.9967,3.9239,3.9172,3.9172,3.9172,3.9437,3.961,3.961,3.9952,4.0237,4.0577,4.0577,4.075,4.1105,4.1105,4.1105,4.1105,4.1105,4.1105,2.1274,2.1899,0.0,2.3291,2.5065,0.0,3.2277,3.5951,3.8896,4.0529,0.0,3.9637,4.079,3.9446,3.8572,3.9706,3.99,4.0157,4.0891,4.0946,4.0855,4.0799,4.073,4.0386,3.9593,3.8416,3.7422,3.6684,0.0,0.0,0.0,3.5544,3.565,3.496,3.4484,3.4557,3.5215,3.467,3.4437,3.4493,3.5186,3.5163,3.4711,3.7435,3.8354,3.7728,3.7721,3.7758,3.7806,3.769,3.769,3.769,3.7648,3.7589,3.7515,3.6737,3.6492,3.6384,3.5718,3.5504,3.5504,3.5504,3.5504,3.5504,3.5504,3.5504,3.5504,3.5504,3.5504,3.5504,3.5504,3.5953,3.6955,3.9106,3.9047,3.8774,3.9609,3.9094,3.8333,3.7714,3.701,3.6908,3.828,3.8611,3.9134,4.0404,4.061,4.0213,3.8842,3.9891,4.0272,3.893,3.883,3.8616,3.787,3.7822,3.7822,3.7822,3.8414,3.8799,3.8799,3.961,4.007,4.007,4.007,4.007,4.007,4.007,4.007,4.007,4.007,4.007,2.0749,2.1446,0.0,0.0,2.7066,3.0567,3.3463,3.5227,3.6848,3.881,4.0,4.0583,4.0212,4.0312,4.0307,3.9968,3.99,3.9955,4.012,3.9606,3.8982,3.834,3.7963,3.7424,3.6608,3.596,3.5472,0.0,0.0,0.0,3.4906,3.5267,3.5366,3.5209,3.4723,3.4534,3.4687,3.4041,3.3697,0.0,3.3924,3.3976,3.3922,3.5704,3.6697,3.7012,3.7006,3.7335,3.7764,3.71,3.6859,3.6798,3.6243,3.5958,3.5973,3.5782,3.5718,3.5733,3.5554,3.5504,3.5504,3.5504,3.5504,3.5504,3.5504,3.5504,3.5504,3.5504,3.5504,3.5504,3.5504,3.5609,3.5874,3.6353,3.7107,3.7714,3.7901,3.7455,3.6944,3.6808,3.6595,3.6588,3.6908,3.7835,3.8364,3.8174,3.8569,3.85,3.7192,3.8317,3.8872,3.7951,3.847,3.8616,3.787,3.7822,3.7822,3.7822,3.7921,3.8035,3.8035,3.9401,4.007,4.007,4.007,4.007,4.007,4.007,4.007,4.007,4.007,4.007,2.0603,0.0,0.0,2.445,0.0,3.0731,3.2765,3.399,3.5166,3.6867,3.8363,3.9478,3.9827,3.9937,3.9808,3.9386,3.9118,3.9035,3.9282,3.8227,3.7341,3.7184,3.6396,3.5588,3.4766,3.4304,3.3863,0.0,0.0,3.3497,3.3149,3.3611,3.359,3.2954,3.2639,3.2507,3.2557,3.224,3.2077,3.2128,3.2149,3.1997,3.1747,3.381,3.5244,3.6222,3.5829,3.6055,3.6662,3.6243,3.6054,3.6054,3.5668,3.5504,3.5504,3.5504,3.5504,3.5504,3.5504,3.5504,3.5504,3.5504,3.5504,3.5504,3.5504,3.5504,3.5504,3.5504,3.5504,3.5504,3.5504,3.5504,3.5504,3.5504,3.6013,3.6492,3.6492,3.6237,3.6013,3.6013,3.6013,3.6118,3.6432,3.7285,3.7704,3.706,3.7509,3.7464,3.6178,3.6935,3.7384,3.6648,3.7001,3.7095,3.6754,3.6723,3.6723,3.6723,3.7055,3.7219,3.7219,3.8374,3.9156,3.9542,3.9542,3.9731,4.007,4.007,4.007,4.007,4.007,4.007,2.0376,0.0,2.2396,2.4972,2.7348,0.0,3.1324,3.2459,3.3576,3.4986,3.6222,3.7491,3.8907,3.8643,3.8177,3.8063,3.7775,3.7693,3.8,3.675,3.5901,3.6242,3.5258,3.427,3.3458,3.2998,0.0,0.0,0.0,3.1695,3.1089,3.1648,3.15,3.0363,3.0346,3.0391,3.0507,3.0384,3.0354,3.039,3.0412,3.0143,2.9693,3.1855,3.3552,3.4845,3.4363,3.4532,3.516,3.516,3.522,3.5325,3.5325,3.54,3.5504,3.5504,3.5504,3.5504,3.5504,3.5504,3.5504,3.5504,3.5359,3.5279,3.5439,3.5359,3.5213,3.5213,3.5359,3.5424,3.5067,3.5133,3.5213,3.5213,3.5148,3.5067,3.5439,3.5504,3.5504,3.5504,3.5504,3.5714,3.6372,3.6911,3.7075,3.6567,3.6926,3.6821,3.5654,3.5983,3.6103,3.5564,3.5504,3.5504,3.5504,3.5504,3.5504,3.5504,3.6054,3.6384,3.6384,3.7055,3.7732,3.8509,3.8635,3.9032,3.9679,3.9679,3.9679,3.9679,3.9679,3.9679,1.9468,0.0,2.304,0.0,2.6335,2.7759,0.0,0.0,3.1637,0.0,3.4636,3.5431,3.6045,3.6267,3.6167,3.5507,3.5865,3.6079,3.5489,3.5207,3.48,3.4195,3.3653,3.3014,3.2159,3.1699,0.0,0.0,3.0824,3.0534,3.0435,3.0603,3.0658,3.047,3.047,3.0473,3.0523,2.9926,2.9614,2.9673,2.9689,2.9672,2.9594,2.9943,3.0839,3.206,3.2586,3.3155,3.3769,3.3769,3.4098,3.4607,3.4607,3.4981,3.5504,3.5504,3.5504,3.5504,3.5504,3.5504,3.5504,3.5504,3.4905,3.4394,3.5213,3.4905,3.4177,3.4177,3.4839,3.5133,3.3394,3.3602,3.4177,3.4177,3.3602,3.3463,3.5148,3.5504,3.5504,3.5504,3.5504,3.5714,3.6372,3.6552,3.6582,3.6492,3.6552,3.6342,3.5609,3.5579,3.5609,3.5519,3.5504,3.5504,3.5504,3.5504,3.5504,3.5504,3.5619,3.5668,3.5668,3.5733,3.6117,3.6888,3.7616,3.7978,3.8108,3.8108,3.8108,3.8108,3.8108,3.8108,1.9177,2.0717,2.2179,0.0,2.4995,2.6652,2.784,2.8951,3.0074,3.1183,3.1498,3.2319,3.4775,3.5295,3.5279,3.4959,3.4957,3.4971,3.4924,3.372,3.2782,3.2704,3.1944,3.1285,3.0888,3.0415,0.0,0.0,2.9584,2.9248,2.9264,2.9665,2.9717,2.9407,2.8997,2.8669,2.8309,2.8003,2.8069,2.8434,2.8463,2.8457,2.8472,2.8444,2.9522,3.1497,3.1839,3.2542,3.3529,3.3888,3.4218,3.4502,3.4316,3.4427,3.4691,3.4691,3.4341,3.3973,3.4476,3.4691,3.4543,3.4056,3.3959,3.3959,3.3891,3.3547,3.3241,3.3241,3.3533,3.3685,3.282,3.289,3.3241,3.3241,3.289,3.282,3.3685,3.4259,3.4839,3.5359,3.5504,3.5594,3.5893,3.5938,3.5938,3.5938,3.5938,3.5833,3.5549,3.5504,3.5504,3.5504,3.5504,3.5504,3.5504,3.5504,3.5504,3.5504,3.5504,3.5504,3.5504,3.5504,3.5668,3.6006,3.6753,3.7338,3.7822,3.7822,3.7822,3.7822,3.7822,3.7822,0.0,0.0,2.1031,2.1716,2.3513,2.5217,0.0,0.0,2.8433,0.0,2.9074,2.9911,3.2879,3.3547,3.3758,3.3951,3.3654,3.3488,3.3651,3.2087,3.0934,3.0964,3.0149,2.9559,2.9426,2.9062,0.0,0.0,2.8275,2.7933,2.7906,2.8237,2.8201,2.7764,2.7303,2.681,2.6333,2.6348,2.6515,2.6821,2.6988,2.7077,2.7049,2.6985,2.8121,3.0249,3.0514,3.1292,3.2379,3.2912,3.3309,3.3519,3.3283,3.3386,3.3671,3.3671,3.3171,3.2678,3.338,3.3671,3.3518,3.282,3.289,3.3171,3.2749,3.2464,3.2249,3.2249,3.2393,3.2464,3.2046,3.2046,3.2249,3.2249,3.2033,3.2046,3.2536,3.3171,3.3891,3.4624,3.4773,3.4854,3.5067,3.492,3.492,3.5439,3.5279,3.5213,3.5439,3.5504,3.5504,3.5504,3.5504,3.5504,3.5504,3.5504,3.5504,3.5504,3.5504,3.5504,3.5504,3.5504,3.5504,3.5504,3.6054,3.6646,3.7251,3.7251,3.7251,3.7251,3.7251,3.7251,0.0,1.8881,0.0,2.1078,2.1827,2.2781,0.0,0.0,2.6559,2.7653,2.8503,2.9062,2.9287,2.9898,3.0573,3.1291,3.137,3.1133,3.0438,3.0247,2.9719,2.8511,2.8318,2.8089,2.7574,2.7533,0.0,0.0,2.6945,2.6614,2.6614,2.6062,2.5798,2.5751,2.5721,2.5706,2.5659,2.5659,2.5316,2.466,2.5303,2.5578,2.5508,2.5481,2.5924,2.6733,2.7889,2.8691,2.9226,2.9253,2.9947,3.0987,3.0948,3.1668,3.2664,3.2664,3.2664,3.2593,3.2664,3.2664,3.2664,3.2593,3.2033,3.1536,3.2321,3.196,3.1241,3.1241,3.1888,3.2177,3.0432,3.0633,3.1241,3.1241,3.0558,3.0419,3.2249,3.2664,3.2678,3.2749,3.2749,3.3031,3.3945,3.331,3.3394,3.5213,3.4691,3.4394,3.5359,3.5504,3.5504,3.5504,3.5504,3.5504,3.5504,3.5504,3.5504,3.5504,3.5504,3.5504,3.5504,3.5504,3.5504,3.5504,3.5569,3.5554,3.5619,3.5619,3.5619,3.5619,3.5619,3.5619,0.0,0.0,0.0,1.9471,2.0485,2.1466,2.2528,2.3536,2.4349,2.4751,2.5409,2.6065,2.6541,2.8135,2.9465,2.9736,2.9508,2.9198,2.8893,2.8174,2.749,2.7016,2.6983,2.6904,2.6687,2.6402,0.0,0.0,0.0,2.5258,2.5258,2.5499,2.5615,2.5615,2.4793,2.4167,2.3721,2.3721,2.3837,2.3983,2.4581,2.4836,2.4804,2.4718,2.5003,2.5579,2.5524,2.6671,2.8553,2.9315,2.9896,3.0301,3.0485,3.077,3.1258,3.1548,3.1328,3.0921,3.1462,3.1669,3.1609,3.0983,3.0983,3.118,3.0921,3.057,3.0279,3.0279,3.057,3.0633,3.0011,3.0075,3.0279,3.0279,3.0075,3.0011,3.0633,3.1756,3.2593,3.2593,3.2593,3.2749,3.3031,3.282,3.282,3.3547,3.331,3.3241,3.3616,3.3616,3.3616,3.3616,3.3616,3.3891,3.4476,3.4543,3.4839,3.5439,3.5504,3.5504,3.5504,3.5504,3.5504,3.5504,3.5504,3.5504,3.5504,3.5504,3.5504,3.5504,3.5504,3.5504,1.596,0.0,0.0,0.0,1.9257,2.0221,2.0763,2.1788,2.2681,2.2804,2.3385,2.3991,2.451,2.5954,2.7364,2.8294,2.796,2.7562,2.7562,2.6823,2.6158,2.5703,2.5687,2.5607,2.5403,2.5071,0.0,0.0,0.0,0.0,2.3954,2.4153,2.4279,2.4279,2.3468,2.2732,2.2051,2.2234,2.2487,2.2692,2.3241,2.3581,2.3769,2.369,2.391,2.4395,2.4139,2.5265,2.7413,2.8193,2.8758,2.9134,2.9254,2.9483,2.9718,3.0264,3.0048,2.9592,3.0417,3.0771,3.062,2.9998,3.0203,3.062,3.0011,2.9792,2.9792,2.9792,2.9792,2.9792,2.9792,2.9792,2.9792,2.9792,2.9792,2.9792,2.9792,3.0784,3.1696,3.1696,3.1696,3.1756,3.2105,3.1901,3.1901,3.2536,3.2321,3.2249,3.2522,3.2593,3.2593,3.2593,3.2593,3.289,3.3449,3.3518,3.3822,3.4476,3.4558,3.4706,3.4986,3.4986,3.5133,3.5504,3.5504,3.5504,3.5504,3.5504,3.5504,3.5504,3.5504,3.5504,0.0,0.0,0.0,0.0,1.8066,1.8991,1.9441,2.0523,2.153,2.1931,2.2593,2.3125,2.3125,2.3141,2.4056,2.6784,2.6615,2.6198,2.6214,2.619,2.5735,2.4508,2.4389,2.4142,2.3638,2.3551,0.0,0.0,2.3009,2.2649,2.2649,2.2053,2.1697,2.1649,2.1649,2.139,2.0795,2.1342,2.1332,2.0693,2.1316,2.1779,2.2259,2.2297,2.2611,2.3078,2.3715,2.4582,2.5573,2.5586,2.6251,2.7256,2.7268,2.7607,2.8147,2.8699,2.8913,2.9001,2.9566,2.9779,2.9792,2.9792,2.9792,2.9792,2.9792,2.9792,2.9792,2.9792,2.9792,2.9792,2.9792,2.9792,2.9792,2.9792,2.9792,2.9792,2.9792,2.9792,2.9792,2.9792,2.9792,3.0075,3.097,3.0419,3.0432,3.2249,3.1742,3.1462,3.2393,3.2536,3.2536,3.2536,3.2536,3.2522,3.2522,3.2522,3.2593,3.2593,3.2593,3.3031,3.3945,3.3959,3.4394,3.5424,3.5424,3.5439,3.5439,3.5504,3.5504,3.5504,3.5504,3.5504,1.4733,0.0,0.0,0.0,0.0,0.0,1.8391,1.9084,1.9627,1.9745,2.0645,2.1384,2.1384,2.1782,2.2362,2.3136,2.3375,2.3638,2.4139,2.3931,2.3743,2.3806,2.3837,2.358,2.3009,0.0,0.0,0.0,2.2086,2.1993,2.1993,2.1805,2.152,2.1077,2.1077,2.0733,2.0093,2.0232,2.0207,2.0049,2.0663,2.1031,2.1154,2.1945,2.2397,2.2573,2.3138,2.359,2.4008,2.5145,2.6025,2.6798,2.713,2.7369,2.7582,2.8134,2.8586,2.895,2.9114,2.944,2.9792,2.9792,2.9792,2.9792,2.9792,2.9792,2.9792,2.9792,2.9792,2.9792,2.9792,2.9792,2.9792,2.9792,2.9792,2.9792,2.9792,2.9792,2.9792,2.9792,2.9792,2.9856,3.0139,3.0011,3.0011,3.0495,3.0355,3.0279,3.057,3.057,3.057,3.057,3.057,3.0846,3.1536,3.1609,3.1888,3.2522,3.2593,3.2749,3.2961,3.2961,3.3101,3.3394,3.3394,3.3754,3.4394,3.5133,3.5504,3.5504,3.5504,3.5504,0.0,0.0,0.0,0.0,0.0,0.0,1.7313,1.7999,1.8574,1.8574,1.9118,1.9662,1.9921,2.0268,2.0519,2.0519,2.0744,2.1364,2.2546,2.2259,2.2079,2.2433,2.2292,2.2091,2.1948,2.1931,2.1893,2.173,2.1472,2.1197,2.0939,2.089,2.0769,2.0396,2.0396,2.0207,1.9798,1.9475,1.9359,1.9319,1.9371,1.954,1.978,2.061,2.1115,2.1356,2.1824,2.2202,2.2573,2.349,2.4682,2.584,2.5767,2.5972,2.6343,2.6481,2.6954,2.7631,2.7852,2.8548,2.9428,2.9428,2.9591,2.9792,2.9792,2.9792,2.9792,2.9792,2.9792,2.9792,2.9792,2.9792,2.9792,2.9792,2.9792,2.9792,2.9792,2.9792,2.9792,2.9792,2.9792,2.9792,2.9792,2.9792,2.9792,2.9792,2.9792,2.9792,2.9792,2.9792,2.9792,2.9792,2.9792,2.9998,3.0558,3.0633,3.0833,3.1415,3.1415,3.1623,3.2033,3.2033,3.2177,3.2593,3.2593,3.289,3.3449,3.4394,3.5067,3.5504,3.5504,3.5504,0.0,0.0,0.0,0.0,1.5478,0.0,1.6219,1.7092,1.7868,1.7814,1.788,1.8039,1.8507,1.8674,1.8727,1.8727,1.8765,1.944,2.1183,2.1009,2.0736,2.0808,2.0387,2.0251,2.0643,2.0698,2.0859,2.1274,2.0895,2.0281,1.9579,1.9631,1.9643,1.9579,1.9579,1.9579,1.9579,1.8927,1.8555,1.8555,1.7895,1.7868,1.8442,1.8865,1.9347,1.9857,2.0355,2.0871,2.1252,2.1252,2.2617,2.4614,2.3788,2.3956,2.4684,2.4368,2.4797,2.5739,2.6351,2.7417,2.8524,2.8599,2.9024,2.9449,2.9512,2.9537,2.9537,2.9599,2.9702,2.9792,2.9792,2.9792,2.9792,2.9792,2.9792,2.9792,2.9792,2.9792,2.9792,2.9792,2.9792,2.9792,2.9792,2.9792,2.9792,2.9792,2.9792,2.9792,2.9792,2.9792,2.9792,2.9792,2.9792,2.9792,2.9792,2.9792,2.9792,2.9792,2.9792,3.0139,3.1044,3.1044,3.1462,3.2249,3.2393,3.2464,3.2464,3.338,3.4394,3.5359,3.5359,3.5359,0.0,0.0,0.0,0.0,0.0,0.0,1.5097,1.5804,1.6398,1.6058,1.6333,1.6687,1.6811,1.718,1.7545,1.7545,1.7946,1.8553,1.9457,1.9515,1.967,2.0189,2.0173,1.994,1.9503,1.9471,1.9311,1.8909,1.9152,1.898,1.8101,1.8608,1.8661,1.8058,1.8015,1.8015,1.8015,1.7907,1.7786,1.7797,1.7688,1.7678,1.7812,1.8708,1.9168,1.9302,2.0198,2.0479,2.0175,2.0175,2.1177,2.273,2.2928,2.3157,2.3367,2.3554,2.4055,2.4716,2.5639,2.5953,2.6016,2.6832,2.7143,2.7312,2.7835,2.7878,2.7885,2.8306,2.9106,2.9792,2.9792,2.9792,2.9792,2.9792,2.9792,2.9792,2.9792,2.9792,2.9792,2.9792,2.9792,2.9792,2.9792,2.9792,2.9792,2.9792,2.9792,2.9792,2.9792,2.9792,2.9792,2.9792,2.9792,2.9792,2.9792,2.9792,2.9792,2.9792,2.9792,2.9856,3.0075,3.0075,3.0139,3.0355,3.1119,3.1462,3.1462,3.2393,3.338,3.4312,3.4312,3.4758,0.0,0.0,0.0,1.3987,0.0,0.0,0.0,1.4987,1.536,1.5152,1.5295,1.558,1.5862,1.6163,1.6358,1.6358,1.686,1.7186,1.6946,1.7652,1.8343,1.8655,1.8497,1.8315,1.8261,1.7931,1.7616,1.7327,1.7541,1.7608,1.7306,1.7649,1.7752,1.7622,1.7578,1.7578,1.7578,1.7257,1.7034,1.7034,1.6698,1.6518,1.6549,1.7252,1.7693,1.7966,1.8659,1.8961,1.8978,1.8978,1.9384,2.0213,2.1071,2.172,2.2136,2.2094,2.2488,2.321,2.3713,2.4273,2.4864,2.5298,2.5634,2.5977,2.6244,2.641,2.6732,2.7553,2.8391,2.9045,2.9262,2.9578,2.9716,2.9428,2.9578,2.9792,2.9792,2.9792,2.9792,2.9792,2.9792,2.9792,2.9792,2.9792,2.9792,2.9792,2.9792,2.9792,2.9792,2.9792,2.9792,2.9792,2.9792,2.9792,2.9792,2.9792,2.9792,2.9792,2.9792,2.9792,2.9792,2.9792,2.9792,2.9792,3.0279,3.0482,3.0482,3.0983,3.1901,3.331,3.331,3.3533,0.0,0.0,0.0,0.0,0.0,1.39,0.0,0.0,0.0,1.4362,0.0,0.0,0.0,0.0,0.0,0.0,0.0,0.0,0.0,1.5855,0.0,1.6786,1.6612,1.661,1.6848,1.638,1.6067,1.6009,1.6153,1.6317,1.6433,1.6649,1.6882,1.7038,1.7136,1.7191,1.7191,1.6595,1.6322,1.6265,1.569,1.541,1.543,1.5859,1.626,1.6631,1.7158,1.7578,1.7891,1.7891,1.7939,1.8115,1.9228,2.0176,2.0793,2.045,2.0827,2.1487,2.1795,2.2596,2.3534,2.3774,2.4303,2.4715,2.4715,2.5206,2.5848,2.6662,2.7226,2.787,2.8528,2.9108,2.9422,2.9126,2.9453,2.9792,2.9792,2.9792,2.9792,2.9792,2.9792,2.9792,2.9792,2.9792,2.9792,2.9792,2.9792,2.9792,2.9792,2.9792,2.9792,2.9792,2.9792,2.9792,2.9792,2.9792,2.9792,2.9792,2.9792,2.9792,2.9792,2.9892,2.9942,2.9942,2.9942,2.9942,2.9942,2.9942,3.0737,3.2321,3.2321,3.2448,0.0,0.0,0.0,0.0,1.3518,0.0,0.0,0.0,1.3521,1.3193,0.0,0.0,0.0,0.0,0.0,0.0,0.0,0.0,1.4258,1.4653,1.5005,1.5005,1.5876,1.6088,0.0,1.4925,1.4838,1.4641,1.5224,1.5246,1.449,1.5454,1.5758,1.5123,1.5434,1.5633,1.5633,1.5584,1.5526,1.5526,1.5468,1.541,1.543,1.5859,1.6154,1.6182,1.7021,1.7412,1.7451,1.7451,1.7676,1.8057,1.8584,1.885,1.897,1.934,1.9507,1.9766,2.101,2.1038,2.0627,2.1834,2.2656,2.3126,2.3048,2.4071,2.5184,2.4735,2.5282,2.6382,2.7814,2.8219,2.8493,2.9459,2.9741,2.9792,2.9792,2.9792,2.9792,2.9792,2.9792,2.9792,2.9792,2.9792,2.9792,2.9792,2.9792,2.9792,2.9792,2.9792,2.9792,2.9792,2.9792,2.9792,2.9792,2.9792,2.9792,2.9792,2.9792,2.9792,2.9792,3.0269,3.052,3.052,3.052,3.052,3.052,3.052,3.0765,3.1389,3.1389,3.2098,0.0,0.0,0.0,0.0,0.0,0.0,1.3271,0.0,1.3096,0.0,0.0,0.0,0.0,0.0,0.0,0.0,1.3314,0.0,0.0,0.0,1.3674,0.0,0.0,0.0,0.0,0.0,0.0,0.0,1.341,1.3452,1.374,1.424,1.457,1.4766,1.4951,1.5166,1.541,1.541,1.541,1.541,1.541,1.541,1.542,1.5596,1.582,1.6145,1.6517,1.6768,1.7021,1.7275,1.749,1.7686,1.8105,1.8418,1.8691,1.9131,1.9443,1.9742,2.0356,2.0446,2.0389,2.1018,2.1363,2.1514,2.1514,2.2142,2.2991,2.3591,2.4303,2.5131,2.6371,2.6887,2.7209,2.732,2.8131,2.8767,2.8767,2.8767,2.8767,2.8767,2.8767,2.8767,2.8767,2.9365,2.9792,2.9792,2.9792,2.9792,2.9792,2.9792,2.9792,2.9792,2.9792,2.9792,2.9792,2.9792,2.9792,2.9792,3.0093,3.0269,3.0269,3.0783,3.106,3.106,3.106,3.0922,3.062,3.0922,3.101,3.0842,3.115,3.1474,1.3657,0.0,0.0,0.0,0.0,0.0,0.0,0.0,0.0,0.0,0.0,0.0,0.0,0.0,0.0,0.0,0.0,1.2046,0.0,1.1835,0.0,0.0,0.0,0.0,0.0,0.0,0.0,1.2559,1.208,1.2258,1.326,1.3447,1.3789,1.4414,1.4436,1.4639,1.4878,1.4817,1.4746,1.4746,1.4746,1.4874,1.505,1.4815,1.5034,1.5578,1.544,1.5604,1.586,1.6224,1.6421,1.6553,1.6844,1.7347,1.7973,1.8699,1.9199,1.958,1.9697,2.0107,2.0566,2.0566,2.0566,2.0566,2.0566,2.0791,2.1292,2.2492,2.3082,2.3637,2.493,2.5502,2.5886,2.5817,2.6771,2.7763,2.8016,2.7844,2.7763,2.8004,2.8096,2.8096,2.8096,2.9028,2.9792,2.9792,2.9792,2.9792,2.9792,2.9792,2.9792,2.9792,2.9792,2.9792,2.9792,2.9792,2.9854,3.0005,3.0394,3.0746,3.1047,3.1411,3.1612,3.1612,3.1612,3.1436,3.106,3.1436,3.1424,3.106,3.1286,3.1273,0.0,0.0,0.0,1.2927,0.0,0.0,0.0,0.0,1.1242,0.0,0.0,0.0,0.0,0.0,0.0,1.0359,0.0,0.0,0.0,0.0,0.0,0.0,0.0,0.0,0.0,1.124,1.1116,1.1765,1.1814,1.2138,1.29,1.3281,1.3516,1.3545,1.3617,1.3636,1.3654,1.3254,1.307,1.307,1.307,1.3485,1.4204,1.3425,1.3494,1.4249,1.3817,1.3672,1.368,1.3697,1.3978,1.437,1.4247,1.5005,1.6321,1.76,1.832,1.874,1.916,1.9863,2.0566,2.0566,2.0566,2.0566,2.0566,2.0576,2.0684,2.1123,2.126,2.1779,2.3731,2.4291,2.4655,2.6091,2.6543,2.6801,2.7855,2.7279,2.6883,2.7924,2.8096,2.8096,2.8096,2.9028,2.9792,2.9792,2.9792,2.9792,2.9792,2.9792,2.9792,2.9792,2.9792,2.9792,2.9792,2.9792,3.0018,3.0557,3.0608,3.1085,3.2127,3.2177,3.219,3.219,3.219,3.2177,3.2164,3.2177,3.2177,3.2152,3.1625,3.1675,0.0,0.0,1.3951,1.4007,0.0,0.0,0.0,0.0,0.0,0.0,0.0,0.0,0.0,0.0,1.078,1.0606,1.0335,0.0,0.0,0.0,0.0,0.0,0.0,0.0,0.0,0.0,0.0,1.1765,1.1366,1.1633,1.2832,1.2127,1.2055,1.2809,1.2615,1.2606,1.2937,1.3007,1.3009,1.3009,1.3009,1.313,1.3425,1.313,1.313,1.3373,1.3255,1.3182,1.3207,1.3501,1.3675,1.3897,1.4313,1.4774,1.5342,1.6569,1.7688,1.874,1.9453,2.0078,2.0566,2.0566,2.0566,2.0566,2.0566,2.0566,2.0654,2.1103,2.123,2.1438,2.2419,2.2862,2.3197,2.375,2.4672,2.5452,2.5859,2.5619,2.5462,2.5859,2.5942,2.6202,2.6871,2.7947,2.8937,2.9702,2.9792,2.9792,2.9792,2.9792,2.9792,2.9792,2.9792,2.9792,2.9792,2.9792,3.003,3.0583,3.0934,3.1449,3.2177,3.2579,3.278,3.278,3.278,3.2591,3.2215,3.2604,3.2591,3.2227,3.2416,3.2403,1.4893,1.4502,0.0,1.417,1.3442,0.0,1.2048,0.0,0.0,0.0,0.0,0.0,0.0,0.0,0.0,1.0115,0.9718,0.9354,0.0,0.8679,0.0,0.0,0.0,0.0,0.0,1.0218,1.0466,1.1366,1.0813,1.0922,0.0,0.0,1.1133,1.1851,1.1647,1.1623,1.1928,1.2048,1.2151,1.2151,1.2151,1.2274,1.2573,1.2274,1.2274,1.2573,1.2274,1.2151,1.2174,1.2445,1.253,1.26,1.3274,1.375,1.4223,1.5601,1.6969,1.8252,1.9461,2.0098,2.0361,2.0518,2.0566,2.0566,2.0566,2.0566,2.0625,2.0918,2.0996,2.1103,2.1543,2.1973,2.2324,2.248,2.3403,2.4296,2.4702,2.4457,2.4296,2.4702,2.4787,2.5041,2.5797,2.7116,2.8518,2.9624,2.9792,2.9792,2.9792,2.9792,2.9792,2.9792,2.9792,2.9792,2.9792,2.9792,3.0105,3.0846,3.1198,3.1738,3.2491,3.288,3.3169,3.337,3.3181,3.298,3.2817,3.2993,3.288,3.2528,3.2905,3.288]},{"header":{"parameterUnit":"m.s-1","parameterCategory":1,"la1":30.6,"la2":29.2853,"lo1":-89.7004,"lo2":-87.6739,"dy":0.0162,"dx":0.0183,"nx":112,"ny":82,"refTime":"2024-04-03T18:00:00:Z","depth":0,"parameterNumber":3,"parameterNumberName":"V-component_of_WINDS"},"data":[0.0,0.0,0.0,0.0,0.0,0.0,0.0,0.0,0.0,0.0,0.0,0.0,0.0,0.0,0.0,0.0,0.0,0.0,0.0,0.0,0.0,0.0,0.0,0.0,0.0,0.0,0.0,0.0,0.0,0.0,0.0,0.0,0.0,0.0,0.0,0.0,0.0,0.0,0.0,0.0,0.0,0.0,0.0,0.0,0.0,0.0,0.0,0.0,0.0,0.0,0.0,0.0,0.0,0.0,0.0,0.0,0.0,0.0,0.0,0.0,0.0,0.0,0.0,0.0,0.0,0.0,0.0,0.0,0.0,0.0,0.0,0.0,0.0,0.0,0.0,0.0,0.0,0.0,0.0,0.0,0.0,0.0,0.0,0.0,0.0,0.0,0.0,0.0,0.0,0.0,0.4158,0.4528,0.5126,0.5442,0.5526,0.6599,0.6757,0.5427,0.0,0.0,0.0,0.0,0.0,0.0,0.0,0.0,0.0,0.0,0.0,0.0,0.0,0.0,0.0,0.0,0.0,0.0,0.0,0.0,0.0,0.0,0.0,0.0,0.0,0.0,0.0,0.0,0.0,0.0,0.0,0.0,0.0,0.0,0.0,0.0,0.0,0.0,0.0,0.0,0.0,0.0,0.0,0.0,0.0,0.0,0.0,0.0,0.0,0.0,0.0,0.0,0.0,0.0,0.0,0.0,0.0,0.0,0.0,0.0,0.0,0.0,0.0,0.0,0.0,0.0,0.0,0.0,0.0,0.0,0.0,0.0,0.0,0.0,0.0,0.0,0.0,0.0,0.0,0.0,0.0,0.0,0.0,0.0,0.0,0.0,0.0,0.0,0.0,0.0,0.0,0.0,0.0,0.0,0.0,0.0,0.0,0.0,0.0,0.0,0.0,0.0,0.0,0.0,0.428,0.4955,0.5345,0.5713,0.6069,0.627,0.6456,0.652,0.0,0.0,0.0,0.0,0.0,0.0,0.0,0.0,0.0,0.0,0.0,0.0,0.0,0.0,0.0,0.0,0.0,0.0,0.0,0.0,0.0,0.0,0.0,0.0,0.0,0.0,0.0,0.0,0.0,0.0,0.0,0.0,0.0,0.0,0.0,0.0,0.0,0.0,0.0,0.0,0.0,0.0,0.0,0.0,0.0,0.0,0.0,0.0,0.0,0.0,0.0,0.0,0.0,0.0,0.0,0.0,0.0,0.0,0.0,0.0,0.0,0.0,0.0,0.0,0.0,0.0,0.0,0.0,0.0,0.0,0.0,0.0,0.0,0.0,0.0,0.0,0.0,0.0,0.0,0.0,0.0,0.0,0.0,0.0,0.0,0.0,0.0,0.0,0.0,0.0,0.0,0.0,0.0,0.0,0.0,0.0,0.0,0.0,0.0,0.0,0.0,0.0,0.0,0.4009,0.4311,0.4955,0.5142,0.5328,0.5572,0.5831,0.6023,0.6095,0.7001,0.0,0.0,0.0,0.0,0.0,0.0,0.0,0.0,0.0,0.0,0.0,0.0,0.0,0.0,0.0,0.0,0.0,0.0,0.0,0.0,0.0,0.0,0.0,0.0,0.0,0.0,0.0,0.0,0.0,0.0,0.0,0.0,0.0,0.0,0.0,0.0,0.0,0.0,0.0,0.0,0.0,0.0,0.0,0.0,0.0,0.0,0.0,0.0,0.0,0.0,0.0,0.0,0.0,0.0,0.0,0.0,0.0,0.0,0.0,0.0,0.0,0.0,0.0,0.0,0.0,0.0,0.0,0.0,0.0,0.0,0.0,0.0,0.0,0.0,0.0,0.0,0.0,0.0,0.0,0.0,0.0,0.0,0.0,0.0,0.0,0.0,0.0,0.0,0.0,0.0,0.0,0.0,0.0,0.0,0.0,0.0,0.0,0.0,0.0,0.0,0.0,0.0,0.4204,0.4443,0.4823,0.4897,0.4948,0.502,0.5522,0.5784,0.5653,0.6373,0.0,0.0,0.0,0.0,0.0,0.0,0.0,0.0,0.0,0.0,0.0,0.0,0.0,0.0,0.0,0.0,0.0,0.0,0.0,0.0,0.0,0.0,0.0,0.0,0.0,0.0,0.0,0.0,0.0,0.0,0.0,0.0,0.0,0.0,0.0,0.0,0.0,0.0,0.0,0.0,0.0,0.0,0.0,0.0,0.0,0.0,0.0,0.0,0.0,0.0,0.0,0.0,0.0,0.0,0.0,0.0,0.0,0.0,0.0,0.0,0.0,0.0,0.0,0.0,0.0,0.0,0.0,0.0,0.0,0.0,0.0,0.0,0.0,0.0,0.0,0.0,0.0,0.0,0.0,0.0,0.0,0.0,0.0,0.0,0.0,0.0,0.0,0.0,0.0,0.0,0.0,0.0,0.0,0.0,0.0,0.0,0.0,0.0,0.0,0.0,0.0,0.0,0.4277,0.4514,0.4687,0.4833,0.4863,0.4731,0.5389,0.5896,0.6132,0.6536,0.0,0.0,0.0,0.0,0.0,0.0,0.0,0.0,0.0,0.0,0.0,0.0,0.0,0.0,0.0,0.0,0.0,0.0,0.0,0.0,0.0,0.0,0.0,0.0,0.0,0.0,0.0,0.0,0.0,0.0,0.0,0.0,0.0,0.0,0.0,0.0,0.0,0.0,0.0,0.0,0.0,0.0,0.0,0.0,0.0,0.0,0.0,0.0,0.0,0.0,0.0,0.0,0.0,0.0,0.0,0.0,0.0,0.0,0.0,0.0,0.0,0.0,0.0,0.0,0.0,0.0,0.0,0.0,0.0,0.0,0.0,0.0,0.0,0.0,0.0,0.0,0.0,0.0,0.0,0.0,0.0,0.0,0.0,0.0,0.0,0.0,0.0,0.0,0.0,0.0,0.0,0.0,0.0,0.0,0.0,0.0,0.0,0.0,0.0,0.0,0.0,0.0,0.426,0.4423,0.0,0.4657,0.465,0.4687,0.4883,0.5432,0.6415,0.0,0.0,0.0,0.0,0.0,0.0,0.0,0.0,0.0,0.0,0.0,0.0,0.0,0.0,0.0,0.0,0.0,0.0,0.0,0.0,0.0,0.0,0.0,0.0,0.0,0.0,0.0,0.0,0.0,0.0,0.0,0.0,0.0,0.0,0.0,0.0,0.0,0.0,0.0,0.0,0.0,0.0,0.0,0.0,0.0,0.0,0.0,0.0,0.0,0.0,0.0,0.0,0.0,0.0,0.0,0.0,0.0,0.0,0.0,0.0,0.0,0.0,0.0,0.0,0.0,0.0,0.0,0.0,0.0,0.0,0.0,0.0,0.0,0.0,0.0,0.0,0.0,0.0,0.0,0.0,0.0,0.0,0.0,0.0,0.0,0.0,0.0,0.0,0.0,0.0,0.0,0.0,0.0,0.0,0.0,0.0,0.0,0.0,0.0,0.0,0.0,0.0,0.4187,0.4234,0.4392,0.0,0.458,0.456,0.4609,0.4741,0.5332,0.6534,0.0,0.0,0.0,0.0,0.0,0.0,0.0,0.0,0.0,0.0,0.0,0.0,0.0,0.0,0.0,0.0,0.0,0.0,0.0,0.0,0.0,0.0,0.0,0.0,0.0,0.0,0.0,0.0,0.0,0.0,0.0,0.0,0.0,0.0,0.0,0.0,0.0,0.0,0.0,0.0,0.0,0.0,0.0,0.0,0.0,0.0,0.0,0.0,0.0,0.0,0.0,0.0,0.0,0.0,0.0,0.0,0.0,0.0,0.0,0.0,0.0,0.0,0.0,0.0,0.0,0.0,0.0,0.0,0.0,0.0,0.0,0.0,0.0,0.0,0.0,0.0,0.0,0.0,0.0,0.0,0.0,0.0,0.0,0.0,0.0,0.0,0.0,0.0,0.0,0.0,0.0,0.0,0.0,0.0,0.0,0.0,0.0,0.0,0.0,0.0,0.0,0.0,0.4217,0.4375,0.4519,0.4519,0.4519,0.4519,0.4519,0.5109,0.5819,0.0,0.0,0.0,0.0,0.0,0.0,0.0,0.0,0.0,0.0,0.0,0.0,0.0,0.0,0.0,0.0,0.0,0.0,0.0,0.0,0.0,0.0,0.0,0.0,0.0,0.0,0.0,0.0,0.0,0.0,0.0,0.0,0.0,0.0,0.0,0.0,0.0,0.0,0.0,0.0,0.0,0.0,0.0,0.0,0.0,0.0,0.0,0.0,0.0,0.0,0.0,0.0,0.0,0.0,0.0,0.0,0.0,0.0,0.0,0.0,0.0,0.0,0.0,0.0,0.0,0.0,0.0,0.0,0.0,0.0,0.0,0.0,0.0,0.0,0.0,0.0,0.0,0.0,0.0,0.0,0.0,0.0,0.0,0.0,0.0,0.0,0.0,0.0,0.0,0.0,0.0,0.0,0.0,0.0,0.0,0.0,0.0,0.0,0.0,0.0,0.0,0.0,0.0,0.4406,0.4491,0.4519,0.4519,0.4519,0.4519,0.4519,0.468,0.5113,0.576,0.0,0.0,0.0,0.0,0.0,0.0,0.0,0.0,0.0,0.0,0.0,0.0,0.0,0.0,0.0,0.0,0.0,0.0,0.0,0.0,0.0,0.0,0.0,0.0,0.0,0.0,0.0,0.0,0.0,0.0,0.0,0.0,0.0,0.0,0.0,0.0,0.0,0.0,0.0,0.0,0.0,0.0,0.0,0.0,0.0,0.0,0.0,0.0,0.0,0.0,0.0,0.0,0.0,0.0,0.0,0.0,0.0,0.0,0.0,0.0,0.0,0.0,0.0,0.0,0.0,0.0,0.0,0.0,0.0,0.0,0.0,0.0,0.0,0.0,0.0,0.0,0.0,0.0,0.0,0.0,0.0,0.0,0.0,0.0,0.0,0.0,0.0,0.0,0.0,0.0,0.0,0.0,0.0,0.0,0.0,0.0,0.0,0.0,0.0,0.0,0.0,0.0,0.4519,0.4519,0.4519,0.4519,0.4519,0.4519,0.4519,0.4519,0.4787,0.5433,0.0,0.0,0.0,0.0,0.0,0.0,0.0,0.0,0.0,0.0,0.0,0.0,0.0,0.0,0.0,0.0,0.0,0.0,0.0,0.0,0.0,0.0,0.0,0.0,0.0,0.0,0.0,0.0,0.0,0.0,0.0,0.0,0.0,0.0,0.0,0.0,0.0,0.0,0.0,0.0,0.0,0.0,0.0,0.0,0.0,0.0,0.0,0.0,0.0,0.0,0.0,0.0,0.0,0.0,0.0,0.0,0.0,0.0,0.0,0.0,0.0,0.0,0.0,0.0,0.0,0.0,0.0,0.0,0.0,0.0,0.0,0.0,0.0,0.0,0.0,0.0,0.0,0.0,0.0,0.0,0.0,0.0,0.0,0.0,0.0,0.0,0.0,0.0,0.0,0.0,0.0,0.0,0.0,0.0,0.0,0.0,0.0,0.0,0.0,0.0,0.0,0.0,0.4519,0.4519,0.4519,0.4519,0.4519,0.4519,0.4519,0.4519,0.4787,0.5378,0.0,0.0,0.0,0.0,0.0,0.0,0.0,0.0,0.0,0.0,0.0,0.0,0.0,0.0,0.0,0.0,0.0,0.0,0.0,0.0,0.0,0.0,0.0,0.0,0.0,0.0,0.0,0.0,0.0,0.0,0.0,0.0,0.0,0.0,0.0,0.0,0.0,0.0,0.0,0.0,0.0,0.0,0.0,0.0,0.0,0.0,0.0,0.0,0.0,0.0,0.0,0.0,0.0,0.0,0.0,0.0,0.0,0.0,0.0,0.0,0.4568,0.0,0.0,0.0,0.0,0.0,0.0,0.0,0.0,0.0,0.0,0.0,0.0,0.0,0.0,0.0,0.0,0.0,0.0,0.0,0.0,0.0,0.0,0.0,0.0,0.0,0.0,0.0,0.0,0.0,0.0,0.0,0.0,0.0,0.0,0.0,0.0,0.0,0.0,0.0,0.0,0.0,0.4519,0.4519,0.4519,0.4519,0.4519,0.4519,0.4519,0.4519,0.457,0.468,0.4736,0.0,0.0,0.0,0.0,0.0,0.0,0.0,0.0,0.0,0.0,0.0,0.0,0.0,0.0,0.0,0.0,0.0,0.0,0.0,0.0,0.0,0.0,0.0,0.0,0.0,0.0,0.0,0.0,0.0,0.0,0.0,0.0,0.0,0.0,0.0,0.0,0.0,0.0,0.0,0.0,0.0,0.0,0.0,0.0,0.0,0.0,0.0,0.0,0.0,0.0,0.0,0.0,0.0,0.0,0.0,0.0,0.0,0.0,0.0,0.0,0.4613,0.0,0.0,0.0,0.0,0.0,0.0,0.0,0.0,0.0,0.0,0.0,0.0,0.0,0.0,0.0,0.0,0.0,0.0,0.0,0.0,0.0,0.0,0.0,0.0,0.0,0.0,0.0,0.0,0.0,0.0,0.0,0.0,0.0,0.0,0.0,0.0,0.0,0.0,0.0,0.0,0.4519,0.4519,0.4519,0.4519,0.4519,0.4519,0.4519,0.4519,0.4519,0.4519,0.4519,0.0,0.0,0.0,0.0,0.0,0.0,0.0,0.0,0.0,0.0,0.0,0.0,0.0,0.0,0.0,0.0,0.0,0.0,0.0,0.0,0.0,0.0,0.0,0.0,0.0,0.0,0.0,0.0,0.0,0.0,0.0,0.0,0.0,0.0,0.0,0.0,0.0,0.0,0.0,0.0,0.0,0.0,0.0,0.0,0.0,0.0,0.0,0.0,0.0,0.0,0.0,0.0,0.0,0.4925,0.4996,0.4996,0.4996,0.4996,0.4989,0.4833,0.4823,0.4918,0.4918,0.0,0.0,0.0,0.0,0.0,0.0,0.0,0.0,0.0,0.0,0.0,0.0,0.0,0.0,0.0,0.0,0.0,0.0,0.0,0.0,0.0,0.0,0.0,0.0,0.456,0.456,0.0,0.0,0.0,0.0,0.0,0.0,0.0,0.0,0.0,0.0,0.0,0.0,0.4519,0.4519,0.4519,0.4519,0.4519,0.4519,0.4519,0.4519,0.4519,0.4519,0.4519,0.4519,0.0,0.0,0.0,0.0,0.0,0.0,0.0,0.0,0.0,0.0,0.0,0.0,0.0,0.0,0.0,0.0,0.0,0.0,0.0,0.0,0.0,0.0,0.0,0.0,0.0,0.0,0.0,0.0,0.0,0.0,0.0,0.0,0.5492,0.4732,0.0,0.0,0.0,0.0,0.0,0.0,0.0,0.0,0.0,0.0,0.0,0.0,0.0,0.466,0.466,0.4813,0.4952,0.5074,0.523,0.5304,0.5304,0.5304,0.5304,0.5294,0.5138,0.0,0.4918,0.4918,0.0,0.0,0.0,0.0,0.0,0.0,0.0,0.0,0.0,0.0,0.0,0.0,0.0,0.0,0.0,0.0,0.0,0.0,0.0,0.0,0.0,0.0,0.4663,0.466,0.466,0.466,0.0,0.4555,0.4519,0.4519,0.4519,0.0,0.0,0.0,0.0,0.0,0.0,0.0,0.4519,0.4519,0.4519,0.4519,0.4519,0.4519,0.4519,0.4519,0.4519,0.4519,0.4519,0.4519,0.4519,0.4519,0.0,0.0,0.0,0.0,0.0,0.0,0.0,0.0,0.0,0.0,0.0,0.0,0.0,0.0,0.0,0.0,0.0,0.0,0.0,0.0,0.0,0.0,0.0,0.0,0.0,0.0,0.0,0.0,0.0,0.5382,0.4842,0.4519,0.4519,0.4519,0.0,0.0,0.0,0.0,0.0,0.0,0.0,0.0,0.0,0.4718,0.4782,0.4857,0.4938,0.5091,0.5243,0.5389,0.5538,0.561,0.561,0.561,0.561,0.5603,0.5535,0.5474,0.5403,0.5237,0.5169,0.5159,0.0,0.0,0.0,0.0,0.4969,0.5026,0.4948,0.4972,0.0,0.4945,0.0,0.0,0.0,0.0,0.0,0.0,0.0,0.0,0.0,0.0,0.4777,0.4653,0.459,0.4653,0.4777,0.4841,0.482,0.0,0.4589,0.4565,0.4532,0.0,0.0,0.0,0.0,0.4519,0.4519,0.4519,0.4519,0.4519,0.4519,0.4519,0.4519,0.4519,0.4519,0.4519,0.4519,0.4519,0.4519,0.4519,0.4519,0.0,0.0,0.0,0.0,0.0,0.0,0.0,0.0,0.0,0.0,0.0,0.0,0.0,0.0,0.0,0.0,0.0,0.0,0.0,0.0,0.0,0.0,0.0,0.0,0.0,0.0,0.0,0.0,0.4823,0.4563,0.4522,0.4587,0.4565,0.0,0.0,0.0,0.0,0.0,0.0,0.4748,0.4891,0.4972,0.4972,0.505,0.5142,0.5247,0.5399,0.5532,0.5647,0.5789,0.584,0.5803,0.584,0.5837,0.58,0.58,0.58,0.5783,0.5525,0.542,0.5406,0.525,0.5189,0.5176,0.507,0.5098,0.5176,0.507,0.5101,0.5172,0.5067,0.0,0.5185,0.5185,0.0,0.0,0.0,0.0,0.5009,0.4947,0.4631,0.4312,0.4061,0.3996,0.3996,0.4185,0.4332,0.455,0.0,0.4721,0.4653,0.4594,0.0,0.0,0.0,0.0,0.4519,0.4519,0.4519,0.4519,0.4519,0.4519,0.4519,0.4519,0.4519,0.4519,0.4519,0.4519,0.4519,0.4519,0.4519,0.4519,0.4519,0.0,0.0,0.0,0.0,0.0,0.0,0.0,0.0,0.0,0.0,0.0,0.0,0.0,0.0,0.0,0.0,0.0,0.0,0.0,0.0,0.0,0.0,0.0,0.0,0.0,0.0,0.0,0.0,0.0,0.4536,0.4718,0.0,0.0,0.0,0.0,0.4897,0.4904,0.4908,0.4908,0.5043,0.5121,0.5121,0.5403,0.5559,0.5566,0.5708,0.5783,0.5793,0.5945,0.5942,0.5806,0.5952,0.5939,0.58,0.58,0.58,0.5789,0.564,0.5579,0.5562,0.541,0.5415,0.5415,0.5408,0.5411,0.5415,0.5408,0.5411,0.5415,0.5408,0.538,0.5399,0.5399,0.531,0.0,0.0,0.5053,0.529,0.4974,0.3862,0.2825,0.2823,0.2565,0.2308,0.2308,0.2618,0.3283,0.0,0.4858,0.4687,0.468,0.0,0.4519,0.4519,0.4519,0.4519,0.4519,0.4519,0.4519,0.4519,0.4519,0.4519,0.4519,0.4519,0.4519,0.4519,0.4519,0.4519,0.4519,0.4519,0.4519,0.4519,0.4519,0.0,0.0,0.0,0.0,0.0,0.0,0.0,0.0,0.0,0.0,0.0,0.0,0.0,0.0,0.0,0.0,0.0,0.0,0.0,0.0,0.0,0.0,0.0,0.0,0.0,0.0,0.0,0.0,0.4887,0.4989,0.0,0.4979,0.4942,0.4918,0.4918,0.5003,0.5098,0.5199,0.5345,0.5467,0.5559,0.5667,0.5772,0.5871,0.5922,0.6,0.6098,0.6152,0.6149,0.6098,0.6152,0.6149,0.6098,0.6098,0.6098,0.6078,0.5827,0.5674,0.5576,0.542,0.5428,0.5428,0.5428,0.5428,0.5428,0.5428,0.5428,0.5428,0.5428,0.5401,0.5432,0.5432,0.5404,0.5373,0.524,0.4472,0.3904,0.4923,0.4857,0.385,0.1523,0.0862,0.1061,0.199,0.2469,0.3203,0.4931,0.5227,0.504,0.4649,0.4511,0.4525,0.4519,0.4519,0.4519,0.4519,0.4519,0.4519,0.4519,0.4519,0.4519,0.4519,0.4519,0.4519,0.4519,0.4519,0.4519,0.4519,0.4519,0.4519,0.4519,0.4519,0.4519,0.0,0.0,0.0,0.0,0.0,0.0,0.0,0.0,0.0,0.0,0.0,0.0,0.0,0.0,0.0,0.0,0.0,0.0,0.0,0.0,0.0,0.0,0.0,0.0,0.0,0.0,0.5104,0.5199,0.5298,0.5338,0.5291,0.5243,0.5216,0.5216,0.5304,0.5399,0.5504,0.5654,0.5783,0.5874,0.5928,0.6003,0.6105,0.6108,0.6159,0.6338,0.6338,0.6338,0.6338,0.6338,0.6338,0.6338,0.6338,0.623,0.6162,0.5908,0.5722,0.5648,0.549,0.5428,0.5428,0.5428,0.5428,0.5369,0.5372,0.5372,0.5372,0.5372,0.5379,0.5312,0.4697,0.4498,0.464,0.5196,0.4509,0.3627,0.3572,0.3574,0.2965,0.0539,0.0,0.027,0.1214,0.1616,0.2146,0.3328,0.4091,0.4391,0.3964,0.4207,0.4484,0.4473,0.4473,0.4473,0.4473,0.4525,0.4522,0.4522,0.4519,0.4519,0.4522,0.4522,0.4525,0.4473,0.4473,0.4473,0.4522,0.4522,0.4522,0.4522,0.4478,0.4509,0.4492,0.0,0.0,0.0,0.0,0.0,0.0,0.0,0.0,0.0,0.0,0.0,0.0,0.0,0.0,0.0,0.0,0.0,0.0,0.0,0.0,0.0,0.0,0.0,0.4958,0.5196,0.5452,0.5463,0.5647,0.5766,0.5627,0.5735,0.5813,0.58,0.5806,0.581,0.5817,0.5952,0.6034,0.6044,0.6183,0.6338,0.6338,0.6338,0.6338,0.6338,0.6338,0.6257,0.6254,0.6257,0.6254,0.6247,0.6251,0.6166,0.6013,0.5857,0.5792,0.5662,0.5494,0.5428,0.5428,0.5428,0.5369,0.5312,0.5322,0.5326,0.5326,0.5326,0.5329,0.5052,0.3284,0.2678,0.2948,0.4724,0.5209,0.4456,0.0943,0.0,0.0,0.0,0.0,0.0,0.0,0.0,0.0,0.0,0.1385,0.2646,0.264,0.3569,0.4389,0.4445,0.4445,0.0,0.4445,0.4435,0.4428,0.448,0.4525,0.4522,0.448,0.4477,0.4428,0.4438,0.4438,0.4435,0.4432,0.4487,0.449,0.4435,0.4455,0.4473,0.4494,0.0,0.0,0.0,0.0,0.0,0.0,0.0,0.0,0.0,0.0,0.0,0.0,0.0,0.0,0.0,0.0,0.0,0.0,0.0,0.0,0.0,0.5172,0.5325,0.5396,0.5661,0.5925,0.6142,0.6237,0.6234,0.6088,0.6112,0.604,0.582,0.5905,0.6017,0.6129,0.6067,0.6129,0.6342,0.6291,0.6338,0.6338,0.6338,0.6338,0.6338,0.6338,0.6203,0.6098,0.621,0.6139,0.5935,0.6044,0.6088,0.6016,0.5792,0.5717,0.5748,0.5507,0.5379,0.5386,0.5386,0.4567,0.3418,0.3418,0.342,0.342,0.342,0.4306,0.5339,0.4788,0.2825,0.0875,0.1347,0.1482,0.128,0.027,0.0,0.0,0.0,0.0,0.0,0.0,0.0,0.0,0.0,0.039,0.0754,0.0719,0.0996,0.162,0.2663,0.2836,0.0,0.2836,0.2836,0.327,0.4389,0.449,0.4487,0.449,0.3466,0.2847,0.285,0.285,0.2824,0.2832,0.3889,0.3993,0.2875,0.2849,0.3357,0.0,0.0,0.0,0.0,0.0,0.0,0.0,0.0,0.0,0.0,0.0,0.0,0.0,0.0,0.0,0.0,0.0,0.0,0.0,0.0,0.0,0.0,0.5555,0.5837,0.6112,0.6135,0.6237,0.6532,0.6566,0.6536,0.6454,0.6444,0.6373,0.619,0.6261,0.6349,0.6441,0.6359,0.6359,0.6468,0.6454,0.6386,0.6264,0.6318,0.6318,0.6338,0.6338,0.6213,0.6129,0.6235,0.6187,0.0,0.5969,0.5911,0.5823,0.4956,0.5017,0.0,0.0,0.0,0.0,0.0,0.4715,0.3627,0.208,0.1543,0.1543,0.1543,0.2285,0.3167,0.3167,0.1683,0.0,0.0,0.0,0.0,0.0,0.0,0.0,0.0,0.0,0.0,0.0,0.0,0.0,0.0,0.0,0.0,0.0,0.0,0.03,0.1138,0.1258,0.1258,0.1258,0.1256,0.1604,0.2512,0.315,0.3798,0.4455,0.3682,0.0,0.0,0.0,0.1291,0.1255,0.3363,0.0,0.0,0.0,0.2326,0.4496,0.0,0.0,0.0,0.0821,0.0,0.0,0.0,0.0,0.0,0.0,0.0,0.0,0.0,0.0,0.0,0.0,0.0,0.0,0.0,0.0,0.0,0.6037,0.6468,0.6915,0.6637,0.6488,0.677,0.6787,0.677,0.6753,0.6749,0.6736,0.6702,0.6715,0.6725,0.6725,0.0,0.0,0.0,0.0,0.6559,0.6315,0.6403,0.6403,0.6312,0.6278,0.6338,0.6335,0.6287,0.6287,0.6213,0.5677,0.5564,0.5597,0.4029,0.414,0.5209,0.3155,0.241,0.2613,0.4177,0.4797,0.4319,0.1145,0.0,0.0,0.0,0.0,0.0,0.0,0.0,0.0,0.0,0.0,0.0,0.0,0.0,0.0,0.0,0.0,0.0,0.0,0.0,0.0,0.0,0.0,0.0,0.0,0.0,0.0,0.0,0.0,0.0,0.0,0.0,0.0,0.0,0.0,0.0,0.3902,0.3966,0.2843,0.0185,0.0,0.0,0.0,0.2552,0.4004,0.4004,0.1344,0.1299,0.3983,0.4018,0.2639,0.0,0.0,0.0,0.0,0.0,0.0,0.0,0.0,0.0,0.0,0.0,0.0,0.0,0.0,0.0,0.0,0.0,0.0,0.622,0.6478,0.6773,0.7224,0.721,0.7224,0.7404,0.7316,0.7193,0.7065,0.7054,0.6956,0.6719,0.6814,0.6885,0.6885,0.6766,0.6742,0.6837,0.663,0.6549,0.6614,0.6407,0.6407,0.6614,0.0,0.0,0.6338,0.6318,0.6118,0.5702,0.4256,0.4332,0.5463,0.5078,0.5136,0.5094,0.1819,0.0538,0.0538,0.0943,0.1078,0.0943,0.027,0.0,0.0,0.0,0.0,0.0,0.0,0.0,0.0,0.0,0.0,0.0,0.0,0.0,0.0,0.0,0.0,0.0,0.0,0.0,0.0,0.0,0.0,0.0,0.0,0.0,0.0,0.0,0.0,0.0,0.0,0.0,0.0,0.0,0.0247,0.0555,0.0864,0.0864,0.0617,0.0062,0.0,0.0,0.0,0.0589,0.0862,0.0862,0.0267,0.0267,0.087,0.0875,0.0546,0.0,0.0,0.0,0.0,0.0,0.0,0.0,0.0,0.0,0.0,0.0,0.0,0.0,0.0,0.5345,0.564,0.0,0.6268,0.6641,0.6888,0.7166,0.7539,0.759,0.7594,0.76,0.7533,0.7424,0.7272,0.7255,0.7163,0.6939,0.699,0.7034,0.7034,0.6963,0.6922,0.6929,0.6851,0.6773,0.6702,0.6637,0.6558,0.6632,0.6573,0.6464,0.6307,0.6329,0.622,0.5845,0.2834,0.1988,0.2696,0.2732,0.2699,0.2527,0.0692,0.0,0.0,0.0,0.0,0.0,0.0,0.0,0.0,0.0,0.0,0.0,0.0,0.0,0.0,0.0,0.0,0.0,0.0,0.0,0.0,0.0,0.0,0.0,0.0,0.0,0.0,0.0,0.0,0.0,0.0,0.0,0.0,0.0,0.0,0.0,0.0,0.0,0.0,0.0,0.0,0.0,0.0,0.0,0.0,0.0,0.0,0.0,0.0,0.0,0.0,0.0,0.0,0.0,0.0,0.0,0.0,0.0,0.0,0.0,0.0,0.0,0.0,0.0,0.0,0.0,0.0,0.0,0.5176,0.5477,0.5637,0.5741,0.6112,0.6408,0.6736,0.7024,0.7285,0.7556,0.7824,0.7862,0.7807,0.7665,0.7645,0.7584,0.7431,0.739,0.7309,0.7153,0.7139,0.7139,0.7139,0.7139,0.7088,0.698,0.6997,0.6947,0.68,0.6813,0.6557,0.6042,0.6002,0.5924,0.5813,0.6109,0.6277,0.6074,0.1798,0.0,0.0,0.0,0.0,0.0,0.0,0.0,0.0,0.0,0.0,0.0,0.0,0.0,0.0,0.0,0.0,0.0,0.0,0.0,0.0,0.0,0.0,0.0,0.0,0.0,0.0,0.0,0.0,0.0,0.0,0.0,0.0,0.0,0.0,0.0,0.0,0.0,0.0,0.0,0.0,0.0,0.0,0.0,0.0,0.0,0.0,0.0,0.0,0.0,0.0,0.0,0.0,0.0,0.0,0.0,0.0,0.0,0.0,0.0,0.0,0.0,0.0,0.0,0.0,0.0,0.4815,0.4562,0.4663,0.4663,0.4887,0.5176,0.0,0.0,0.5718,0.5878,0.5953,0.6132,0.66,0.6473,0.6627,0.7369,0.7577,0.7751,0.7922,0.7945,0.7888,0.7738,0.7704,0.7733,0.7587,0.7451,0.7309,0.7153,0.7139,0.7139,0.7139,0.7139,0.7054,0.7058,0.689,0.689,0.7048,0.6853,0.5785,0.3899,0.367,0.3682,0.3924,0.5586,0.6294,0.6081,0.1832,0.0,0.0,0.0,0.0,0.0,0.0,0.0,0.0,0.0,0.0,0.0,0.0,0.0,0.0,0.0,0.0,0.0,0.0,0.0,0.0,0.0,0.0,0.0,0.0,0.0,0.0,0.0,0.0,0.0,0.0,0.0,0.0,0.0,0.0,0.0,0.0,0.0,0.0,0.0,0.0,0.0,0.0,0.0,0.0,0.0,0.0,0.0,0.0,0.0,0.0,0.0,0.0,0.0,0.0,0.0,0.0,0.0,0.0,0.0,0.0,0.0,0.0,0.0,0.0,0.0,0.4863,0.4646,0.4843,0.0,0.5237,0.5603,0.5908,0.5944,0.6035,0.625,0.5165,0.4176,0.4604,0.5989,0.6695,0.0,0.6689,0.7908,0.7975,0.6691,0.5606,0.5593,0.684,0.7658,0.7502,0.7428,0.7329,0.7091,0.7081,0.7118,0.7115,0.7118,0.707,0.7073,0.5686,0.5008,0.5103,0.6281,0.6517,0.5568,0.2728,0.1387,0.154,0.2264,0.2605,0.2514,0.0777,0.0,0.0,0.0,0.0,0.0,0.0,0.0,0.0,0.0,0.0,0.0,0.0,0.0,0.0,0.0,0.0,0.0,0.0,0.0,0.0,0.0,0.0,0.0,0.0,0.0,0.0,0.0,0.0,0.0,0.0,0.0,0.0,0.0,0.0,0.0,0.0,0.0,0.0,0.0,0.0,0.0,0.0,0.0,0.0,0.0,0.0,0.0,0.0,0.0,0.0,0.0,0.0,0.0,0.0,0.0,0.0,0.0,0.0,0.0,0.0,0.0,0.0,0.0,0.0,0.0,0.4837,0.0,0.0,0.5321,0.5715,0.6129,0.6434,0.6381,0.6195,0.5809,0.4796,0.3529,0.2454,0.4043,0.5133,0.3905,0.4851,0.6318,0.7788,0.6333,0.4827,0.4065,0.6092,0.7519,0.7305,0.6803,0.6415,0.6109,0.6132,0.6099,0.6101,0.6138,0.6392,0.7073,0.5479,0.393,0.2602,0.4322,0.511,0.5082,0.1621,0.0,0.0,0.0,0.0,0.0,0.0,0.0,0.0,0.0,0.0,0.0,0.0,0.0,-0.0156,-0.1453,-0.1119,0.0,0.0,0.0,0.0,0.0,0.0,0.0,0.0,-0.0918,-0.1957,-0.1991,-0.1458,-0.0988,-0.1004,-0.1009,-0.1009,-0.1009,-0.1009,-0.1009,-0.1009,-0.1009,-0.1009,-0.1009,-0.1009,-0.1004,-0.0987,-0.097,-0.0951,-0.0852,-0.0835,-0.0666,-0.0071,0.0,0.0,0.0,0.0,0.0,0.0,0.0,0.0,0.0,0.0,0.0,0.0,0.0,0.0,0.0,0.0,0.0,0.0,0.0,0.0,0.0,0.0,0.0,0.472,0.5262,0.5454,0.5891,0.6339,0.6749,0.7048,0.7065,0.6388,0.4145,0.5435,0.5598,0.0946,0.0187,0.1031,0.3597,0.1857,0.2069,0.7281,0.7976,0.6957,0.4274,0.6103,0.7465,0.0,0.533,0.4019,0.3755,0.3728,0.368,0.3684,0.366,0.4757,0.7003,0.703,0.4768,0.019,0.019,0.0188,0.0185,0.0091,0.0,0.0,0.0,0.0,0.0,0.0,0.0,0.0,0.0,0.0,0.0,0.0,0.0,-0.0587,-0.5212,-0.3963,0.0,0.0,0.0,0.0,0.0,0.0,0.0,0.0,-0.3215,-0.6923,-0.6843,-0.5212,-0.3517,-0.3519,-0.3521,-0.3521,-0.3521,-0.3521,-0.3521,-0.3521,-0.3521,-0.3521,-0.3521,-0.3521,-0.3519,-0.3517,-0.3515,-0.3402,-0.3079,-0.2986,-0.2283,-0.0294,0.0,0.0,0.0,0.0,0.0,0.0,0.0,0.0,0.0,0.0,0.0,0.0,0.0,0.0,0.0,0.0,0.0,0.0,0.0,0.0,0.0,0.0,0.0,0.5099,0.5638,0.5762,0.621,0.659,0.6956,0.7269,0.7326,0.7272,0.6668,0.433,0.1894,0.0265,0.0,0.0275,0.122,0.0578,0.059,0.2474,0.2647,0.239,0.146,0.2085,0.0,0.0,0.0,0.0,0.1433,0.1187,0.1207,0.1223,0.1248,0.1563,0.2378,0.2364,0.1664,0.0,0.0,0.0,0.0,0.0,0.0,0.0,0.0,0.0,0.0,0.0,0.0,0.0,0.0,0.0,-0.0337,-0.3453,-0.4722,-0.4722,-0.4797,-0.4784,-0.4259,-0.1121,-0.1046,-0.2675,-0.4232,-0.3695,-0.2404,-0.2404,-0.3505,-0.5162,-0.6907,-0.687,-0.6283,-0.6277,-0.623,-0.623,-0.623,-0.623,-0.623,-0.623,-0.6071,-0.5919,-0.5919,-0.594,-0.5947,-0.5952,-0.594,-0.578,-0.5314,-0.4027,-0.2375,-0.0299,-0.124,-0.1513,-0.0146,0.0,0.0,0.0,0.0,0.0,0.0,0.0,0.0,0.0,0.0,0.0,0.0,0.0,0.0,0.0,0.0,0.0,0.0,0.0,0.0,0.54,0.5995,0.5941,0.6669,0.6896,0.7067,0.7547,0.7689,0.7806,0.7986,0.3767,0.0,0.0,0.0,0.0,0.0,0.0,0.0,0.0,0.0,0.0,0.0,0.0,0.1182,0.0,0.0,0.0,0.0272,0.0,0.0,0.0,0.0,0.0,0.0,0.0,0.0,0.0,0.0,0.0,0.0,0.0,0.0,0.0,0.0,0.0,0.0,0.0,-0.093,-0.2556,-0.2556,-0.2052,-0.1634,-0.4779,-0.6557,-0.7097,-0.5619,-0.5987,-0.6853,-0.3646,-0.3017,-0.4026,-0.6331,-0.6105,-0.4852,-0.4976,-0.5011,-0.5344,-0.7091,-0.7622,-0.7573,-0.7584,-0.7631,-0.7631,-0.7631,-0.7631,-0.7631,-0.7631,-0.746,-0.7297,-0.7297,-0.7269,-0.7227,-0.7228,-0.7125,-0.6895,-0.6529,-0.5274,-0.378,-0.2448,-0.2769,-0.2883,-0.2315,-0.1556,-0.1109,-0.1119,-0.112,-0.1128,-0.107,-0.1071,-0.1079,-0.1096,-0.1096,-0.1096,-0.1096,-0.1096,-0.1096,-0.1096,-0.1096,-0.1096,-0.1096,-0.1096,-0.1096,0.5645,0.6367,0.6117,0.7181,0.7139,0.7146,0.7838,0.8023,0.7927,0.7606,0.3359,-0.0249,0.0,0.0,0.0,0.0,0.0,0.0,0.0,0.0,0.0,0.0,0.0,0.0,0.0,0.0,0.0,0.0,0.0,0.0,0.0,0.0,0.0,0.0,0.0,0.0,0.0,0.0,0.0,0.0,0.0,0.0,-0.0,-0.0264,-0.0349,-0.0348,-0.0256,-0.2736,-0.6934,-0.7111,-0.5838,-0.3859,-0.412,-0.555,-0.7639,-0.7667,-0.7712,-0.7633,-0.7256,-0.5675,-0.4137,-0.6366,-0.7158,-0.7219,-0.7539,-0.7497,-0.7444,-0.7684,-0.7621,-0.7611,-0.7621,-0.7621,-0.7621,-0.7621,-0.7621,-0.7621,-0.7621,-0.7614,-0.7611,-0.7611,-0.7489,-0.7383,-0.7383,-0.7143,-0.6949,-0.6943,-0.6678,-0.6441,-0.6322,-0.4535,-0.4047,-0.6119,-0.4454,-0.328,-0.3274,-0.3279,-0.3279,-0.3279,-0.3279,-0.3279,-0.3279,-0.3279,-0.3279,-0.3279,-0.3279,-0.3279,-0.3279,-0.3279,-0.3279,-0.3279,-0.3279,-0.3279,0.683,0.7007,0.6861,0.7299,0.5909,0.5022,0.6879,0.765,0.684,0.2884,-0.1219,-0.4028,-0.3996,-0.1845,0.0,0.0,0.0,0.0,0.0,0.0,0.0,0.0,0.0,0.0,0.0,0.0,0.0,0.0,0.0,0.0,0.0,0.0,0.0,0.0,0.0,0.0,0.0,0.0,0.0,0.0,0.0,0.0,-0.0092,-0.369,-0.527,-0.5179,-0.3444,-0.3472,-0.491,-0.6756,-0.7119,-0.6581,-0.6695,-0.7088,-0.7667,-0.7597,-0.7607,-0.7584,-0.753,-0.7103,-0.6725,-0.7299,-0.7513,-0.7451,-0.7581,-0.7616,-0.758,-0.7723,-0.776,-0.7784,-0.7896,-0.7926,-0.7926,-0.7926,-0.7926,-0.7926,-0.7926,-0.7838,-0.7756,-0.7756,-0.7641,-0.7543,-0.7543,-0.7383,-0.7217,-0.7102,-0.6834,-0.6597,-0.6304,-0.583,-0.5681,-0.621,-0.5777,-0.5452,-0.5491,-0.5494,-0.5494,-0.5494,-0.5494,-0.5494,-0.5494,-0.5494,-0.5494,-0.5494,-0.5494,-0.5494,-0.5494,-0.5494,-0.5494,-0.5494,-0.5494,-0.5494,0.72,0.7358,0.7526,0.7604,0.4827,0.2334,0.3723,0.3203,0.1624,-0.1386,-0.3168,-0.4433,-0.5052,-0.3644,-0.1821,-0.0227,0.0,0.0,0.0,0.0,0.0,0.0,0.0,0.0,0.0,0.0,0.0,0.0,0.0,0.0,0.0,0.0,0.0,0.0,0.0,0.0,0.0,0.0,0.0,-0.0,-0.24,-0.3501,-0.3566,-0.5101,-0.6285,-0.7227,0.0,-0.546,-0.5701,-0.7124,-0.765,-0.7634,-0.7682,-0.7702,-0.7709,-0.777,-0.7794,-0.7794,-0.7794,-0.7794,-0.7773,-0.7651,-0.7607,-0.7611,-0.7675,-0.7692,-0.7723,-0.7872,-0.7913,-0.7929,-0.8018,-0.8038,-0.8038,-0.8038,-0.8038,-0.8038,-0.8038,-0.7974,-0.7892,-0.7824,-0.7746,-0.7672,-0.7611,-0.7529,-0.7417,-0.7265,-0.7041,-0.682,-0.6532,-0.6396,-0.6268,-0.6278,-0.6274,-0.6274,-0.6281,-0.6281,-0.6281,-0.6281,-0.6281,-0.6281,-0.6281,-0.6281,-0.6281,-0.6281,-0.6281,-0.6281,-0.6281,-0.6281,-0.6281,-0.6281,-0.6281,-0.6281,0.6624,0.7308,0.8021,0.7983,0.3975,-0.009,-0.0506,-0.2591,-0.4522,-0.4529,-0.372,-0.3401,-0.4658,-0.5138,-0.4308,-0.105,-0.0451,-0.0407,-0.0535,-0.0186,0.0,0.0,0.0,0.0,0.0,0.0,0.0,0.0,0.0,0.0,0.0,0.0,0.0,0.0,0.0,0.0,0.0,0.0,-0.0401,-0.1084,-0.5811,-0.8032,-0.791,-0.5534,-0.5613,-0.7645,-0.7645,0.0,-0.7739,-0.7739,-0.7651,-0.7672,-0.7794,-0.7841,-0.7858,-0.7991,-0.8038,-0.8038,-0.8038,-0.8038,-0.7997,-0.774,-0.7658,-0.7682,-0.7804,-0.7841,-0.7868,-0.8001,-0.8038,-0.8038,-0.8038,-0.8038,-0.8038,-0.8038,-0.8038,-0.8038,-0.8038,-0.8038,-0.8001,-0.7868,-0.7841,-0.7801,-0.7678,-0.7641,-0.7577,-0.7424,-0.7251,-0.7041,-0.6766,-0.6471,-0.6281,-0.6342,-0.6338,-0.6338,-0.6338,-0.6338,-0.6338,-0.6338,-0.6338,-0.6338,-0.6338,-0.6338,-0.6338,-0.6338,-0.6338,-0.6338,-0.6338,-0.6338,-0.6338,-0.6338,-0.6281,-0.6288,0.4117,0.606,0.7976,0.7955,0.3999,-0.0673,-0.3141,-0.4094,0.0,-0.4479,-0.4623,-0.4713,-0.4785,-0.5003,-0.4697,-0.3446,-0.2841,-0.2742,-0.3262,-0.1405,0.0,0.0,0.0,0.0,0.0,0.0,0.0,0.0,0.0,0.0,0.0,0.0,0.0,0.0,0.0,0.0,0.0,0.0,-0.2218,-0.6653,-0.7556,-0.7983,-0.7945,-0.7301,-0.7331,-0.7719,-0.7614,0.0,-0.7777,-0.7777,-0.7851,-0.7967,-0.7991,-0.7997,-0.8004,-0.8028,-0.8038,-0.8038,-0.8038,-0.8038,-0.8031,-0.798,-0.7963,-0.7967,-0.7991,-0.7997,-0.8007,-0.8031,-0.8038,-0.8038,-0.8038,-0.8038,-0.8038,-0.8038,-0.8038,-0.8038,-0.8038,-0.8038,-0.8031,-0.8004,-0.7997,-0.7991,-0.7967,-0.7858,-0.7726,-0.7584,-0.7319,-0.7078,-0.6912,-0.6624,-0.639,-0.6352,-0.6338,-0.6338,-0.6338,-0.6338,-0.6338,-0.6338,-0.6338,-0.6338,-0.6338,-0.6338,-0.6338,-0.6338,-0.6338,-0.6338,-0.6338,-0.6338,-0.6338,-0.6264,-0.638,-0.6434,0.1722,0.2745,0.3852,0.3798,0.1942,-0.081,-0.3799,0.0,0.0,-0.4528,-0.4772,-0.4944,-0.4786,-0.4934,-0.4977,-0.4751,-0.4587,-0.4693,-0.5308,-0.4689,-0.3136,-0.0296,0.0,0.0,0.0,0.0,0.0,0.0,0.0,0.0,0.0,0.0,0.0,0.0,0.0,-0.1313,-0.4144,-0.4144,-0.4746,-0.5952,-0.7316,-0.7987,-0.798,-0.7882,-0.7838,-0.7838,-0.7831,0.0,-0.7929,-0.7929,-0.7974,-0.8038,-0.8038,-0.8038,-0.8038,-0.8038,-0.8038,-0.8038,-0.8038,-0.8038,-0.8038,-0.8038,-0.8038,-0.8038,-0.8038,-0.8038,-0.8137,-0.8825,-0.8531,-0.8137,-0.8825,-0.8531,-0.8038,-0.8038,-0.8038,-0.8237,-0.8924,-0.9019,-0.9019,-0.9019,-0.9019,-0.8825,-0.8137,-0.7977,-0.7879,-0.7733,-0.7522,-0.7299,-0.7068,-0.6848,-0.6654,-0.6505,-0.642,-0.6369,-0.6369,-0.6302,-0.6338,-0.6338,-0.6338,-0.6338,-0.6338,-0.6338,-0.6338,-0.6338,-0.6338,-0.6338,-0.6338,-0.6338,-0.6298,-0.6373,-0.6441,-0.6515,0.0,0.0,0.0,0.0,-0.0519,-0.1499,-0.3524,-0.4443,-0.4782,-0.4727,-0.4912,-0.5068,-0.494,-0.5033,-0.5169,-0.5388,-0.5594,-0.5986,-0.6619,-0.7344,-0.6256,-0.2226,-0.0694,0.0,-0.1615,-0.1716,0.0,-0.1716,-0.1211,-0.0605,-0.0,-0.1111,-0.1716,-0.1716,-0.111,-0.2924,-0.7089,-0.7708,-0.6977,-0.4922,-0.6954,-0.7969,-0.7965,-0.8048,-0.8038,-0.8038,-0.8038,0.0,0.0,-0.8038,-0.8038,-0.8038,-0.8038,-0.8038,-0.8038,-0.8038,-0.8038,-0.8038,-0.8038,-0.8237,-0.8432,-0.8432,-0.8432,-0.8432,-0.8432,-0.8627,-0.9019,-1.0096,-0.9604,-0.9118,-1.0096,-0.9608,-0.8825,-0.8825,-0.8825,-0.9114,-1.0194,-1.0386,-1.0386,-1.0386,-1.0386,-1.0096,-0.9019,-0.8825,-0.8765,-0.8694,-0.8562,-0.8281,-0.7714,-0.7457,-0.7232,-0.6858,-0.6651,-0.6508,-0.6474,-0.6369,-0.6291,-0.6342,-0.6338,-0.6338,-0.6338,-0.6338,-0.6352,-0.6305,-0.6305,-0.6305,-0.6305,-0.6339,-0.6393,-0.6474,-0.6539,-0.6634,0.0,0.0,0.0,0.0,-0.2054,-0.3791,-0.2639,0.0,-0.5682,-0.5478,-0.5599,-0.5735,-0.5719,-0.5365,0.0,0.0,0.0,-0.5986,-0.6454,-0.6912,-0.7218,-0.7221,-0.2948,0.0,-0.679,-0.7302,-0.7302,-0.7302,-0.5039,-0.2614,-0.0101,-0.4649,-0.7302,-0.7302,-0.4937,-0.3917,-0.4321,-0.6762,-0.7882,-0.7666,-0.7869,-0.7962,-0.8041,-0.8041,-0.8038,-0.8038,-0.8038,0.0,0.0,-0.8038,-0.8038,-0.8038,-0.8038,-0.8038,-0.8038,-0.8038,-0.8038,-0.8038,-0.8038,-0.8825,-0.9805,-0.9805,-0.9805,-0.9805,-0.9805,-1.0583,-1.156,-1.1653,-1.1653,-1.1556,-1.1653,-1.1653,-1.1556,-1.1556,-1.1556,-1.1556,-1.1653,-1.1755,-1.1755,-1.1755,-1.1755,-1.1658,-1.1556,-1.1556,-1.1482,-1.1357,-1.1308,-1.0834,-0.9494,-0.9129,-0.8661,-0.749,-0.6932,-0.6624,-0.6485,-0.6461,-0.6396,-0.6271,-0.6338,-0.6338,-0.6338,-0.6338,-0.6322,-0.6451,-0.6454,-0.6454,-0.6454,-0.659,-0.6597,-0.6478,-0.6756,-0.6895,-0.2131,-0.2127,-0.2062,-0.1681,-0.2373,-0.3369,-0.4349,0.0,-0.5943,-0.6114,-0.6015,-0.594,-0.594,-0.5564,0.0,0.0,0.0,0.0,-0.6142,-0.6447,-0.6894,-0.7761,-0.6081,-0.5003,0.0,0.0,-0.6258,-0.7899,-0.6968,-0.5947,-0.4841,-0.5343,-0.6358,-0.7902,-0.6965,-0.6448,-0.6442,-0.7466,-0.7972,-0.7952,-0.7952,-0.8048,-0.8038,-0.8038,-0.8038,-0.8038,-0.8038,0.0,0.0,-0.8038,-0.8038,-0.8038,-0.8038,-0.8531,-0.9217,-0.9217,-0.9702,-1.0386,-1.0386,-1.0681,-1.117,-1.117,-1.1653,-1.2226,-1.1361,-1.1463,-1.2042,-1.2915,-1.2522,-1.2042,-1.2909,-1.2528,-1.1945,-1.1945,-1.1945,-1.2139,-1.2909,-1.3102,-1.3102,-1.3102,-1.3102,-1.2818,-1.2042,-1.1945,-1.1915,-1.1824,-1.1793,-1.1482,-1.0923,-1.0726,-1.0099,-0.8725,-0.748,-0.6814,-0.6753,-0.6661,-0.6546,-0.6396,-0.6386,-0.6386,-0.6386,-0.6386,-0.6458,-0.6607,-0.661,-0.661,-0.661,-0.6671,-0.6715,-0.6749,-0.6871,-0.6973,-0.4479,-0.4546,-0.4385,-0.3764,-0.3581,-0.3946,-0.5709,0.0,-0.6549,-0.6858,-0.6722,-0.6447,-0.6331,-0.5892,0.0,0.0,0.0,-0.5552,-0.5911,-0.6169,-0.6582,-0.7336,-0.7771,-0.7227,-0.5319,-0.5191,-0.5934,-0.7872,-0.7975,-0.7975,-0.7975,-0.6234,-0.6034,-0.7982,-0.7979,-0.7972,-0.7962,-0.7962,-0.7955,-0.8038,-0.8038,-0.8038,-0.8038,-0.8038,-0.8038,-0.8038,-0.8038,0.0,0.0,-0.8432,-0.8627,-0.8627,-0.9019,-0.9702,-1.0583,-1.0583,-1.1165,-1.1945,-1.1945,-1.2139,-1.2522,-1.2522,-1.3397,-1.4268,-1.3301,-1.3011,-1.321,-1.4172,-1.3788,-1.3301,-1.4172,-1.3782,-1.3011,-1.3011,-1.3011,-1.3323,-1.437,-1.4582,-1.4582,-1.4582,-1.4643,-1.4352,-1.3232,-1.3169,-1.3197,-1.3022,-1.2958,-1.2753,-1.2368,-1.2258,-1.1589,-1.0159,-0.8957,-0.7929,-0.6939,-0.6831,-0.6702,-0.6549,-0.6539,-0.6539,-0.6539,-0.6539,-0.661,-0.6766,-0.6766,-0.6766,-0.677,-0.681,-0.6865,-0.6929,-0.697,-0.7044,-0.6453,-0.6644,-0.6502,-0.5946,-0.6089,-0.6348,0.0,-0.68,-0.767,-0.767,-0.7676,-0.7554,-0.716,-0.6473,-0.5875,-0.5446,0.0,0.0,-0.5783,-0.6186,-0.6529,-0.6688,-0.7444,-0.7967,-0.7983,-0.7997,-0.7965,-0.8041,-0.8038,0.0,-0.8038,-0.7939,-0.7949,-0.7972,-0.7952,-0.8038,-0.8038,-0.8038,-0.8038,-0.8038,-0.8038,-0.8038,-0.8038,-0.8038,-0.8038,-0.8038,0.0,0.0,0.0,-0.941,-0.9998,-1.0096,-1.1365,-1.1853,-1.1853,-1.1853,-1.1848,-1.1945,-1.1945,-1.2813,-1.3878,-1.3878,-1.4752,-1.5737,-1.573,-1.573,-1.573,-1.5737,-1.5737,-1.573,-1.5737,-1.5737,-1.573,-1.573,-1.573,-1.5817,-1.6206,-1.6266,-1.6266,-1.6266,-1.65,-1.6513,-1.5836,-1.6072,-1.6166,-1.5777,-1.573,-1.5337,-1.4064,-1.3755,-1.3122,-1.179,-1.158,-1.0192,-0.7135,-0.6926,-0.6861,-0.6709,-0.6698,-0.6698,-0.6698,-0.6698,-0.677,-0.6922,-0.6926,-0.6926,-0.6926,-0.7068,-0.7065,-0.6932,-0.7071,-0.7139,-0.7269,-0.7401,-0.7505,-0.7036,-0.6994,-0.7084,-0.7247,-0.7516,-0.783,-0.8368,-0.813,-0.7795,-0.767,-0.6837,-0.6124,-0.6102,-0.5823,0.0,-0.5783,-0.6105,-0.6461,-0.6814,-0.7495,-0.8007,0.0,0.0,-0.8048,-0.8038,-0.8038,-0.8038,-0.8038,-0.8038,-0.8041,-0.8048,-0.8041,-0.8038,-0.8038,-0.8038,-0.8038,-0.8038,-0.8038,-0.8038,-0.8038,-0.8038,-0.8528,0.0,0.0,0.0,0.0,-1.1165,-1.1268,-1.1365,-1.175,-1.2431,-1.3295,-1.3295,-1.3782,-1.4567,-1.4567,-1.4854,-1.5242,-1.5242,-1.5439,-1.5832,-1.5832,-1.5832,-1.5832,-1.5832,-1.5832,-1.5832,-1.5832,-1.5832,-1.5832,-1.5832,-1.5832,-1.5852,-1.5945,-1.6126,-1.6273,-1.6273,-1.6506,-1.658,-1.6199,-1.6213,-1.6172,-1.5872,-1.5832,-1.5635,-1.5242,-1.5171,-1.4565,-1.3239,-1.3054,-1.2194,-1.0187,-0.9169,-0.8597,-0.8385,-0.7512,-0.6956,-0.6861,-0.6858,-0.6926,-0.7068,-0.7075,-0.7075,-0.7075,-0.7119,-0.7115,-0.7075,-0.7119,-0.7139,-0.8798,-0.8511,-0.8459,-0.8195,-0.8243,-0.8427,-0.8527,-0.8558,-0.8613,-0.9106,-0.8657,-0.8147,-0.7958,-0.7426,-0.7011,-0.6839,-0.6376,-0.6117,-0.6275,-0.6289,-0.651,-0.7055,-0.7492,0.0,0.0,-0.7977,-0.8038,-0.8038,-0.8038,-0.8038,-0.8038,-0.8038,-0.8038,-0.8038,-0.8038,-0.8038,-0.8038,-0.8038,-0.8038,-0.8038,-0.8038,-0.8233,-0.8726,-0.8726,-0.9509,0.0,0.0,0.0,0.0,-1.2431,-1.2619,-1.2716,-1.3204,-1.3884,-1.4657,-1.4657,-1.5146,-1.5832,-1.5832,-1.5832,-1.5832,-1.5832,-1.5832,-1.5832,-1.5832,-1.5832,-1.5832,-1.5832,-1.5832,-1.5832,-1.5832,-1.5832,-1.5858,-1.5972,-1.5999,-1.6025,-1.6139,-1.6306,-1.6433,-1.6433,-1.6673,-1.6747,-1.6339,-1.6359,-1.6299,-1.5892,-1.5832,-1.5832,-1.5832,-1.5832,-1.5468,-1.4628,-1.4509,-1.4154,-1.3223,-1.1364,-1.015,-0.999,-0.911,-0.8324,-0.7789,-0.7729,-0.7483,-0.7139,-0.7139,-0.7139,-0.7139,-0.7139,-0.7139,-0.7139,-0.7139,-0.7139,0.0,-0.9962,-0.9394,-0.924,-0.9763,-1.0132,-0.9866,-0.9776,0.0,0.0,-0.9263,-0.8624,-0.8126,-0.8253,-0.8218,-0.7778,-0.7268,-0.6978,-0.7107,-0.6734,-0.6666,0.0,-0.7559,0.0,-0.8023,-0.7983,-0.8038,-0.8038,-0.8038,-0.8038,-0.8038,-0.8038,-0.8038,-0.8038,-0.8038,-0.8038,-0.8038,-0.8038,-0.8038,-0.8038,-0.8137,-0.8825,-0.9998,-1.0096,-1.0877,0.0,0.0,0.0,0.0,-1.3494,-1.407,-1.4166,-1.5337,-1.5832,-1.5832,-1.5832,-1.5832,-1.5832,-1.5832,-1.5832,-1.5832,-1.5832,-1.5825,-1.592,-1.5832,-1.5832,-1.5832,-1.5832,-1.5832,-1.5832,-1.5832,-1.5825,-1.5994,-1.6172,-1.6337,-1.6417,-1.6613,-1.6693,-1.6707,-1.6707,-1.6967,-1.6987,-1.638,-1.6513,-1.6506,-1.5919,-1.5832,-1.5832,-1.5832,-1.5832,-1.5832,-1.5832,-1.5832,-1.5832,-1.5832,-1.3252,-1.1681,-1.1666,-1.1287,-1.0626,-0.9543,-0.9181,-0.856,-0.7418,-0.7319,-0.7312,-0.7312,-0.7312,-0.7312,-0.7312,-0.7312,-0.7312,-1.3047,0.0,-1.0446,-1.042,-1.0517,-1.0633,0.0,-1.0151,0.0,0.0,0.0,-0.8911,-0.9245,-0.8795,-0.863,-0.9203,-0.8117,-0.7323,-0.7727,-0.7435,0.0,-0.7622,-0.7839,-0.7899,-0.8,-0.8045,-0.8038,-0.8038,-0.8038,-0.8038,-0.8038,-0.8038,-0.8038,-0.8038,-0.8038,-0.8038,-0.8038,-0.8038,-0.8038,-0.8038,-0.9019,-0.9706,-0.9998,-1.0974,-1.2139,0.0,0.0,0.0,-1.4956,-1.5242,-1.5343,-1.5343,-1.5635,-1.5832,-1.5832,-1.5832,-1.5832,-1.5832,-1.5832,-1.5832,-1.5832,-1.5832,-1.648,-1.7037,-1.6109,-1.5832,-1.5832,-1.5832,-1.5832,-1.5832,-1.5832,-1.648,-1.7059,-1.6103,-1.6686,-1.7239,-1.6501,-1.6553,-1.6707,-1.6707,-1.7128,-1.7221,-1.6413,-1.6513,-1.6506,-1.5919,-1.5832,-1.5832,-1.5832,-1.5832,-1.5832,-1.5832,-1.5832,-1.5832,-1.5832,-1.4248,-1.3331,-1.3147,-1.2138,-1.1374,-1.1019,-1.0716,-1.0425,-1.0154,-0.9911,-0.9744,-0.9744,-0.9744,-0.9744,-0.9744,-0.9744,-0.9744,-1.3956,-1.2803,-1.1742,-1.1742,-1.1742,-1.1742,-1.1742,0.0,0.0,0.0,0.0,-0.9305,-0.9448,-0.8875,-0.8653,-0.9495,-0.8301,-0.7257,-0.7388,-0.7314,-0.7353,-0.7584,-0.7804,-0.7936,0.0,-0.8001,-0.8038,-0.8038,-0.8038,-0.8038,-0.8038,-0.8038,-0.8038,-0.8038,-0.8038,-0.8038,-0.8038,-0.8627,-0.892,-0.8924,-1.0293,-1.1165,-1.1843,-1.2522,-1.3494,0.0,0.0,0.0,-1.5832,-1.5832,-1.5832,-1.5832,-1.5832,-1.5832,-1.5825,-1.648,-1.6662,-1.6662,-1.6662,-1.6662,-1.6756,-1.7296,-1.794,-1.8411,-1.7669,-1.7483,-1.739,-1.685,-1.7023,-1.7483,-1.7483,-1.8033,-1.835,-1.7849,-1.8168,-1.8636,-1.8312,-1.8424,-1.8444,-1.8444,-1.8733,-1.8755,-1.8082,-1.8111,-1.7867,-1.6826,-1.6662,-1.648,-1.5927,-1.5832,-1.5832,-1.5832,-1.5832,-1.5832,-1.5832,-1.5146,-1.469,-1.4647,-1.3854,-1.3153,-1.2553,-1.2108,-1.1602,-1.088,-1.0671,-1.0611,-1.0611,-1.0611,-1.0611,-1.0611,-1.0611,-1.0666,-1.4226,-1.3515,-1.3017,-1.2929,-1.2881,-1.2881,-1.2774,0.0,0.0,0.0,0.0,0.0,0.0,-0.9014,0.0,-0.9428,0.0,0.0,-0.687,-0.7085,-0.7343,-0.7607,-0.776,0.0,-0.8001,-0.8028,-0.8038,-0.8038,-0.8038,-0.8038,-0.8038,-0.8237,-0.8333,-0.8333,-0.8528,-0.8627,-0.8627,-0.9509,-1.0096,-1.0293,-1.1556,-1.2813,-1.3878,-1.407,-1.4752,-1.5832,0.0,0.0,-1.5825,-1.6015,-1.6015,-1.5825,-1.6015,-1.6109,-1.6197,-1.7318,-1.7777,-1.7956,-1.7956,-1.8141,-1.8411,-1.9222,-1.9579,-1.9761,-1.9579,-1.9588,-1.9579,-1.8503,-1.8896,-1.9563,-1.9505,-1.972,-1.9912,-1.9884,-1.9942,-2.0245,-2.0575,-2.057,-2.057,-2.057,-2.0611,-2.0504,-1.9931,-1.9898,-1.9442,-1.8195,-1.7956,-1.7591,-1.6473,-1.6379,-1.6292,-1.6109,-1.6109,-1.6015,-1.5825,-1.5832,-1.5832,-1.5832,-1.5598,-1.4974,-1.3987,-1.3441,-1.2604,-1.1186,-1.1218,-1.1202,-1.1128,-1.1165,-1.1186,-1.1186,-1.1186,-1.1396,-1.4744,-1.4097,-1.3552,-1.3017,-1.2881,-1.2725,-1.2129,0.0,0.0,0.0,0.0,0.0,0.0,-1.0174,-0.9451,0.0,0.0,-0.8225,0.0,0.0,-0.7733,-0.7701,0.0,-0.7974,-0.7986,-0.7977,-0.8038,-0.8038,-0.8038,-0.8038,-0.8038,-0.9118,-0.9706,-0.9706,-1.0779,-1.1263,-1.1263,-1.0485,-1.0583,-1.1653,-1.3006,-1.368,-1.3974,-1.5045,-1.5635,-1.5832,0.0,-1.5832,-1.592,-1.6943,-1.6756,-1.592,-1.6943,-1.7412,-1.7412,-1.7598,-1.8326,-1.9222,-1.9222,-1.9852,-2.0576,-1.9761,-2.0215,-2.0845,-1.9761,-2.0215,-2.1025,-2.0845,-2.0346,-1.9969,-1.9571,-2.0563,-2.1296,-1.9912,-2.0292,-2.1037,-2.0707,-2.057,-2.057,-2.057,-2.0817,-2.0613,-1.9744,-1.9734,-1.9723,-1.9279,-1.9222,-1.9131,-1.8948,-1.8948,-1.8588,-1.7498,-1.7412,-1.6943,-1.592,-1.5832,-1.5832,-1.5832,-1.5785,-1.5558,-1.512,-1.5029,-1.4637,-1.3928,-1.4153,-1.4044,-1.3561,-1.3799,-1.3915,-1.3915,-1.3915,-1.407,-1.5365,-1.4732,-1.405,-1.3102,-1.2579,-1.2138,-1.1416,0.0,0.0,0.0,0.0,0.0,0.0,0.0,-0.9868,-1.0445,0.0,-0.9051,-0.866,-0.811,-0.7729,0.0,0.0,-0.7926,-0.795,-0.8004,-0.8038,-0.8038,-0.8627,-0.9118,-0.9118,-1.0288,-1.1072,-1.1072,-1.1556,-1.2237,-1.3006,-1.2425,-1.2425,-1.3006,-1.4268,-1.4949,-1.4949,-1.5534,-1.5832,-1.5832,0.0,-1.6204,-1.685,-1.7505,-1.777,-1.7848,-1.8403,-1.868,-1.8772,-1.9405,-2.0034,-2.0576,-2.1221,-2.1391,-2.1302,-2.14,-2.1854,-2.2129,-2.1587,-2.1854,-2.2306,-2.2306,-2.215,-2.2044,-2.1871,-2.2592,-2.3129,-2.2373,-2.2602,-2.2953,-2.2975,-2.3008,-2.3008,-2.3008,-2.2885,-2.2614,-2.1953,-2.1699,-2.1338,-2.0602,-2.0486,-2.0215,-1.9579,-1.9497,-1.9314,-1.8772,-1.868,-1.8403,-1.7848,-1.7755,-1.7203,-1.592,-1.5832,-1.5698,-1.5404,-1.5398,-1.5197,-1.477,-1.4897,-1.483,-1.4563,-1.4696,-1.4763,-1.4763,-1.4763,-1.4917,-1.5764,-1.5141,-1.4411,-1.311,0.0,-1.161,-1.0924,0.0,0.0,0.0,0.0,0.0,0.0,-1.052,0.0,-1.0447,-0.9911,-0.9414,-0.9456,-0.8464,-0.7743,-0.7851,-0.7865,-0.7913,-0.8028,-0.8233,-0.8432,-0.8432,-0.9702,-1.0485,-1.0485,-1.1653,-1.2308,-1.225,-1.2544,-1.3216,-1.4266,-1.4272,-1.4303,-1.4364,-1.5622,-1.6197,-1.6292,-1.6567,-1.6655,-1.6655,-1.6655,-1.721,-1.8141,-1.8411,-1.8956,-1.9497,-1.9852,-1.9943,-2.0034,-2.1302,-2.1747,-2.1845,-2.2775,-2.2492,-2.1845,-2.2775,-2.3135,-2.3135,-2.3135,-2.3135,-2.3135,-2.3135,-2.3457,-2.3789,-2.3789,-2.4102,-2.4414,-2.4414,-2.4414,-2.4531,-2.4971,-2.5068,-2.5068,-2.5068,-2.4717,-2.4287,-2.3867,-2.3428,-2.2775,-2.1845,-2.1747,-2.1391,-2.0494,-2.0314,-2.0223,-1.9943,-1.9943,-1.9761,-1.9497,-1.9497,-1.8672,-1.6749,-1.6103,-1.5732,-1.5504,-1.5498,-1.5357,-1.507,-1.5137,-1.5104,-1.4963,-1.503,-1.5064,-1.5064,-1.5064,-1.5217,-1.5764,-1.5141,-1.4411,-1.311,-1.2288,0.0,-1.0854,-1.09,0.0,0.0,0.0,0.0,0.0,-1.1663,-1.0874,-1.0819,-0.9922,-0.946,-0.9892,0.0,-0.8011,-0.8021,-0.8024,-0.8028,-0.8038,-0.9118,-0.9903,-0.9903,-1.1072,-1.1755,-1.1755,-1.3006,-1.357,-1.3333,-1.4471,-1.5233,-1.5332,-1.5332,-1.5465,-1.5635,-1.6943,-1.7598,-1.7598,-1.868,-1.9214,-1.9214,-1.9214,-1.9314,-1.9497,-2.0576,-2.0395,-1.9579,-2.0747,-2.1203,-2.1302,-2.2501,-2.296,-2.296,-2.3047,-2.3047,-2.296,-2.3047,-2.3135,-2.3135,-2.3135,-2.3135,-2.3135,-2.3135,-2.3457,-2.3789,-2.3789,-2.4102,-2.4414,-2.4414,-2.4414,-2.4531,-2.4971,-2.5068,-2.5068,-2.5068,-2.4717,-2.4287,-2.3867,-2.3428,-2.3047,-2.296,-2.296,-2.295,-2.2862,-2.2862,-2.2403,-2.1293,-2.1203,-2.0755,-1.9579,-1.9497,-1.9397,-1.9222,-1.7109,-1.5818,-1.5798,-1.5798,-1.5665,-1.5371,-1.5631,-1.5504,-1.4963,-1.5237,-1.5364,-1.5364,-1.5364,-1.5518,-1.6312,-1.5466,-1.4457,-1.3575,0.0,0.0,0.0,0.0,0.0,0.0,0.0,0.0,0.0,0.0,-1.2289,-1.2144,-1.1973,-1.1958,-1.2378,-1.0578,-0.9509,-1.0288,-0.9702,-0.9509,-1.0386,-1.0872,-1.117,-1.117,-1.2198,-1.2875,-1.2875,-1.3963,-1.4485,-1.4377,-1.4845,-1.5472,-1.617,-1.617,-1.6682,-1.7629,-1.7672,-1.8048,-1.8864,-1.9314,-1.9497,-1.9497,-1.9497,-1.9943,-2.0657,-2.1114,-2.148,-2.1765,-2.2217,-2.2403,-2.2492,-2.295,-2.3135,-2.3135,-2.3135,-2.3135,-2.3135,-2.3135,-2.3135,-2.3135,-2.3135,-2.3637,-2.4272,-2.4548,-2.4764,-2.4713,-2.4283,-2.4502,-2.4893,-2.5176,-2.5234,-2.5283,-2.5449,-2.5264,-2.5068,-2.5068,-2.4502,-2.3975,-2.3818,-2.3428,-2.3135,-2.3135,-2.3135,-2.3135,-2.3135,-2.3135,-2.296,-2.2492,-2.2403,-2.2217,-2.1765,-2.1033,-2.0666,-2.0666,-1.9031,-1.8118,-1.8118,-1.8118,-1.7702,-1.6865,-1.6886,-1.6462,-1.5504,-1.5611,-1.5665,-1.5665,-1.5665,-1.5725,-1.6355,-1.5332,-1.4318,0.0,0.0,0.0,0.0,0.0,0.0,0.0,-1.1945,0.0,0.0,0.0,0.0,0.0,-1.3363,-1.3391,-1.3825,-1.2037,-1.0877,-1.1755,-1.1165,-1.0974,-1.1848,-1.2169,-1.2416,-1.2416,-1.3327,-1.3933,0.0,-1.4598,-1.4917,-1.483,-1.5164,-1.5673,-1.6431,-1.6779,-1.7731,-1.9129,-1.8791,-1.9117,-2.0124,-2.0494,-2.0674,-2.0674,-2.0674,-2.1123,-2.1845,-2.1845,-2.2306,-2.3135,-2.3135,-2.3135,-2.3135,-2.3464,-2.3637,-2.3724,-2.4059,-2.4135,-2.4135,-2.4135,-2.4135,-2.4135,-2.4135,-2.4723,-2.5443,-2.5765,-2.5787,-2.5646,-2.5314,-2.5441,-2.564,-2.5722,-2.6014,-2.6197,-2.583,-2.5767,-2.5784,-2.5635,-2.5371,-2.4944,-2.4596,-2.4147,-2.3682,-2.334,-2.335,-2.335,-2.335,-2.335,-2.335,-2.335,-2.335,-2.3291,-2.3154,-2.2306,-2.1845,-2.1845,-2.1123,-2.0305,-1.9497,-1.9497,-1.9131,-1.8326,-1.8234,-1.7863,-1.6929,-1.6929,-1.6929,-1.6929,-1.6929,-1.6929,-1.5752,-1.4721,-1.3826,0.0,0.0,0.0,0.0,0.0,0.0,0.0,0.0,-1.2073,-1.3343,0.0,0.0,-1.4203,-1.3671,-1.3193,-1.3802,-1.2711,-1.194,-1.194,-1.194,-1.194,-1.194,-1.2786,-1.3391,-1.3391,-1.4371,-1.4963,0.0,-1.4957,-1.4816,-1.4522,-1.5512,-1.6089,-1.6089,-1.7283,-1.8557,-2.0027,-2.0508,-2.0905,-2.1373,-2.258,-2.3135,-2.3135,-2.3135,-2.3135,-2.3135,-2.3135,-2.3135,-2.3135,-2.3135,-2.3135,-2.3299,-2.4372,-2.4787,-2.4957,-2.6141,-2.6483,-2.6483,-2.6483,-2.6483,-2.6483,-2.6483,-2.6472,-2.6483,-2.6483,-2.6483,-2.6595,-2.6992,-2.7062,-2.6723,-2.5905,-2.6658,-2.7315,-2.6014,-2.6754,-2.7432,-2.6867,-2.7377,-2.748,-2.6283,-2.5727,-2.5083,-2.3969,-2.3879,-2.3789,-2.3789,-2.3789,-2.3799,-2.3789,-2.3789,-2.3613,-2.3174,-2.3135,-2.3135,-2.3135,-2.3135,-2.2041,-1.9588,-1.9488,-1.9497,-1.9497,-1.9497,-1.9488,-1.9497,-1.9497,-1.9497,-1.9497,-1.9497,-1.9497,-1.5959,-1.505,0.0,-1.4264,0.0,0.0,0.0,0.0,0.0,0.0,-1.3572,-1.3252,-1.2993,0.0,0.0,-1.3492,-1.3945,-1.4533,-1.49,-1.3641,-1.3061,-1.4001,-1.3251,-1.3061,-1.4001,-1.439,-1.4527,-1.4527,-1.4632,0.0,0.0,-1.5205,-1.5452,-1.5358,-1.6345,-1.7327,-1.8143,-1.8475,-1.9417,-2.0828,-2.0952,-2.1473,-2.2169,-2.2824,-2.3135,-2.3135,-2.3135,-2.3135,-2.3135,-2.3963,-2.4296,-2.4382,-2.5221,-2.5473,-2.5557,-2.5891,-2.5975,-2.6047,-2.6389,-2.6483,-2.6483,-2.6483,-2.6483,-2.6483,-2.6483,-2.7046,-2.7684,-2.8046,-2.8152,-2.8268,-2.8698,-2.8792,-2.8627,-2.7876,-2.8337,-2.8773,-2.8402,-2.8054,-2.7799,-2.7557,-2.75,-2.7339,-2.7006,-2.7161,-2.7206,-2.6856,-2.6487,-2.6271,-2.6271,-2.5872,-2.5413,-2.5093,-2.4296,-2.3613,-2.3174,-2.3135,-2.3135,-2.3135,-2.3135,-2.2775,-2.2041,-2.2041,-2.1667,-2.0755,-2.0755,-2.0305,-1.9497,-1.9497,-1.9497,-1.9497,-1.9497,-1.9497,-1.5285,-1.4422,0.0,-1.401,-1.379,-1.3543,-1.3672,0.0,0.0,0.0,0.0,-1.3547,-1.3591,-1.3582,0.0,-1.3586,-1.4304,-1.489,-1.5184,-1.4417,-1.4128,-1.4867,-1.4315,-1.4084,-1.4708,-1.5021,-1.5158,-1.5033,0.0,0.0,0.0,-1.5703,-1.6002,-1.5862,-1.6905,-1.7848,-1.8713,-1.9114,-2.011,-2.1489,-2.1748,-2.2271,-2.3206,-2.2938,-2.314,-2.3549,-2.4149,-2.4478,-2.4478,-2.521,-2.5462,-2.5546,-2.6224,-2.6483,-2.6554,-2.6964,-2.7128,-2.7209,-2.7637,-2.7799,-2.7799,-2.7799,-2.7799,-2.7799,-2.7799,-2.8279,-2.884,-2.9156,-2.9253,-2.9246,-2.9573,-2.9816,-2.9666,-2.8517,-2.8867,-2.9349,-2.8813,-2.8607,-2.8477,-2.8271,-2.8428,-2.855,-2.8234,-2.8522,-2.8614,-2.8384,-2.8071,-2.7734,-2.7256,-2.7184,-2.6995,-2.6239,-2.5577,-2.4974,-2.4519,-2.4478,-2.4478,-2.4478,-2.4049,-2.38,-2.38,-2.3299,-2.2765,-2.2031,-2.2031,-2.1667,-2.0944,-2.0944,-2.0944,-2.0944,-2.0944,-2.0944,-1.4215,-1.342,0.0,-1.3447,-1.368,0.0,-1.3784,-1.3981,-1.4253,-1.4851,0.0,-1.3262,-1.4645,-1.3582,-1.2813,-1.4256,-1.4522,-1.4616,-1.4883,-1.4903,-1.487,-1.485,-1.4925,-1.4899,-1.4509,-1.5132,-1.5405,-1.5195,0.0,0.0,0.0,-1.6575,-1.6624,-1.6209,-1.7287,-1.8085,-1.843,-1.9516,-2.0692,-2.1975,-2.2524,-2.3274,-2.408,-2.3166,-2.3274,-2.4384,-2.5804,-2.6438,-2.6472,-2.6637,-2.6637,-2.6637,-2.673,-2.6812,-2.6883,-2.7936,-2.8255,-2.8426,-2.9443,-2.9792,-2.9792,-2.9792,-2.9792,-2.9792,-2.9792,-2.9792,-2.9792,-2.9792,-2.9792,-2.9792,-2.9792,-3.0168,-3.0059,-2.8282,-2.8893,-2.9484,-2.8252,-2.8928,-2.9547,-2.907,-2.9837,-3.0425,-2.9774,-2.9761,-2.9624,-2.9087,-2.9101,-2.8683,-2.7578,-2.8192,-2.833,-2.7386,-2.7189,-2.6914,-2.6517,-2.6483,-2.6483,-2.6483,-2.5546,-2.4957,-2.4957,-2.38,-2.3135,-2.3135,-2.3135,-2.3135,-2.3135,-2.3135,-2.3135,-2.3135,-2.3135,-2.3135,-1.4937,-1.4061,0.0,0.0,-1.4619,-1.5074,-1.429,-1.4322,-1.4422,-1.4318,-1.4361,-1.4471,-1.4636,-1.4474,-1.4373,-1.4449,-1.4522,-1.4543,-1.4603,-1.4416,-1.4188,-1.3955,-1.4573,-1.4931,-1.4605,-1.5357,-1.5886,0.0,0.0,0.0,-1.6,-1.7201,-1.7923,-1.7843,-1.8853,-1.9439,-1.9525,-2.0555,-2.1261,0.0,-2.2774,-2.3461,-2.3642,-2.4082,-2.4636,-2.5319,-2.5672,-2.6021,-2.6565,-2.7452,-2.7775,-2.7855,-2.87,-2.9118,-2.9131,-2.9365,-2.9443,-2.9456,-2.9702,-2.9792,-2.9792,-2.9792,-2.9792,-2.9792,-2.9792,-2.9792,-2.9792,-2.9792,-2.9792,-2.9792,-2.9792,-2.988,-2.9836,-2.9438,-3.0183,-3.0951,-3.0692,-3.0466,-3.0319,-3.0208,-3.0436,-3.0566,-3.0425,-3.1051,-3.1484,-3.0913,-3.1232,-3.1038,-2.9984,-2.9535,-2.916,-2.8598,-2.7695,-2.6914,-2.6517,-2.6483,-2.6483,-2.6483,-2.6307,-2.6141,-2.6141,-2.4145,-2.3135,-2.3135,-2.3135,-2.3135,-2.3135,-2.3135,-2.3135,-2.3135,-2.3135,-2.3135,-1.5038,0.0,0.0,-1.433,0.0,-1.549,-1.5279,-1.5133,-1.4927,-1.4429,-1.4343,-1.4369,-1.4496,-1.4536,-1.4489,-1.4335,-1.4723,-1.4886,-1.4394,-1.4866,-1.5087,-1.4367,-1.5076,-1.5382,-1.5117,-1.5905,-1.6425,0.0,0.0,-1.716,-1.6982,-1.7871,-1.8524,-1.874,-1.9322,-1.992,-2.0542,-2.1037,-2.1636,-2.2288,-2.3037,-2.3677,-2.4141,-2.4904,-2.5724,-2.6438,-2.6999,-2.7542,-2.8131,-2.87,-2.8937,-2.8937,-2.9534,-2.9792,-2.9792,-2.9792,-2.9792,-2.9792,-2.9792,-2.9792,-2.9792,-2.9792,-2.9792,-2.9792,-2.9792,-2.9792,-2.9792,-2.9792,-2.9792,-2.9792,-2.9792,-2.9792,-2.9792,-2.9792,-3.0218,-3.062,-3.062,-3.0407,-3.0218,-3.0218,-3.0218,-3.0306,-3.057,-3.1286,-3.1637,-3.1097,-3.1474,-3.1436,-3.0357,-3.0177,-2.987,-2.9413,-2.8778,-2.8336,-2.8075,-2.8051,-2.8051,-2.8051,-2.7545,-2.729,-2.729,-2.5641,-2.4467,-2.3877,-2.3877,-2.3637,-2.3135,-2.3135,-2.3135,-2.3135,-2.3135,-2.3135,-1.5215,0.0,-1.4063,-1.4636,-1.5081,0.0,-1.6133,-1.6007,-1.5479,-1.4851,-1.436,-1.4111,-1.445,-1.4544,-1.4559,-1.4421,-1.5262,-1.5517,-1.4587,-1.5694,-1.6266,-1.5291,-1.579,-1.6072,-1.578,-1.6633,0.0,0.0,0.0,-1.8577,-1.8221,-1.8735,-1.9209,-1.9624,-1.9613,-2.0115,-2.1163,-2.1374,-2.2053,-2.3214,-2.3442,-2.3976,-2.4806,-2.5338,-2.6214,-2.7224,-2.8201,-2.8976,-2.9503,-2.9503,-2.9553,-2.9641,-2.9641,-2.9704,-2.9792,-2.9792,-2.9792,-2.9792,-2.9792,-2.9792,-2.9792,-2.9792,-2.9934,-2.9998,-2.9869,-2.9934,-3.0075,-3.0075,-2.9934,-2.9856,-3.0216,-3.0139,-3.0075,-3.0075,-3.0152,-3.0216,-2.9869,-2.9792,-2.9792,-2.9792,-2.9792,-2.9967,-3.052,-3.0972,-3.111,-3.0683,-3.0984,-3.0896,-2.9917,-3.0193,-3.0294,-2.9842,-2.9792,-2.9792,-2.9792,-2.9792,-2.9792,-2.9792,-2.8937,-2.8426,-2.8426,-2.7545,-2.6543,-2.5368,-2.521,-2.4628,-2.3724,-2.3724,-2.3724,-2.3724,-2.3724,-2.3724,-1.6481,0.0,-1.4397,0.0,-1.5128,-1.5467,0.0,0.0,-1.5774,0.0,-1.5602,-1.5498,-1.4747,-1.5582,-1.6197,-1.5809,-1.625,-1.6347,-1.5801,-1.5952,-1.5951,-1.5583,-1.6323,-1.6731,-1.6474,-1.7301,0.0,0.0,-1.8704,-1.9173,-1.911,-2.0256,-2.0874,-2.0941,-2.0941,-2.1041,-2.1174,-2.2043,-2.2621,-2.2769,-2.4042,-2.4678,-2.4833,-2.4903,-2.5535,-2.6664,-2.7222,-2.7821,-2.8335,-2.8335,-2.8612,-2.9038,-2.9038,-2.9352,-2.9792,-2.9792,-2.9792,-2.9792,-2.9792,-2.9792,-2.9792,-2.9792,-3.0343,-3.0833,-3.0075,-3.0343,-3.1044,-3.1044,-3.0419,-3.0139,-3.1829,-3.1609,-3.1044,-3.1044,-3.1609,-3.1756,-3.0152,-2.9792,-2.9792,-2.9792,-2.9792,-2.9967,-3.052,-3.067,-3.0696,-3.062,-3.067,-3.0495,-2.988,-2.9854,-2.988,-2.9804,-2.9792,-2.9792,-2.9792,-2.9792,-2.9792,-2.9792,-2.9624,-2.9534,-2.9534,-2.9456,-2.8858,-2.7671,-2.6707,-2.6224,-2.6069,-2.6069,-2.6069,-2.6069,-2.6069,-2.6069,-1.6671,-1.5897,-1.5315,0.0,-1.5543,-1.6014,-1.6154,-1.6296,-1.6159,-1.5547,-1.5963,-1.6202,-1.5483,-1.5899,-1.6264,-1.6024,-1.6674,-1.6962,-1.61,-1.6629,-1.6884,-1.6128,-1.6718,-1.7163,-1.7034,-1.7826,0.0,0.0,-1.9029,-1.9543,-1.9553,-2.0388,-2.1099,-2.1562,-2.1262,-2.1311,-2.182,-2.2274,-2.2629,-2.2923,-2.3567,-2.3879,-2.3891,-2.4617,-2.555,-2.6546,-2.6716,-2.7306,-2.8134,-2.8436,-2.8712,-2.895,-2.983,-3.0325,-3.0558,-3.0558,-3.0921,-3.1267,-3.0771,-3.0558,-3.0696,-3.1206,-3.1254,-3.1254,-3.1328,-3.1696,-3.196,-3.196,-3.1683,-3.1549,-3.2393,-3.2321,-3.196,-3.196,-3.2321,-3.2393,-3.1549,-3.0983,-3.0419,-2.9934,-2.9792,-2.9867,-3.0118,-3.0156,-3.0156,-3.0156,-3.0156,-3.0068,-2.9829,-2.9792,-2.9792,-2.9792,-2.9792,-2.9792,-2.9792,-2.9792,-2.9792,-2.9792,-2.9792,-2.9792,-2.9792,-2.9792,-2.9534,-2.9028,-2.7947,-2.7128,-2.6483,-2.6483,-2.6483,-2.6483,-2.6483,-2.6483,0.0,0.0,-1.6065,-1.5633,-1.5785,-1.6143,0.0,0.0,-1.6416,0.0,-1.6116,-1.658,-1.6214,-1.6272,-1.6374,-1.6468,-1.724,-1.7433,-1.6504,-1.7241,-1.7591,-1.6812,-1.7232,-1.7586,-1.7769,-1.8248,0.0,0.0,-1.9342,-1.9833,-1.9905,-2.0515,-2.1155,-2.1789,-2.1332,-2.1421,-2.2096,-2.2108,-2.2546,-2.3418,-2.3255,-2.3331,-2.3721,-2.4728,-2.5656,-2.6411,-2.676,-2.7443,-2.8396,-2.8736,-2.9083,-2.9525,-3.0633,-3.1269,-3.1536,-3.1536,-3.2033,-3.2536,-3.1815,-3.1536,-3.1669,-3.2393,-3.2321,-3.2033,-3.2464,-3.2749,-3.2961,-3.2961,-3.282,-3.2749,-3.3185,-3.3185,-3.2961,-3.2961,-3.3171,-3.3185,-3.2678,-3.2033,-3.1328,-3.0633,-3.0495,-3.0432,-3.0216,-3.0355,-3.0355,-2.9869,-2.9998,-3.0075,-2.9869,-2.9792,-2.9792,-2.9792,-2.9792,-2.9792,-2.9792,-2.9792,-2.9792,-2.9792,-2.9792,-2.9792,-2.9792,-2.9792,-2.9792,-2.9792,-2.8937,-2.8119,-2.7313,-2.7313,-2.7313,-2.7313,-2.7313,-2.7313,0.0,-1.7151,0.0,-1.61,-1.5713,-1.5438,0.0,0.0,-1.6355,-1.6127,-1.6373,-1.6694,-1.6654,-1.7002,-1.7474,-1.7794,-1.793,-1.7794,-1.7397,-1.7375,-1.7506,-1.7729,-1.7781,-1.8068,-1.8775,-1.8835,0.0,0.0,-1.9667,-2.0146,-2.0146,-2.1011,-2.1456,-2.1512,-2.1487,-2.1475,-2.1531,-2.1531,-2.2496,-2.4339,-2.3699,-2.4062,-2.5287,-2.537,-2.5699,-2.627,-2.7407,-2.8318,-2.8972,-2.8999,-2.9687,-3.0718,-3.0813,-3.153,-3.2522,-3.2522,-3.2522,-3.2593,-3.2522,-3.2522,-3.2522,-3.2593,-3.3171,-3.3671,-3.289,-3.3241,-3.3945,-3.3945,-3.331,-3.3031,-3.4854,-3.4624,-3.3945,-3.3945,-3.4691,-3.4839,-3.2961,-3.2522,-3.2536,-3.2464,-3.2464,-3.2177,-3.1241,-3.1888,-3.1829,-3.0075,-3.0558,-3.0833,-2.9934,-2.9792,-2.9792,-2.9792,-2.9792,-2.9792,-2.9792,-2.9792,-2.9792,-2.9792,-2.9792,-2.9792,-2.9792,-2.9792,-2.9792,-2.9792,-2.9714,-2.9702,-2.9624,-2.9624,-2.9624,-2.9624,-2.9624,-2.9624,0.0,0.0,0.0,-1.7076,-1.6663,-1.6397,-1.6143,-1.61,-1.6116,-1.6073,-1.6422,-1.6846,-1.7154,-1.7073,-1.7012,-1.7168,-1.7556,-1.7805,-1.7706,-1.7863,-1.8023,-1.8137,-1.8115,-1.8232,-1.8514,-1.8919,0.0,0.0,0.0,-2.0545,-2.0545,-2.1113,-2.1493,-2.1493,-2.1553,-2.176,-2.2217,-2.2217,-2.2719,-2.3774,-2.3946,-2.43,-2.4804,-2.5709,-2.6463,-2.7073,-2.7977,-2.8352,-2.8429,-2.9187,-2.9766,-3.0301,-3.1706,-3.2567,-3.2939,-3.3391,-3.3891,-3.4341,-3.3739,-3.3518,-3.3602,-3.4259,-3.4259,-3.4027,-3.4341,-3.4706,-3.4986,-3.4986,-3.4706,-3.4624,-3.5294,-3.5213,-3.4986,-3.4986,-3.5213,-3.5294,-3.4624,-3.3463,-3.2593,-3.2593,-3.2593,-3.2464,-3.2177,-3.2393,-3.2393,-3.1696,-3.1888,-3.196,-3.1623,-3.1623,-3.1623,-3.1623,-3.1623,-3.1328,-3.0771,-3.0696,-3.0419,-2.9869,-2.9792,-2.9792,-2.9792,-2.9792,-2.9792,-2.9792,-2.9792,-2.9792,-2.9792,-2.9792,-2.9792,-2.9792,-2.9792,-2.9792,-1.9797,0.0,0.0,0.0,-1.7492,-1.7043,-1.6442,-1.6196,-1.6029,-1.582,-1.6147,-1.6643,-1.6924,-1.6694,-1.6687,-1.7338,-1.7727,-1.7984,-1.7984,-1.8178,-1.8316,-1.8419,-1.8407,-1.8519,-1.8797,-1.9238,0.0,0.0,0.0,0.0,-2.0731,-2.1275,-2.1575,-2.1575,-2.1599,-2.1952,-2.2636,-2.2429,-2.2783,-2.3809,-2.4067,-2.4526,-2.5157,-2.6081,-2.6907,-2.7574,-2.8263,-2.8682,-2.8887,-2.9709,-3.0304,-3.0835,-3.2347,-3.3033,-3.3296,-3.3908,-3.4566,-3.5111,-3.4684,-3.4476,-3.461,-3.5279,-3.5052,-3.461,-3.5294,-3.5504,-3.5504,-3.5504,-3.5504,-3.5504,-3.5504,-3.5504,-3.5504,-3.5504,-3.5504,-3.5504,-3.5504,-3.4491,-3.3547,-3.3547,-3.3547,-3.3463,-3.3101,-3.3325,-3.3325,-3.2678,-3.289,-3.2961,-3.2664,-3.2593,-3.2593,-3.2593,-3.2593,-3.2321,-3.1742,-3.1669,-3.1402,-3.0771,-3.0709,-3.057,-3.0279,-3.0279,-3.0139,-2.9792,-2.9792,-2.9792,-2.9792,-2.9792,-2.9792,-2.9792,-2.9792,-2.9792,0.0,0.0,0.0,0.0,-1.8145,-1.7175,-1.6604,-1.6398,-1.615,-1.5499,-1.5746,-1.6042,-1.6042,-1.6053,-1.6688,-1.8581,-1.855,-1.8259,-1.827,-1.8339,-1.8441,-1.8721,-1.8715,-1.9032,-1.9747,-1.985,0.0,0.0,-2.0446,-2.0845,-2.0845,-2.139,-2.1697,-2.1744,-2.1744,-2.2053,-2.2694,-2.21,-2.2676,-2.4552,-2.3987,-2.4725,-2.6527,-2.6572,-2.6946,-2.7625,-2.8263,-2.9295,-3.0477,-3.0492,-3.1285,-3.2482,-3.2497,-3.2901,-3.3544,-3.4203,-3.4457,-3.4562,-3.5235,-3.5489,-3.5504,-3.5504,-3.5504,-3.5504,-3.5504,-3.5504,-3.5504,-3.5504,-3.5504,-3.5504,-3.5504,-3.5504,-3.5504,-3.5504,-3.5504,-3.5504,-3.5504,-3.5504,-3.5504,-3.5504,-3.5504,-3.5213,-3.4245,-3.4839,-3.4854,-3.2961,-3.3449,-3.3739,-3.282,-3.2678,-3.2678,-3.2678,-3.2678,-3.2664,-3.2664,-3.2664,-3.2593,-3.2593,-3.2593,-3.2177,-3.1241,-3.1254,-3.0833,-2.9856,-2.9856,-2.9869,-2.9869,-2.9792,-2.9792,-2.9792,-2.9792,-2.9792,-2.0751,0.0,0.0,0.0,0.0,0.0,-1.776,-1.7334,-1.6987,-1.6789,-1.6868,-1.701,-1.701,-1.7326,-1.7788,-1.8321,-1.7855,-1.7571,-1.7944,-1.8446,-1.897,-1.9451,-1.9475,-1.9786,-2.0446,0.0,0.0,0.0,-2.1328,-2.1424,-2.1424,-2.1615,-2.1899,-2.2406,-2.2406,-2.2725,-2.3319,-2.3172,-2.3349,-2.3894,-2.4193,-2.4624,-2.5211,-2.6153,-2.6692,-2.6901,-2.7575,-2.8873,-3.0591,-3.0503,-3.1016,-3.1795,-3.2332,-3.2617,-3.2871,-3.3529,-3.4068,-3.4502,-3.4696,-3.5085,-3.5504,-3.5504,-3.5504,-3.5504,-3.5504,-3.5504,-3.5504,-3.5504,-3.5504,-3.5504,-3.5504,-3.5504,-3.5504,-3.5504,-3.5504,-3.5504,-3.5504,-3.5504,-3.5504,-3.5504,-3.5504,-3.5424,-3.5133,-3.5294,-3.5294,-3.4773,-3.492,-3.4986,-3.4706,-3.4706,-3.4706,-3.4706,-3.4706,-3.4409,-3.3671,-3.3602,-3.331,-3.2664,-3.2593,-3.2464,-3.2249,-3.2249,-3.2105,-3.1829,-3.1829,-3.1476,-3.0833,-3.0139,-2.9792,-2.9792,-2.9792,-2.9792,0.0,0.0,0.0,0.0,0.0,0.0,-1.8812,-1.8157,-1.7626,-1.7626,-1.7673,-1.7626,-1.7393,-1.7619,-1.7837,-1.7837,-1.7483,-1.7378,-1.7934,-1.8595,-1.9108,-1.9415,-1.9636,-2.0066,-2.0737,-2.0812,-2.105,-2.1635,-2.1946,-2.2239,-2.2455,-2.25,-2.2665,-2.3054,-2.3054,-2.3246,-2.3595,-2.3837,-2.3906,-2.3964,-2.4572,-2.501,-2.5318,-2.638,-2.7026,-2.7334,-2.8059,-2.9197,-3.0506,-3.0474,-3.1029,-3.2053,-3.2686,-3.2798,-3.2676,-3.3591,-3.4038,-3.4121,-3.4395,-3.4785,-3.507,-3.507,-3.5265,-3.5504,-3.5504,-3.5504,-3.5504,-3.5504,-3.5504,-3.5504,-3.5504,-3.5504,-3.5504,-3.5504,-3.5504,-3.5504,-3.5504,-3.5504,-3.5504,-3.5504,-3.5504,-3.5504,-3.5504,-3.5504,-3.5504,-3.5504,-3.5504,-3.5504,-3.5504,-3.5504,-3.5504,-3.5504,-3.5504,-3.5279,-3.4691,-3.4624,-3.4394,-3.3837,-3.3837,-3.3616,-3.3171,-3.3171,-3.3031,-3.2593,-3.2593,-3.2321,-3.1742,-3.0833,-3.0216,-2.9792,-2.9792,-2.9792,0.0,0.0,0.0,0.0,-2.0447,0.0,-1.9763,-1.9066,-1.8422,-1.8366,-1.8274,-1.8118,-1.7639,-1.749,-1.7463,-1.7463,-1.7422,-1.7581,-1.8172,-1.8669,-1.9001,-1.9067,-1.9516,-2.0075,-2.0733,-2.0789,-2.1042,-2.1648,-2.2309,-2.3025,-2.3752,-2.3709,-2.3724,-2.3752,-2.3752,-2.3752,-2.3752,-2.4225,-2.4511,-2.4511,-2.4973,-2.5518,-2.6094,-2.6942,-2.763,-2.8227,-2.907,-2.9806,-3.0493,-3.0493,-3.1272,-3.2516,-3.3196,-3.3124,-3.2756,-3.4006,-3.413,-3.3696,-3.4187,-3.4468,-3.4602,-3.454,-3.4898,-3.5409,-3.5484,-3.5514,-3.5514,-3.5589,-3.5554,-3.5504,-3.5504,-3.5504,-3.5504,-3.5504,-3.5504,-3.5504,-3.5504,-3.5504,-3.5504,-3.5504,-3.5504,-3.5504,-3.5504,-3.5504,-3.5504,-3.5504,-3.5504,-3.5504,-3.5504,-3.5504,-3.5504,-3.5504,-3.5504,-3.5504,-3.5504,-3.5504,-3.5504,-3.5504,-3.5504,-3.5133,-3.4177,-3.4177,-3.3739,-3.2961,-3.282,-3.2749,-3.2749,-3.1815,-3.0833,-2.9934,-2.9934,-2.9934,0.0,0.0,0.0,0.0,0.0,0.0,-2.0875,-2.069,-2.0523,-1.9919,-1.9465,-1.9111,-1.9002,-1.8749,-1.8489,-1.8489,-1.8182,-1.8153,-1.8708,-1.8845,-1.9078,-1.9581,-1.9738,-2.0028,-2.0642,-2.0699,-2.0982,-2.1657,-2.2325,-2.3334,-2.48,-2.4471,-2.443,-2.4855,-2.491,-2.491,-2.491,-2.4989,-2.5051,-2.5067,-2.5144,-2.5246,-2.5438,-2.6718,-2.7374,-2.7566,-2.8846,-3.0077,-3.1216,-3.1216,-3.1396,-3.172,-3.2442,-3.2615,-3.2609,-3.3483,-3.4037,-3.4333,-3.387,-3.4441,-3.532,-3.4654,-3.4586,-3.4801,-3.5309,-3.5523,-3.5691,-3.623,-3.5943,-3.5504,-3.5504,-3.5504,-3.5504,-3.5504,-3.5504,-3.5504,-3.5504,-3.5504,-3.5504,-3.5504,-3.5504,-3.5504,-3.5504,-3.5504,-3.5504,-3.5504,-3.5504,-3.5504,-3.5504,-3.5504,-3.5504,-3.5504,-3.5504,-3.5504,-3.5504,-3.5504,-3.5504,-3.5504,-3.5504,-3.5424,-3.5213,-3.5213,-3.5133,-3.492,-3.4109,-3.3739,-3.3739,-3.282,-3.1815,-3.0895,-3.0895,-3.0482,0.0,0.0,0.0,-2.2167,0.0,0.0,0.0,-2.1503,-2.1045,-2.0665,-2.0389,-2.0122,-1.9852,-1.9607,-1.9495,-1.9495,-1.9141,-1.9087,-1.9842,-1.9349,-1.8995,-1.9318,-1.9577,-1.9987,-2.064,-2.0902,-2.137,-2.2278,-2.2655,-2.3366,-2.4601,-2.4404,-2.4546,-2.5166,-2.5221,-2.5221,-2.5221,-2.5465,-2.5615,-2.5615,-2.5835,-2.5928,-2.5977,-2.7081,-2.7773,-2.8201,-2.9288,-3.0344,-3.1274,-3.1274,-3.1323,-3.1424,-3.2915,-3.3286,-3.3129,-3.4185,-3.4628,-3.4572,-3.4182,-3.4505,-3.502,-3.466,-3.4801,-3.5106,-3.5467,-3.5854,-3.6126,-3.6071,-3.6014,-3.5867,-3.5183,-3.525,-3.5415,-3.507,-3.525,-3.5504,-3.5504,-3.5504,-3.5504,-3.5504,-3.5504,-3.5504,-3.5504,-3.5504,-3.5504,-3.5504,-3.5504,-3.5504,-3.5504,-3.5504,-3.5504,-3.5504,-3.5504,-3.5504,-3.5504,-3.5504,-3.5504,-3.5504,-3.5504,-3.5504,-3.5504,-3.5504,-3.5504,-3.5504,-3.4986,-3.4758,-3.4758,-3.4259,-3.3325,-3.1888,-3.1888,-3.1683,0.0,0.0,0.0,0.0,0.0,-2.2245,0.0,0.0,0.0,-2.1293,0.0,0.0,0.0,0.0,0.0,0.0,0.0,0.0,0.0,-1.9932,0.0,-1.931,-1.9536,-1.9972,-2.0712,-2.106,-2.1714,-2.2863,-2.2856,-2.3195,-2.4136,-2.4225,-2.4563,-2.526,-2.5405,-2.5486,-2.5486,-2.5924,-2.612,-2.6156,-2.6505,-2.6691,-2.6725,-2.7469,-2.8163,-2.8805,-2.9719,-3.0446,-3.0987,-3.0987,-3.1072,-3.1376,-3.3305,-3.3745,-3.3437,-3.4718,-3.4834,-3.4386,-3.4376,-3.4464,-3.4565,-3.4591,-3.5032,-3.5626,-3.5626,-3.5998,-3.6405,-3.6032,-3.6294,-3.6321,-3.523,-3.5311,-3.5533,-3.4865,-3.51,-3.5504,-3.5504,-3.5504,-3.5504,-3.5504,-3.5504,-3.5504,-3.5504,-3.5504,-3.5504,-3.5504,-3.5504,-3.5504,-3.5504,-3.5504,-3.5504,-3.5504,-3.5504,-3.5504,-3.5504,-3.5504,-3.5504,-3.5504,-3.5504,-3.5504,-3.5504,-3.5624,-3.5684,-3.5684,-3.5684,-3.5684,-3.5684,-3.5684,-3.4742,-3.289,-3.289,-3.2875,0.0,0.0,0.0,0.0,-2.3296,0.0,0.0,0.0,-2.2954,-2.2286,0.0,0.0,0.0,0.0,0.0,0.0,0.0,0.0,-2.0082,-2.0448,-2.0748,-2.0748,-2.0139,-2.0045,0.0,-2.1021,-2.1488,-2.2653,-2.236,-2.2817,-2.4355,-2.4613,-2.4975,-2.5547,-2.6202,-2.6539,-2.6539,-2.659,-2.6624,-2.6624,-2.6657,-2.6691,-2.6725,-2.7469,-2.784,-2.8027,-2.9482,-3.0159,-3.0226,-3.0226,-3.0615,-3.1275,-3.2188,-3.2486,-3.2529,-3.333,-3.3617,-3.3556,-3.3624,-3.3997,-3.4499,-3.4605,-3.5054,-3.5611,-3.5661,-3.5687,-3.5966,-3.7194,-3.7132,-3.6648,-3.6412,-3.6446,-3.6306,-3.5578,-3.5444,-3.5504,-3.5504,-3.5504,-3.5504,-3.5504,-3.5504,-3.5504,-3.5504,-3.5504,-3.5504,-3.5504,-3.5504,-3.5504,-3.5504,-3.5504,-3.5504,-3.5504,-3.5504,-3.5504,-3.5504,-3.5504,-3.5504,-3.5504,-3.5504,-3.5504,-3.5504,-3.6073,-3.6372,-3.6372,-3.6372,-3.6372,-3.6372,-3.6372,-3.5547,-3.3808,-3.3808,-3.3677,0.0,0.0,0.0,0.0,0.0,0.0,-2.2987,0.0,-2.2682,0.0,0.0,0.0,0.0,0.0,0.0,0.0,-2.162,0.0,0.0,0.0,-2.1464,0.0,0.0,0.0,0.0,0.0,0.0,0.0,-2.2429,-2.2836,-2.3799,-2.3936,-2.449,-2.5575,-2.5896,-2.6268,-2.6691,-2.6691,-2.6691,-2.6691,-2.6691,-2.6691,-2.6708,-2.7012,-2.7402,-2.7823,-2.8465,-2.9042,-2.9482,-2.9922,-3.0294,-3.0632,-3.136,-3.1901,-3.2374,-3.3136,-3.3677,-3.4023,-3.4046,-3.4538,-3.5138,-3.5153,-3.5379,-3.5629,-3.5629,-3.5956,-3.6439,-3.703,-3.7245,-3.7258,-3.68,-3.7006,-3.7109,-3.6419,-3.6168,-3.6165,-3.6165,-3.6165,-3.6165,-3.6165,-3.6165,-3.6165,-3.6165,-3.5782,-3.5504,-3.5504,-3.5504,-3.5504,-3.5504,-3.5504,-3.5504,-3.5504,-3.5504,-3.5504,-3.5504,-3.5504,-3.5504,-3.5504,-3.5863,-3.6073,-3.6073,-3.6686,-3.7015,-3.7015,-3.7015,-3.6851,-3.6492,-3.6851,-3.6469,-3.548,-3.5834,-3.5732,-2.3418,0.0,0.0,0.0,0.0,0.0,0.0,0.0,0.0,0.0,0.0,0.0,0.0,0.0,0.0,0.0,0.0,-2.2418,0.0,-2.2375,0.0,0.0,0.0,0.0,0.0,0.0,0.0,-2.2426,-2.2599,-2.2814,-2.3083,-2.3291,-2.3883,-2.4966,-2.5516,-2.6007,-2.6567,-2.6869,-2.7019,-2.7019,-2.7019,-2.6971,-2.6873,-2.7004,-2.7262,-2.7675,-2.7998,-2.8442,-2.9059,-2.9572,-2.9932,-3.0172,-3.0702,-3.1295,-3.193,-3.2551,-3.3254,-3.3914,-3.4117,-3.4827,-3.5622,-3.5622,-3.5622,-3.5622,-3.5622,-3.6011,-3.651,-3.6703,-3.7119,-3.7463,-3.7134,-3.7455,-3.7665,-3.7215,-3.7017,-3.6843,-3.6676,-3.6783,-3.6843,-3.6661,-3.6615,-3.6615,-3.6615,-3.6006,-3.5504,-3.5504,-3.5504,-3.5504,-3.5504,-3.5504,-3.5504,-3.5504,-3.5504,-3.5504,-3.5504,-3.5504,-3.5579,-3.5759,-3.6222,-3.6641,-3.7,-3.7434,-3.7674,-3.7674,-3.7674,-3.7464,-3.7015,-3.7464,-3.7449,-3.7015,-3.7285,-3.727,0.0,0.0,0.0,-2.4184,0.0,0.0,0.0,0.0,-2.4109,0.0,0.0,0.0,0.0,0.0,0.0,-2.2215,0.0,0.0,0.0,0.0,0.0,0.0,0.0,0.0,0.0,-2.2919,-2.3045,-2.2721,-2.2695,-2.259,-2.2344,-2.3004,-2.341,-2.346,-2.521,-2.6194,-2.6229,-2.7326,-2.7869,-2.7869,-2.7869,-2.7648,-2.7286,-2.7678,-2.7666,-2.7373,-2.8486,-2.8988,-2.9006,-2.9041,-2.947,-3.0127,-3.0207,-3.0427,-3.0696,-3.1108,-3.1732,-3.2459,-3.3186,-3.4404,-3.5622,-3.5622,-3.5622,-3.5622,-3.5622,-3.5639,-3.5825,-3.6586,-3.6823,-3.6973,-3.7612,-3.7765,-3.7785,-3.7785,-3.7732,-3.7573,-3.6798,-3.7203,-3.7515,-3.6722,-3.6615,-3.6615,-3.6615,-3.6006,-3.5504,-3.5504,-3.5504,-3.5504,-3.5504,-3.5504,-3.5504,-3.5504,-3.5504,-3.5504,-3.5504,-3.5504,-3.5774,-3.6417,-3.6477,-3.7045,-3.8287,-3.8347,-3.8362,-3.8362,-3.8362,-3.8347,-3.8332,-3.8347,-3.8347,-3.8317,-3.7689,-3.7749,0.0,0.0,-2.4286,-2.4883,0.0,0.0,0.0,0.0,0.0,0.0,0.0,0.0,0.0,0.0,-2.3118,-2.2876,-2.3213,0.0,0.0,0.0,0.0,0.0,0.0,0.0,0.0,0.0,0.0,-2.2721,-2.2923,-2.2832,-2.2338,-2.2928,-2.3406,-2.3715,-2.5028,-2.5991,-2.6525,-2.7423,-2.7897,-2.7897,-2.7897,-2.784,-2.7678,-2.784,-2.784,-2.7725,-2.8105,-2.8269,-2.8322,-2.8788,-2.916,-2.9465,-3.0521,-3.0973,-3.111,-3.1493,-3.191,-3.2459,-3.3694,-3.4776,-3.5622,-3.5622,-3.5622,-3.5622,-3.5622,-3.5622,-3.5774,-3.6552,-3.6772,-3.6945,-3.7683,-3.8237,-3.8606,-3.8567,-3.8541,-3.8453,-3.8157,-3.8342,-3.8469,-3.8157,-3.8101,-3.7946,-3.7499,-3.6753,-3.6054,-3.5554,-3.5504,-3.5504,-3.5504,-3.5504,-3.5504,-3.5504,-3.5504,-3.5504,-3.5504,-3.5504,-3.5789,-3.6447,-3.6866,-3.7479,-3.8347,-3.8826,-3.9065,-3.9065,-3.9065,-3.8841,-3.8392,-3.8856,-3.8841,-3.8407,-3.8631,-3.8616,-2.5795,-2.5118,0.0,-2.5173,-2.4125,0.0,-2.3519,0.0,0.0,0.0,0.0,0.0,0.0,0.0,0.0,-2.3544,-2.3753,-2.3899,0.0,-2.4173,0.0,0.0,0.0,0.0,0.0,-2.35,-2.3369,-2.2923,-2.3189,-2.3159,0.0,0.0,-2.334,-2.3641,-2.4977,-2.5954,-2.648,-2.7709,-2.8281,-2.8281,-2.8281,-2.8228,-2.8075,-2.8228,-2.8228,-2.8075,-2.8228,-2.8281,-2.8335,-2.8793,-2.899,-2.9151,-3.0711,-3.1249,-3.1209,-3.181,-3.2254,-3.2758,-3.405,-3.481,-3.5267,-3.5537,-3.5622,-3.5622,-3.5622,-3.5622,-3.5723,-3.6231,-3.6366,-3.6552,-3.7313,-3.8058,-3.8667,-3.8937,-3.9143,-3.9262,-3.8962,-3.9139,-3.9262,-3.8962,-3.8908,-3.8745,-3.8246,-3.7322,-3.6337,-3.5619,-3.5504,-3.5504,-3.5504,-3.5504,-3.5504,-3.5504,-3.5504,-3.5504,-3.5504,-3.5504,-3.5878,-3.6761,-3.718,-3.7823,-3.8721,-3.9185,-3.9529,-3.9768,-3.9544,-3.9305,-3.911,-3.932,-3.9185,-3.8766,-3.9215,-3.9185]}]]